<?xml version="1.0" encoding="UTF-8" standalone="no" ?>
<gpx xmlns="http://www.topografix.com/GPX/1/1" xmlns:xsi="http://www.w3.org/2001/XMLSchema-instance" xsi:schemaLocation="http://www.topografix.com/GPX/1/1 http://www.topografix.com/GPX/1/1/gpx.xsd" version="1.1" creator="VisuGPX - https://www.visugpx.com">
  <metadata>
    <name>Dimanche 5 juillet 2026 Lizuniaga - Ibardin</name>
  </metadata>
  <trk>
    <name><![CDATA[Dimanche 5 juillet 26]]></name>
    <extensions>
      <line xmlns="http://www.topografix.com/GPX/gpx_style/0/2">
        <width>7</width>
      </line>
    </extensions>
    <trkseg>
      <trkpt lat="43.38271" lon="-1.65918">
        <ele>2</ele>
        <time>2026-06-28T18:04:33.000Z</time>
      </trkpt>
      <trkpt lat="43.38275" lon="-1.6591">
        <ele>3</ele>
        <time>2026-06-28T18:04:34.000Z</time>
      </trkpt>
      <trkpt lat="43.38287" lon="-1.65906">
        <ele>3</ele>
        <time>2026-06-28T18:04:36.000Z</time>
      </trkpt>
      <trkpt lat="43.38298" lon="-1.65898">
        <ele>4</ele>
        <time>2026-06-28T18:04:39.000Z</time>
      </trkpt>
      <trkpt lat="43.38297" lon="-1.6589">
        <ele>4</ele>
        <time>2026-06-28T18:04:40.000Z</time>
      </trkpt>
      <trkpt lat="43.38274" lon="-1.65842">
        <ele>3</ele>
        <time>2026-06-28T18:04:47.000Z</time>
      </trkpt>
      <trkpt lat="43.38228" lon="-1.65717">
        <ele>3</ele>
        <time>2026-06-28T18:05:05.000Z</time>
      </trkpt>
      <trkpt lat="43.38225" lon="-1.65705">
        <ele>3</ele>
        <time>2026-06-28T18:05:07.000Z</time>
      </trkpt>
      <trkpt lat="43.38224" lon="-1.65693">
        <ele>3</ele>
        <time>2026-06-28T18:05:08.000Z</time>
      </trkpt>
      <trkpt lat="43.38225" lon="-1.65681">
        <ele>3</ele>
        <time>2026-06-28T18:05:10.000Z</time>
      </trkpt>
      <trkpt lat="43.38232" lon="-1.65665">
        <ele>4</ele>
        <time>2026-06-28T18:05:12.000Z</time>
      </trkpt>
      <trkpt lat="43.38244" lon="-1.65648">
        <ele>4</ele>
        <time>2026-06-28T18:05:16.000Z</time>
      </trkpt>
      <trkpt lat="43.38262" lon="-1.65624">
        <ele>3</ele>
        <time>2026-06-28T18:05:20.000Z</time>
      </trkpt>
      <trkpt lat="43.3828" lon="-1.65606">
        <ele>3</ele>
        <time>2026-06-28T18:05:24.000Z</time>
      </trkpt>
      <trkpt lat="43.38341" lon="-1.65524">
        <ele>4</ele>
        <time>2026-06-28T18:05:39.000Z</time>
      </trkpt>
      <trkpt lat="43.38344" lon="-1.65515">
        <ele>4</ele>
        <time>2026-06-28T18:05:40.000Z</time>
      </trkpt>
      <trkpt lat="43.38343" lon="-1.65506">
        <ele>4</ele>
        <time>2026-06-28T18:05:42.000Z</time>
      </trkpt>
      <trkpt lat="43.38322" lon="-1.65476">
        <ele>4</ele>
        <time>2026-06-28T18:05:47.000Z</time>
      </trkpt>
      <trkpt lat="43.38318" lon="-1.65467">
        <ele>4</ele>
        <time>2026-06-28T18:05:48.000Z</time>
      </trkpt>
      <trkpt lat="43.38319" lon="-1.65456">
        <ele>4</ele>
        <time>2026-06-28T18:05:50.000Z</time>
      </trkpt>
      <trkpt lat="43.38323" lon="-1.65447">
        <ele>4</ele>
        <time>2026-06-28T18:05:51.000Z</time>
      </trkpt>
      <trkpt lat="43.3834" lon="-1.65423">
        <ele>5</ele>
        <time>2026-06-28T18:05:55.000Z</time>
      </trkpt>
      <trkpt lat="43.38386" lon="-1.65326">
        <ele>7</ele>
        <time>2026-06-28T18:06:10.000Z</time>
      </trkpt>
      <trkpt lat="43.3839" lon="-1.65303">
        <ele>9</ele>
        <time>2026-06-28T18:06:13.000Z</time>
      </trkpt>
      <trkpt lat="43.38389" lon="-1.65291">
        <ele>11</ele>
        <time>2026-06-28T18:06:15.000Z</time>
      </trkpt>
      <trkpt lat="43.38385" lon="-1.65281">
        <ele>11</ele>
        <time>2026-06-28T18:06:17.000Z</time>
      </trkpt>
      <trkpt lat="43.3838" lon="-1.65272">
        <ele>12</ele>
        <time>2026-06-28T18:06:18.000Z</time>
      </trkpt>
      <trkpt lat="43.38355" lon="-1.65242">
        <ele>12</ele>
        <time>2026-06-28T18:06:24.000Z</time>
      </trkpt>
      <trkpt lat="43.38337" lon="-1.65211">
        <ele>11</ele>
        <time>2026-06-28T18:06:29.000Z</time>
      </trkpt>
      <trkpt lat="43.38327" lon="-1.6519">
        <ele>11</ele>
        <time>2026-06-28T18:06:32.000Z</time>
      </trkpt>
      <trkpt lat="43.38323" lon="-1.65158">
        <ele>11</ele>
        <time>2026-06-28T18:06:36.000Z</time>
      </trkpt>
      <trkpt lat="43.38298" lon="-1.65095">
        <ele>10</ele>
        <time>2026-06-28T18:06:46.000Z</time>
      </trkpt>
      <trkpt lat="43.38281" lon="-1.65046">
        <ele>9</ele>
        <time>2026-06-28T18:06:53.000Z</time>
      </trkpt>
      <trkpt lat="43.38275" lon="-1.65039">
        <ele>9</ele>
        <time>2026-06-28T18:06:54.000Z</time>
      </trkpt>
      <trkpt lat="43.38267" lon="-1.65038">
        <ele>8</ele>
        <time>2026-06-28T18:06:56.000Z</time>
      </trkpt>
      <trkpt lat="43.38262" lon="-1.65031">
        <ele>8</ele>
        <time>2026-06-28T18:06:57.000Z</time>
      </trkpt>
      <trkpt lat="43.38259" lon="-1.65023">
        <ele>7</ele>
        <time>2026-06-28T18:06:58.000Z</time>
      </trkpt>
      <trkpt lat="43.38263" lon="-1.65003">
        <ele>8</ele>
        <time>2026-06-28T18:07:01.000Z</time>
      </trkpt>
      <trkpt lat="43.3825" lon="-1.64955">
        <ele>8</ele>
        <time>2026-06-28T18:07:07.000Z</time>
      </trkpt>
      <trkpt lat="43.38248" lon="-1.64936">
        <ele>8</ele>
        <time>2026-06-28T18:07:10.000Z</time>
      </trkpt>
      <trkpt lat="43.38248" lon="-1.64902">
        <ele>8</ele>
        <time>2026-06-28T18:07:14.000Z</time>
      </trkpt>
      <trkpt lat="43.38271" lon="-1.64658">
        <ele>6</ele>
        <time>2026-06-28T18:07:46.000Z</time>
      </trkpt>
      <trkpt lat="43.38273" lon="-1.64623">
        <ele>7</ele>
        <time>2026-06-28T18:07:51.000Z</time>
      </trkpt>
      <trkpt lat="43.38275" lon="-1.6456">
        <ele>8</ele>
        <time>2026-06-28T18:07:59.000Z</time>
      </trkpt>
      <trkpt lat="43.38273" lon="-1.64484">
        <ele>9</ele>
        <time>2026-06-28T18:08:09.000Z</time>
      </trkpt>
      <trkpt lat="43.38266" lon="-1.64403">
        <ele>7</ele>
        <time>2026-06-28T18:08:19.000Z</time>
      </trkpt>
      <trkpt lat="43.38264" lon="-1.64391">
        <ele>7</ele>
        <time>2026-06-28T18:08:21.000Z</time>
      </trkpt>
      <trkpt lat="43.38247" lon="-1.64346">
        <ele>5</ele>
        <time>2026-06-28T18:08:27.000Z</time>
      </trkpt>
      <trkpt lat="43.38235" lon="-1.64322">
        <ele>5</ele>
        <time>2026-06-28T18:08:31.000Z</time>
      </trkpt>
      <trkpt lat="43.38225" lon="-1.64306">
        <ele>5</ele>
        <time>2026-06-28T18:08:34.000Z</time>
      </trkpt>
      <trkpt lat="43.38192" lon="-1.6427">
        <ele>5</ele>
        <time>2026-06-28T18:08:41.000Z</time>
      </trkpt>
      <trkpt lat="43.38153" lon="-1.64235">
        <ele>6</ele>
        <time>2026-06-28T18:08:50.000Z</time>
      </trkpt>
      <trkpt lat="43.38123" lon="-1.64205">
        <ele>6</ele>
        <time>2026-06-28T18:08:56.000Z</time>
      </trkpt>
      <trkpt lat="43.38111" lon="-1.64183">
        <ele>6</ele>
        <time>2026-06-28T18:09:00.000Z</time>
      </trkpt>
      <trkpt lat="43.38066" lon="-1.64081">
        <ele>8</ele>
        <time>2026-06-28T18:09:15.000Z</time>
      </trkpt>
      <trkpt lat="43.38055" lon="-1.64065">
        <ele>9</ele>
        <time>2026-06-28T18:09:18.000Z</time>
      </trkpt>
      <trkpt lat="43.38043" lon="-1.6405">
        <ele>9</ele>
        <time>2026-06-28T18:09:21.000Z</time>
      </trkpt>
      <trkpt lat="43.37932" lon="-1.63948">
        <ele>7</ele>
        <time>2026-06-28T18:09:45.000Z</time>
      </trkpt>
      <trkpt lat="43.3779" lon="-1.63806">
        <ele>8</ele>
        <time>2026-06-28T18:10:16.000Z</time>
      </trkpt>
      <trkpt lat="43.37768" lon="-1.6379">
        <ele>8</ele>
        <time>2026-06-28T18:10:20.000Z</time>
      </trkpt>
      <trkpt lat="43.37759" lon="-1.63786">
        <ele>8</ele>
        <time>2026-06-28T18:10:22.000Z</time>
      </trkpt>
      <trkpt lat="43.37734" lon="-1.63783">
        <ele>8</ele>
        <time>2026-06-28T18:10:26.000Z</time>
      </trkpt>
      <trkpt lat="43.37648" lon="-1.63788">
        <ele>6</ele>
        <time>2026-06-28T18:10:42.000Z</time>
      </trkpt>
      <trkpt lat="43.37634" lon="-1.63791">
        <ele>6</ele>
        <time>2026-06-28T18:10:44.000Z</time>
      </trkpt>
      <trkpt lat="43.37618" lon="-1.63804">
        <ele>5</ele>
        <time>2026-06-28T18:10:48.000Z</time>
      </trkpt>
      <trkpt lat="43.37608" lon="-1.63806">
        <ele>5</ele>
        <time>2026-06-28T18:10:49.000Z</time>
      </trkpt>
      <trkpt lat="43.37557" lon="-1.63809">
        <ele>5</ele>
        <time>2026-06-28T18:10:58.000Z</time>
      </trkpt>
      <trkpt lat="43.37537" lon="-1.63823">
        <ele>4</ele>
        <time>2026-06-28T18:11:02.000Z</time>
      </trkpt>
      <trkpt lat="43.37531" lon="-1.63825">
        <ele>4</ele>
        <time>2026-06-28T18:11:04.000Z</time>
      </trkpt>
      <trkpt lat="43.3752" lon="-1.63823">
        <ele>4</ele>
        <time>2026-06-28T18:11:06.000Z</time>
      </trkpt>
      <trkpt lat="43.37515" lon="-1.6382">
        <ele>4</ele>
        <time>2026-06-28T18:11:06.000Z</time>
      </trkpt>
      <trkpt lat="43.37509" lon="-1.63809">
        <ele>4</ele>
        <time>2026-06-28T18:11:08.000Z</time>
      </trkpt>
      <trkpt lat="43.37501" lon="-1.63807">
        <ele>4</ele>
        <time>2026-06-28T18:11:10.000Z</time>
      </trkpt>
      <trkpt lat="43.37449" lon="-1.63806">
        <ele>4</ele>
        <time>2026-06-28T18:11:19.000Z</time>
      </trkpt>
      <trkpt lat="43.37397" lon="-1.638">
        <ele>3</ele>
        <time>2026-06-28T18:11:28.000Z</time>
      </trkpt>
      <trkpt lat="43.37126" lon="-1.63814">
        <ele>5</ele>
        <time>2026-06-28T18:12:16.000Z</time>
      </trkpt>
      <trkpt lat="43.37072" lon="-1.63813">
        <ele>5</ele>
        <time>2026-06-28T18:12:26.000Z</time>
      </trkpt>
      <trkpt lat="43.37059" lon="-1.63807">
        <ele>5</ele>
        <time>2026-06-28T18:12:29.000Z</time>
      </trkpt>
      <trkpt lat="43.37035" lon="-1.63786">
        <ele>5</ele>
        <time>2026-06-28T18:12:34.000Z</time>
      </trkpt>
      <trkpt lat="43.37013" lon="-1.63771">
        <ele>5</ele>
        <time>2026-06-28T18:12:38.000Z</time>
      </trkpt>
      <trkpt lat="43.36766" lon="-1.6361">
        <ele>6</ele>
        <time>2026-06-28T18:13:27.000Z</time>
      </trkpt>
      <trkpt lat="43.36743" lon="-1.63598">
        <ele>7</ele>
        <time>2026-06-28T18:13:31.000Z</time>
      </trkpt>
      <trkpt lat="43.36708" lon="-1.63587">
        <ele>7</ele>
        <time>2026-06-28T18:13:37.000Z</time>
      </trkpt>
      <trkpt lat="43.36693" lon="-1.63585">
        <ele>8</ele>
        <time>2026-06-28T18:13:40.000Z</time>
      </trkpt>
      <trkpt lat="43.36656" lon="-1.63583">
        <ele>8</ele>
        <time>2026-06-28T18:13:47.000Z</time>
      </trkpt>
      <trkpt lat="43.36621" lon="-1.63588">
        <ele>6</ele>
        <time>2026-06-28T18:13:53.000Z</time>
      </trkpt>
      <trkpt lat="43.36462" lon="-1.63639">
        <ele>5</ele>
        <time>2026-06-28T18:14:22.000Z</time>
      </trkpt>
      <trkpt lat="43.36412" lon="-1.63657">
        <ele>7</ele>
        <time>2026-06-28T18:14:31.000Z</time>
      </trkpt>
      <trkpt lat="43.36398" lon="-1.63665">
        <ele>7</ele>
        <time>2026-06-28T18:14:34.000Z</time>
      </trkpt>
      <trkpt lat="43.36381" lon="-1.63667">
        <ele>7</ele>
        <time>2026-06-28T18:14:37.000Z</time>
      </trkpt>
      <trkpt lat="43.36324" lon="-1.6368">
        <ele>7</ele>
        <time>2026-06-28T18:14:47.000Z</time>
      </trkpt>
      <trkpt lat="43.36283" lon="-1.63679">
        <ele>6</ele>
        <time>2026-06-28T18:14:54.000Z</time>
      </trkpt>
      <trkpt lat="43.36225" lon="-1.63663">
        <ele>6</ele>
        <time>2026-06-28T18:15:05.000Z</time>
      </trkpt>
      <trkpt lat="43.36204" lon="-1.63654">
        <ele>6</ele>
        <time>2026-06-28T18:15:09.000Z</time>
      </trkpt>
      <trkpt lat="43.36181" lon="-1.63641">
        <ele>6</ele>
        <time>2026-06-28T18:15:13.000Z</time>
      </trkpt>
      <trkpt lat="43.36118" lon="-1.63618">
        <ele>5</ele>
        <time>2026-06-28T18:15:25.000Z</time>
      </trkpt>
      <trkpt lat="43.36101" lon="-1.63609">
        <ele>5</ele>
        <time>2026-06-28T18:15:28.000Z</time>
      </trkpt>
      <trkpt lat="43.36074" lon="-1.63592">
        <ele>5</ele>
        <time>2026-06-28T18:15:33.000Z</time>
      </trkpt>
      <trkpt lat="43.36065" lon="-1.63585">
        <ele>5</ele>
        <time>2026-06-28T18:15:35.000Z</time>
      </trkpt>
      <trkpt lat="43.3604" lon="-1.63554">
        <ele>5</ele>
        <time>2026-06-28T18:15:41.000Z</time>
      </trkpt>
      <trkpt lat="43.36019" lon="-1.63516">
        <ele>6</ele>
        <time>2026-06-28T18:15:47.000Z</time>
      </trkpt>
      <trkpt lat="43.35986" lon="-1.63441">
        <ele>8</ele>
        <time>2026-06-28T18:15:59.000Z</time>
      </trkpt>
      <trkpt lat="43.35922" lon="-1.63348">
        <ele>8</ele>
        <time>2026-06-28T18:16:15.000Z</time>
      </trkpt>
      <trkpt lat="43.35902" lon="-1.63327">
        <ele>8</ele>
        <time>2026-06-28T18:16:20.000Z</time>
      </trkpt>
      <trkpt lat="43.35835" lon="-1.63265">
        <ele>7</ele>
        <time>2026-06-28T18:16:34.000Z</time>
      </trkpt>
      <trkpt lat="43.35803" lon="-1.63234">
        <ele>8</ele>
        <time>2026-06-28T18:16:41.000Z</time>
      </trkpt>
      <trkpt lat="43.35779" lon="-1.63215">
        <ele>8</ele>
        <time>2026-06-28T18:16:46.000Z</time>
      </trkpt>
      <trkpt lat="43.35765" lon="-1.63205">
        <ele>8</ele>
        <time>2026-06-28T18:16:49.000Z</time>
      </trkpt>
      <trkpt lat="43.35744" lon="-1.63194">
        <ele>7</ele>
        <time>2026-06-28T18:16:53.000Z</time>
      </trkpt>
      <trkpt lat="43.35699" lon="-1.63175">
        <ele>6</ele>
        <time>2026-06-28T18:17:01.000Z</time>
      </trkpt>
      <trkpt lat="43.35676" lon="-1.63168">
        <ele>6</ele>
        <time>2026-06-28T18:17:05.000Z</time>
      </trkpt>
      <trkpt lat="43.35663" lon="-1.63169">
        <ele>6</ele>
        <time>2026-06-28T18:17:08.000Z</time>
      </trkpt>
      <trkpt lat="43.35655" lon="-1.63167">
        <ele>6</ele>
        <time>2026-06-28T18:17:09.000Z</time>
      </trkpt>
      <trkpt lat="43.35642" lon="-1.63159">
        <ele>6</ele>
        <time>2026-06-28T18:17:12.000Z</time>
      </trkpt>
      <trkpt lat="43.35613" lon="-1.63154">
        <ele>5</ele>
        <time>2026-06-28T18:17:17.000Z</time>
      </trkpt>
      <trkpt lat="43.35586" lon="-1.63147">
        <ele>5</ele>
        <time>2026-06-28T18:17:22.000Z</time>
      </trkpt>
      <trkpt lat="43.35465" lon="-1.63109">
        <ele>6</ele>
        <time>2026-06-28T18:17:44.000Z</time>
      </trkpt>
      <trkpt lat="43.35412" lon="-1.63091">
        <ele>7</ele>
        <time>2026-06-28T18:17:54.000Z</time>
      </trkpt>
      <trkpt lat="43.35388" lon="-1.63077">
        <ele>7</ele>
        <time>2026-06-28T18:17:58.000Z</time>
      </trkpt>
      <trkpt lat="43.3536" lon="-1.63059">
        <ele>7</ele>
        <time>2026-06-28T18:18:04.000Z</time>
      </trkpt>
      <trkpt lat="43.3534" lon="-1.6304">
        <ele>7</ele>
        <time>2026-06-28T18:18:08.000Z</time>
      </trkpt>
      <trkpt lat="43.35316" lon="-1.63015">
        <ele>6</ele>
        <time>2026-06-28T18:18:13.000Z</time>
      </trkpt>
      <trkpt lat="43.35291" lon="-1.62981">
        <ele>6</ele>
        <time>2026-06-28T18:18:20.000Z</time>
      </trkpt>
      <trkpt lat="43.3526" lon="-1.62919">
        <ele>6</ele>
        <time>2026-06-28T18:18:29.000Z</time>
      </trkpt>
      <trkpt lat="43.35249" lon="-1.62888">
        <ele>6</ele>
        <time>2026-06-28T18:18:34.000Z</time>
      </trkpt>
      <trkpt lat="43.35204" lon="-1.62754">
        <ele>8</ele>
        <time>2026-06-28T18:18:53.000Z</time>
      </trkpt>
      <trkpt lat="43.35183" lon="-1.62704">
        <ele>8</ele>
        <time>2026-06-28T18:19:00.000Z</time>
      </trkpt>
      <trkpt lat="43.35174" lon="-1.62674">
        <ele>8</ele>
        <time>2026-06-28T18:19:05.000Z</time>
      </trkpt>
      <trkpt lat="43.3511" lon="-1.62509">
        <ele>11</ele>
        <time>2026-06-28T18:19:29.000Z</time>
      </trkpt>
      <trkpt lat="43.35103" lon="-1.62469">
        <ele>10</ele>
        <time>2026-06-28T18:19:34.000Z</time>
      </trkpt>
      <trkpt lat="43.35102" lon="-1.62433">
        <ele>11</ele>
        <time>2026-06-28T18:19:39.000Z</time>
      </trkpt>
      <trkpt lat="43.35105" lon="-1.62356">
        <ele>10</ele>
        <time>2026-06-28T18:19:49.000Z</time>
      </trkpt>
      <trkpt lat="43.3511" lon="-1.62325">
        <ele>10</ele>
        <time>2026-06-28T18:19:53.000Z</time>
      </trkpt>
      <trkpt lat="43.35121" lon="-1.62297">
        <ele>11</ele>
        <time>2026-06-28T18:19:57.000Z</time>
      </trkpt>
      <trkpt lat="43.35145" lon="-1.62249">
        <ele>10</ele>
        <time>2026-06-28T18:20:05.000Z</time>
      </trkpt>
      <trkpt lat="43.35178" lon="-1.62186">
        <ele>10</ele>
        <time>2026-06-28T18:20:15.000Z</time>
      </trkpt>
      <trkpt lat="43.35193" lon="-1.62162">
        <ele>11</ele>
        <time>2026-06-28T18:20:19.000Z</time>
      </trkpt>
      <trkpt lat="43.35217" lon="-1.62136">
        <ele>12</ele>
        <time>2026-06-28T18:20:24.000Z</time>
      </trkpt>
      <trkpt lat="43.35238" lon="-1.62122">
        <ele>13</ele>
        <time>2026-06-28T18:20:28.000Z</time>
      </trkpt>
      <trkpt lat="43.35279" lon="-1.62105">
        <ele>15</ele>
        <time>2026-06-28T18:20:36.000Z</time>
      </trkpt>
      <trkpt lat="43.35369" lon="-1.6207">
        <ele>20</ele>
        <time>2026-06-28T18:20:53.000Z</time>
      </trkpt>
      <trkpt lat="43.35417" lon="-1.62048">
        <ele>20</ele>
        <time>2026-06-28T18:21:02.000Z</time>
      </trkpt>
      <trkpt lat="43.35434" lon="-1.62038">
        <ele>19</ele>
        <time>2026-06-28T18:21:05.000Z</time>
      </trkpt>
      <trkpt lat="43.3545" lon="-1.62025">
        <ele>19</ele>
        <time>2026-06-28T18:21:08.000Z</time>
      </trkpt>
      <trkpt lat="43.35478" lon="-1.62001">
        <ele>17</ele>
        <time>2026-06-28T18:21:14.000Z</time>
      </trkpt>
      <trkpt lat="43.35493" lon="-1.61986">
        <ele>17</ele>
        <time>2026-06-28T18:21:17.000Z</time>
      </trkpt>
      <trkpt lat="43.3552" lon="-1.6195">
        <ele>17</ele>
        <time>2026-06-28T18:21:24.000Z</time>
      </trkpt>
      <trkpt lat="43.35714" lon="-1.61642">
        <ele>16</ele>
        <time>2026-06-28T18:22:17.000Z</time>
      </trkpt>
      <trkpt lat="43.35793" lon="-1.61522">
        <ele>13</ele>
        <time>2026-06-28T18:22:38.000Z</time>
      </trkpt>
      <trkpt lat="43.35803" lon="-1.6151">
        <ele>13</ele>
        <time>2026-06-28T18:22:40.000Z</time>
      </trkpt>
      <trkpt lat="43.35825" lon="-1.61487">
        <ele>12</ele>
        <time>2026-06-28T18:22:45.000Z</time>
      </trkpt>
      <trkpt lat="43.35909" lon="-1.61418">
        <ele>15</ele>
        <time>2026-06-28T18:23:02.000Z</time>
      </trkpt>
      <trkpt lat="43.35928" lon="-1.61397">
        <ele>15</ele>
        <time>2026-06-28T18:23:07.000Z</time>
      </trkpt>
      <trkpt lat="43.3603" lon="-1.61266">
        <ele>11</ele>
        <time>2026-06-28T18:23:32.000Z</time>
      </trkpt>
      <trkpt lat="43.36044" lon="-1.61246">
        <ele>11</ele>
        <time>2026-06-28T18:23:35.000Z</time>
      </trkpt>
      <trkpt lat="43.3606" lon="-1.61217">
        <ele>11</ele>
        <time>2026-06-28T18:23:40.000Z</time>
      </trkpt>
      <trkpt lat="43.36075" lon="-1.61181">
        <ele>12</ele>
        <time>2026-06-28T18:23:45.000Z</time>
      </trkpt>
      <trkpt lat="43.36087" lon="-1.61144">
        <ele>13</ele>
        <time>2026-06-28T18:23:50.000Z</time>
      </trkpt>
      <trkpt lat="43.36093" lon="-1.61114">
        <ele>14</ele>
        <time>2026-06-28T18:23:54.000Z</time>
      </trkpt>
      <trkpt lat="43.36099" lon="-1.61069">
        <ele>15</ele>
        <time>2026-06-28T18:24:00.000Z</time>
      </trkpt>
      <trkpt lat="43.36118" lon="-1.6074">
        <ele>18</ele>
        <time>2026-06-28T18:24:43.000Z</time>
      </trkpt>
      <trkpt lat="43.36115" lon="-1.60694">
        <ele>18</ele>
        <time>2026-06-28T18:24:49.000Z</time>
      </trkpt>
      <trkpt lat="43.36101" lon="-1.60576">
        <ele>18</ele>
        <time>2026-06-28T18:25:05.000Z</time>
      </trkpt>
      <trkpt lat="43.361" lon="-1.60523">
        <ele>17</ele>
        <time>2026-06-28T18:25:11.000Z</time>
      </trkpt>
      <trkpt lat="43.36101" lon="-1.60505">
        <ele>17</ele>
        <time>2026-06-28T18:25:14.000Z</time>
      </trkpt>
      <trkpt lat="43.36106" lon="-1.60469">
        <ele>16</ele>
        <time>2026-06-28T18:25:18.000Z</time>
      </trkpt>
      <trkpt lat="43.36118" lon="-1.60424">
        <ele>15</ele>
        <time>2026-06-28T18:25:25.000Z</time>
      </trkpt>
      <trkpt lat="43.36128" lon="-1.60399">
        <ele>15</ele>
        <time>2026-06-28T18:25:28.000Z</time>
      </trkpt>
      <trkpt lat="43.3614" lon="-1.60376">
        <ele>14</ele>
        <time>2026-06-28T18:25:32.000Z</time>
      </trkpt>
      <trkpt lat="43.36154" lon="-1.60355">
        <ele>14</ele>
        <time>2026-06-28T18:25:36.000Z</time>
      </trkpt>
      <trkpt lat="43.3617" lon="-1.60336">
        <ele>13</ele>
        <time>2026-06-28T18:25:39.000Z</time>
      </trkpt>
      <trkpt lat="43.36198" lon="-1.60307">
        <ele>14</ele>
        <time>2026-06-28T18:25:46.000Z</time>
      </trkpt>
      <trkpt lat="43.36278" lon="-1.60238">
        <ele>19</ele>
        <time>2026-06-28T18:26:03.000Z</time>
      </trkpt>
      <trkpt lat="43.36295" lon="-1.60222">
        <ele>20</ele>
        <time>2026-06-28T18:26:06.000Z</time>
      </trkpt>
      <trkpt lat="43.36305" lon="-1.60209">
        <ele>20</ele>
        <time>2026-06-28T18:26:09.000Z</time>
      </trkpt>
      <trkpt lat="43.36323" lon="-1.60182">
        <ele>18</ele>
        <time>2026-06-28T18:26:13.000Z</time>
      </trkpt>
      <trkpt lat="43.36335" lon="-1.6016">
        <ele>16</ele>
        <time>2026-06-28T18:26:17.000Z</time>
      </trkpt>
      <trkpt lat="43.36361" lon="-1.60087">
        <ele>15</ele>
        <time>2026-06-28T18:26:27.000Z</time>
      </trkpt>
      <trkpt lat="43.36376" lon="-1.60056">
        <ele>15</ele>
        <time>2026-06-28T18:26:32.000Z</time>
      </trkpt>
      <trkpt lat="43.36398" lon="-1.60019">
        <ele>14</ele>
        <time>2026-06-28T18:26:38.000Z</time>
      </trkpt>
      <trkpt lat="43.36417" lon="-1.59991">
        <ele>13</ele>
        <time>2026-06-28T18:26:43.000Z</time>
      </trkpt>
      <trkpt lat="43.36433" lon="-1.59972">
        <ele>13</ele>
        <time>2026-06-28T18:26:47.000Z</time>
      </trkpt>
      <trkpt lat="43.36457" lon="-1.59949">
        <ele>14</ele>
        <time>2026-06-28T18:26:52.000Z</time>
      </trkpt>
      <trkpt lat="43.36514" lon="-1.59906">
        <ele>13</ele>
        <time>2026-06-28T18:27:04.000Z</time>
      </trkpt>
      <trkpt lat="43.36527" lon="-1.59895">
        <ele>15</ele>
        <time>2026-06-28T18:27:07.000Z</time>
      </trkpt>
      <trkpt lat="43.36538" lon="-1.59882">
        <ele>16</ele>
        <time>2026-06-28T18:27:09.000Z</time>
      </trkpt>
      <trkpt lat="43.36548" lon="-1.59866">
        <ele>17</ele>
        <time>2026-06-28T18:27:12.000Z</time>
      </trkpt>
      <trkpt lat="43.36558" lon="-1.5984">
        <ele>18</ele>
        <time>2026-06-28T18:27:16.000Z</time>
      </trkpt>
      <trkpt lat="43.36565" lon="-1.59802">
        <ele>18</ele>
        <time>2026-06-28T18:27:21.000Z</time>
      </trkpt>
      <trkpt lat="43.36586" lon="-1.59535">
        <ele>10</ele>
        <time>2026-06-28T18:27:56.000Z</time>
      </trkpt>
      <trkpt lat="43.36589" lon="-1.59488">
        <ele>9</ele>
        <time>2026-06-28T18:28:02.000Z</time>
      </trkpt>
      <trkpt lat="43.36588" lon="-1.5945">
        <ele>9</ele>
        <time>2026-06-28T18:28:07.000Z</time>
      </trkpt>
      <trkpt lat="43.36583" lon="-1.59404">
        <ele>9</ele>
        <time>2026-06-28T18:28:13.000Z</time>
      </trkpt>
      <trkpt lat="43.36576" lon="-1.59369">
        <ele>9</ele>
        <time>2026-06-28T18:28:17.000Z</time>
      </trkpt>
      <trkpt lat="43.36551" lon="-1.59276">
        <ele>9</ele>
        <time>2026-06-28T18:28:30.000Z</time>
      </trkpt>
      <trkpt lat="43.36488" lon="-1.59072">
        <ele>9</ele>
        <time>2026-06-28T18:28:59.000Z</time>
      </trkpt>
      <trkpt lat="43.36482" lon="-1.59057">
        <ele>9</ele>
        <time>2026-06-28T18:29:01.000Z</time>
      </trkpt>
      <trkpt lat="43.36478" lon="-1.59052">
        <ele>9</ele>
        <time>2026-06-28T18:29:02.000Z</time>
      </trkpt>
      <trkpt lat="43.36474" lon="-1.59029">
        <ele>9</ele>
        <time>2026-06-28T18:29:05.000Z</time>
      </trkpt>
      <trkpt lat="43.36457" lon="-1.58976">
        <ele>11</ele>
        <time>2026-06-28T18:29:13.000Z</time>
      </trkpt>
      <trkpt lat="43.3644" lon="-1.5894">
        <ele>12</ele>
        <time>2026-06-28T18:29:18.000Z</time>
      </trkpt>
      <trkpt lat="43.36418" lon="-1.58909">
        <ele>14</ele>
        <time>2026-06-28T18:29:24.000Z</time>
      </trkpt>
      <trkpt lat="43.36388" lon="-1.58876">
        <ele>17</ele>
        <time>2026-06-28T18:29:31.000Z</time>
      </trkpt>
      <trkpt lat="43.36368" lon="-1.58859">
        <ele>18</ele>
        <time>2026-06-28T18:29:35.000Z</time>
      </trkpt>
      <trkpt lat="43.36304" lon="-1.588">
        <ele>19</ele>
        <time>2026-06-28T18:29:48.000Z</time>
      </trkpt>
      <trkpt lat="43.36289" lon="-1.58782">
        <ele>18</ele>
        <time>2026-06-28T18:29:52.000Z</time>
      </trkpt>
      <trkpt lat="43.36273" lon="-1.58755">
        <ele>18</ele>
        <time>2026-06-28T18:29:56.000Z</time>
      </trkpt>
      <trkpt lat="43.36258" lon="-1.58726">
        <ele>14</ele>
        <time>2026-06-28T18:30:01.000Z</time>
      </trkpt>
      <trkpt lat="43.36245" lon="-1.58694">
        <ele>12</ele>
        <time>2026-06-28T18:30:06.000Z</time>
      </trkpt>
      <trkpt lat="43.3616" lon="-1.58423">
        <ele>12</ele>
        <time>2026-06-28T18:30:44.000Z</time>
      </trkpt>
      <trkpt lat="43.36148" lon="-1.58389">
        <ele>12</ele>
        <time>2026-06-28T18:30:49.000Z</time>
      </trkpt>
      <trkpt lat="43.36127" lon="-1.58341">
        <ele>11</ele>
        <time>2026-06-28T18:30:56.000Z</time>
      </trkpt>
      <trkpt lat="43.36108" lon="-1.58305">
        <ele>12</ele>
        <time>2026-06-28T18:31:02.000Z</time>
      </trkpt>
      <trkpt lat="43.36081" lon="-1.58264">
        <ele>12</ele>
        <time>2026-06-28T18:31:09.000Z</time>
      </trkpt>
      <trkpt lat="43.36017" lon="-1.5817">
        <ele>12</ele>
        <time>2026-06-28T18:31:26.000Z</time>
      </trkpt>
      <trkpt lat="43.35968" lon="-1.58103">
        <ele>11</ele>
        <time>2026-06-28T18:31:38.000Z</time>
      </trkpt>
      <trkpt lat="43.35885" lon="-1.5798">
        <ele>11</ele>
        <time>2026-06-28T18:32:00.000Z</time>
      </trkpt>
      <trkpt lat="43.35855" lon="-1.57922">
        <ele>12</ele>
        <time>2026-06-28T18:32:09.000Z</time>
      </trkpt>
      <trkpt lat="43.35844" lon="-1.57894">
        <ele>12</ele>
        <time>2026-06-28T18:32:13.000Z</time>
      </trkpt>
      <trkpt lat="43.35838" lon="-1.57872">
        <ele>12</ele>
        <time>2026-06-28T18:32:16.000Z</time>
      </trkpt>
      <trkpt lat="43.35808" lon="-1.57734">
        <ele>12</ele>
        <time>2026-06-28T18:32:35.000Z</time>
      </trkpt>
      <trkpt lat="43.3578" lon="-1.57577">
        <ele>13</ele>
        <time>2026-06-28T18:32:56.000Z</time>
      </trkpt>
      <trkpt lat="43.35776" lon="-1.57499">
        <ele>13</ele>
        <time>2026-06-28T18:33:06.000Z</time>
      </trkpt>
      <trkpt lat="43.3577" lon="-1.57468">
        <ele>13</ele>
        <time>2026-06-28T18:33:10.000Z</time>
      </trkpt>
      <trkpt lat="43.35768" lon="-1.57445">
        <ele>13</ele>
        <time>2026-06-28T18:33:13.000Z</time>
      </trkpt>
      <trkpt lat="43.35761" lon="-1.57405">
        <ele>13</ele>
        <time>2026-06-28T18:33:18.000Z</time>
      </trkpt>
      <trkpt lat="43.35743" lon="-1.57213">
        <ele>14</ele>
        <time>2026-06-28T18:33:43.000Z</time>
      </trkpt>
      <trkpt lat="43.35736" lon="-1.57172">
        <ele>15</ele>
        <time>2026-06-28T18:33:49.000Z</time>
      </trkpt>
      <trkpt lat="43.35728" lon="-1.57142">
        <ele>15</ele>
        <time>2026-06-28T18:33:53.000Z</time>
      </trkpt>
      <trkpt lat="43.35708" lon="-1.57098">
        <ele>15</ele>
        <time>2026-06-28T18:34:00.000Z</time>
      </trkpt>
      <trkpt lat="43.35677" lon="-1.57035">
        <ele>15</ele>
        <time>2026-06-28T18:34:09.000Z</time>
      </trkpt>
      <trkpt lat="43.35632" lon="-1.56938">
        <ele>17</ele>
        <time>2026-06-28T18:34:24.000Z</time>
      </trkpt>
      <trkpt lat="43.35598" lon="-1.56879">
        <ele>17</ele>
        <time>2026-06-28T18:34:34.000Z</time>
      </trkpt>
      <trkpt lat="43.3559" lon="-1.5686">
        <ele>17</ele>
        <time>2026-06-28T18:34:37.000Z</time>
      </trkpt>
      <trkpt lat="43.35585" lon="-1.56834">
        <ele>17</ele>
        <time>2026-06-28T18:34:40.000Z</time>
      </trkpt>
      <trkpt lat="43.35585" lon="-1.5682">
        <ele>17</ele>
        <time>2026-06-28T18:34:42.000Z</time>
      </trkpt>
      <trkpt lat="43.35587" lon="-1.56799">
        <ele>17</ele>
        <time>2026-06-28T18:34:45.000Z</time>
      </trkpt>
      <trkpt lat="43.35616" lon="-1.5669">
        <ele>19</ele>
        <time>2026-06-28T18:35:00.000Z</time>
      </trkpt>
      <trkpt lat="43.35623" lon="-1.5664">
        <ele>19</ele>
        <time>2026-06-28T18:35:06.000Z</time>
      </trkpt>
      <trkpt lat="43.35619" lon="-1.56601">
        <ele>19</ele>
        <time>2026-06-28T18:35:12.000Z</time>
      </trkpt>
      <trkpt lat="43.35622" lon="-1.56565">
        <ele>19</ele>
        <time>2026-06-28T18:35:16.000Z</time>
      </trkpt>
      <trkpt lat="43.35621" lon="-1.56471">
        <ele>19</ele>
        <time>2026-06-28T18:35:28.000Z</time>
      </trkpt>
      <trkpt lat="43.35615" lon="-1.56218">
        <ele>19</ele>
        <time>2026-06-28T18:36:01.000Z</time>
      </trkpt>
      <trkpt lat="43.3562" lon="-1.56142">
        <ele>19</ele>
        <time>2026-06-28T18:36:11.000Z</time>
      </trkpt>
      <trkpt lat="43.35623" lon="-1.56127">
        <ele>18</ele>
        <time>2026-06-28T18:36:13.000Z</time>
      </trkpt>
      <trkpt lat="43.35628" lon="-1.56113">
        <ele>18</ele>
        <time>2026-06-28T18:36:15.000Z</time>
      </trkpt>
      <trkpt lat="43.35643" lon="-1.56089">
        <ele>18</ele>
        <time>2026-06-28T18:36:19.000Z</time>
      </trkpt>
      <trkpt lat="43.35657" lon="-1.56077">
        <ele>17</ele>
        <time>2026-06-28T18:36:22.000Z</time>
      </trkpt>
      <trkpt lat="43.35721" lon="-1.56036">
        <ele>19</ele>
        <time>2026-06-28T18:36:35.000Z</time>
      </trkpt>
      <trkpt lat="43.35732" lon="-1.56022">
        <ele>18</ele>
        <time>2026-06-28T18:36:37.000Z</time>
      </trkpt>
      <trkpt lat="43.35737" lon="-1.5601">
        <ele>18</ele>
        <time>2026-06-28T18:36:39.000Z</time>
      </trkpt>
      <trkpt lat="43.35737" lon="-1.56003">
        <ele>18</ele>
        <time>2026-06-28T18:36:40.000Z</time>
      </trkpt>
      <trkpt lat="43.35734" lon="-1.5599">
        <ele>17</ele>
        <time>2026-06-28T18:36:42.000Z</time>
      </trkpt>
      <trkpt lat="43.35727" lon="-1.5598">
        <ele>17</ele>
        <time>2026-06-28T18:36:44.000Z</time>
      </trkpt>
      <trkpt lat="43.35686" lon="-1.55944">
        <ele>15</ele>
        <time>2026-06-28T18:36:52.000Z</time>
      </trkpt>
      <trkpt lat="43.35641" lon="-1.55909">
        <ele>15</ele>
        <time>2026-06-28T18:37:01.000Z</time>
      </trkpt>
      <trkpt lat="43.35633" lon="-1.559">
        <ele>15</ele>
        <time>2026-06-28T18:37:03.000Z</time>
      </trkpt>
      <trkpt lat="43.35612" lon="-1.55869">
        <ele>15</ele>
        <time>2026-06-28T18:37:09.000Z</time>
      </trkpt>
      <trkpt lat="43.35605" lon="-1.55854">
        <ele>15</ele>
        <time>2026-06-28T18:37:11.000Z</time>
      </trkpt>
      <trkpt lat="43.35598" lon="-1.55837">
        <ele>15</ele>
        <time>2026-06-28T18:37:14.000Z</time>
      </trkpt>
      <trkpt lat="43.35588" lon="-1.55797">
        <ele>15</ele>
        <time>2026-06-28T18:37:19.000Z</time>
      </trkpt>
      <trkpt lat="43.35584" lon="-1.55766">
        <ele>16</ele>
        <time>2026-06-28T18:37:23.000Z</time>
      </trkpt>
      <trkpt lat="43.35579" lon="-1.55497">
        <ele>13</ele>
        <time>2026-06-28T18:37:58.000Z</time>
      </trkpt>
      <trkpt lat="43.35574" lon="-1.55471">
        <ele>14</ele>
        <time>2026-06-28T18:38:01.000Z</time>
      </trkpt>
      <trkpt lat="43.35565" lon="-1.55448">
        <ele>15</ele>
        <time>2026-06-28T18:38:05.000Z</time>
      </trkpt>
      <trkpt lat="43.35561" lon="-1.55442">
        <ele>15</ele>
        <time>2026-06-28T18:38:06.000Z</time>
      </trkpt>
      <trkpt lat="43.35545" lon="-1.55427">
        <ele>15</ele>
        <time>2026-06-28T18:38:09.000Z</time>
      </trkpt>
      <trkpt lat="43.35524" lon="-1.55393">
        <ele>16</ele>
        <time>2026-06-28T18:38:15.000Z</time>
      </trkpt>
      <trkpt lat="43.35513" lon="-1.55383">
        <ele>16</ele>
        <time>2026-06-28T18:38:17.000Z</time>
      </trkpt>
      <trkpt lat="43.355" lon="-1.55377">
        <ele>16</ele>
        <time>2026-06-28T18:38:20.000Z</time>
      </trkpt>
      <trkpt lat="43.35486" lon="-1.55373">
        <ele>16</ele>
        <time>2026-06-28T18:38:22.000Z</time>
      </trkpt>
      <trkpt lat="43.35473" lon="-1.55373">
        <ele>16</ele>
        <time>2026-06-28T18:38:25.000Z</time>
      </trkpt>
      <trkpt lat="43.35398" lon="-1.55384">
        <ele>16</ele>
        <time>2026-06-28T18:38:38.000Z</time>
      </trkpt>
      <trkpt lat="43.35371" lon="-1.55387">
        <ele>16</ele>
        <time>2026-06-28T18:38:43.000Z</time>
      </trkpt>
      <trkpt lat="43.35358" lon="-1.55386">
        <ele>16</ele>
        <time>2026-06-28T18:38:45.000Z</time>
      </trkpt>
      <trkpt lat="43.35345" lon="-1.55383">
        <ele>16</ele>
        <time>2026-06-28T18:38:48.000Z</time>
      </trkpt>
      <trkpt lat="43.35326" lon="-1.55375">
        <ele>17</ele>
        <time>2026-06-28T18:38:51.000Z</time>
      </trkpt>
      <trkpt lat="43.35308" lon="-1.55363">
        <ele>17</ele>
        <time>2026-06-28T18:38:55.000Z</time>
      </trkpt>
      <trkpt lat="43.35291" lon="-1.55349">
        <ele>18</ele>
        <time>2026-06-28T18:38:58.000Z</time>
      </trkpt>
      <trkpt lat="43.35274" lon="-1.55327">
        <ele>18</ele>
        <time>2026-06-28T18:39:02.000Z</time>
      </trkpt>
      <trkpt lat="43.3525" lon="-1.55284">
        <ele>17</ele>
        <time>2026-06-28T18:39:09.000Z</time>
      </trkpt>
      <trkpt lat="43.35139" lon="-1.55027">
        <ele>17</ele>
        <time>2026-06-28T18:39:48.000Z</time>
      </trkpt>
      <trkpt lat="43.35125" lon="-1.55001">
        <ele>17</ele>
        <time>2026-06-28T18:39:52.000Z</time>
      </trkpt>
      <trkpt lat="43.35116" lon="-1.54994">
        <ele>18</ele>
        <time>2026-06-28T18:39:54.000Z</time>
      </trkpt>
      <trkpt lat="43.35106" lon="-1.54991">
        <ele>18</ele>
        <time>2026-06-28T18:39:56.000Z</time>
      </trkpt>
      <trkpt lat="43.35089" lon="-1.5499">
        <ele>18</ele>
        <time>2026-06-28T18:39:59.000Z</time>
      </trkpt>
      <trkpt lat="43.35077" lon="-1.54995">
        <ele>18</ele>
        <time>2026-06-28T18:40:01.000Z</time>
      </trkpt>
      <trkpt lat="43.34889" lon="-1.55151">
        <ele>21</ele>
        <time>2026-06-28T18:40:40.000Z</time>
      </trkpt>
      <trkpt lat="43.34876" lon="-1.55166">
        <ele>20</ele>
        <time>2026-06-28T18:40:43.000Z</time>
      </trkpt>
      <trkpt lat="43.3487" lon="-1.55178">
        <ele>20</ele>
        <time>2026-06-28T18:40:45.000Z</time>
      </trkpt>
      <trkpt lat="43.34859" lon="-1.55228">
        <ele>19</ele>
        <time>2026-06-28T18:40:52.000Z</time>
      </trkpt>
      <trkpt lat="43.34851" lon="-1.55239">
        <ele>18</ele>
        <time>2026-06-28T18:40:54.000Z</time>
      </trkpt>
      <trkpt lat="43.34845" lon="-1.55243">
        <ele>18</ele>
        <time>2026-06-28T18:40:55.000Z</time>
      </trkpt>
      <trkpt lat="43.34832" lon="-1.55247">
        <ele>18</ele>
        <time>2026-06-28T18:40:57.000Z</time>
      </trkpt>
      <trkpt lat="43.34824" lon="-1.55246">
        <ele>18</ele>
        <time>2026-06-28T18:40:59.000Z</time>
      </trkpt>
      <trkpt lat="43.34796" lon="-1.55236">
        <ele>19</ele>
        <time>2026-06-28T18:41:04.000Z</time>
      </trkpt>
      <trkpt lat="43.34782" lon="-1.55234">
        <ele>19</ele>
        <time>2026-06-28T18:41:07.000Z</time>
      </trkpt>
      <trkpt lat="43.34598" lon="-1.55215">
        <ele>19</ele>
        <time>2026-06-28T18:41:39.000Z</time>
      </trkpt>
      <trkpt lat="43.34578" lon="-1.55208">
        <ele>19</ele>
        <time>2026-06-28T18:41:43.000Z</time>
      </trkpt>
      <trkpt lat="43.34559" lon="-1.55198">
        <ele>20</ele>
        <time>2026-06-28T18:41:47.000Z</time>
      </trkpt>
      <trkpt lat="43.34542" lon="-1.55183">
        <ele>21</ele>
        <time>2026-06-28T18:41:50.000Z</time>
      </trkpt>
      <trkpt lat="43.34533" lon="-1.55172">
        <ele>21</ele>
        <time>2026-06-28T18:41:52.000Z</time>
      </trkpt>
      <trkpt lat="43.34363" lon="-1.54942">
        <ele>27</ele>
        <time>2026-06-28T18:42:35.000Z</time>
      </trkpt>
      <trkpt lat="43.34329" lon="-1.549">
        <ele>30</ele>
        <time>2026-06-28T18:42:43.000Z</time>
      </trkpt>
      <trkpt lat="43.34309" lon="-1.54884">
        <ele>30</ele>
        <time>2026-06-28T18:42:47.000Z</time>
      </trkpt>
      <trkpt lat="43.34295" lon="-1.54875">
        <ele>30</ele>
        <time>2026-06-28T18:42:50.000Z</time>
      </trkpt>
      <trkpt lat="43.34281" lon="-1.54868">
        <ele>31</ele>
        <time>2026-06-28T18:42:53.000Z</time>
      </trkpt>
      <trkpt lat="43.34262" lon="-1.54863">
        <ele>31</ele>
        <time>2026-06-28T18:42:56.000Z</time>
      </trkpt>
      <trkpt lat="43.34247" lon="-1.54861">
        <ele>31</ele>
        <time>2026-06-28T18:42:59.000Z</time>
      </trkpt>
      <trkpt lat="43.34232" lon="-1.54862">
        <ele>32</ele>
        <time>2026-06-28T18:43:01.000Z</time>
      </trkpt>
      <trkpt lat="43.34217" lon="-1.54864">
        <ele>33</ele>
        <time>2026-06-28T18:43:04.000Z</time>
      </trkpt>
      <trkpt lat="43.34198" lon="-1.54871">
        <ele>34</ele>
        <time>2026-06-28T18:43:07.000Z</time>
      </trkpt>
      <trkpt lat="43.33923" lon="-1.55038">
        <ele>45</ele>
        <time>2026-06-28T18:44:01.000Z</time>
      </trkpt>
      <trkpt lat="43.33911" lon="-1.55043">
        <ele>45</ele>
        <time>2026-06-28T18:44:03.000Z</time>
      </trkpt>
      <trkpt lat="43.33897" lon="-1.55046">
        <ele>44</ele>
        <time>2026-06-28T18:44:06.000Z</time>
      </trkpt>
      <trkpt lat="43.33874" lon="-1.55043">
        <ele>41</ele>
        <time>2026-06-28T18:44:10.000Z</time>
      </trkpt>
      <trkpt lat="43.33842" lon="-1.55028">
        <ele>38</ele>
        <time>2026-06-28T18:44:16.000Z</time>
      </trkpt>
      <trkpt lat="43.33772" lon="-1.54983">
        <ele>34</ele>
        <time>2026-06-28T18:44:30.000Z</time>
      </trkpt>
      <trkpt lat="43.33698" lon="-1.54941">
        <ele>35</ele>
        <time>2026-06-28T18:44:44.000Z</time>
      </trkpt>
      <trkpt lat="43.33677" lon="-1.54931">
        <ele>34</ele>
        <time>2026-06-28T18:44:48.000Z</time>
      </trkpt>
      <trkpt lat="43.33619" lon="-1.54908">
        <ele>37</ele>
        <time>2026-06-28T18:44:59.000Z</time>
      </trkpt>
      <trkpt lat="43.33546" lon="-1.54873">
        <ele>37</ele>
        <time>2026-06-28T18:45:12.000Z</time>
      </trkpt>
      <trkpt lat="43.33491" lon="-1.54853">
        <ele>36</ele>
        <time>2026-06-28T18:45:22.000Z</time>
      </trkpt>
      <trkpt lat="43.33449" lon="-1.54835">
        <ele>35</ele>
        <time>2026-06-28T18:45:30.000Z</time>
      </trkpt>
      <trkpt lat="43.33336" lon="-1.54811">
        <ele>41</ele>
        <time>2026-06-28T18:45:51.000Z</time>
      </trkpt>
      <trkpt lat="43.3332" lon="-1.54803">
        <ele>42</ele>
        <time>2026-06-28T18:45:54.000Z</time>
      </trkpt>
      <trkpt lat="43.33289" lon="-1.54777">
        <ele>42</ele>
        <time>2026-06-28T18:46:00.000Z</time>
      </trkpt>
      <trkpt lat="43.33248" lon="-1.54737">
        <ele>42</ele>
        <time>2026-06-28T18:46:09.000Z</time>
      </trkpt>
      <trkpt lat="43.33221" lon="-1.54708">
        <ele>40</ele>
        <time>2026-06-28T18:46:15.000Z</time>
      </trkpt>
      <trkpt lat="43.33207" lon="-1.5469">
        <ele>39</ele>
        <time>2026-06-28T18:46:19.000Z</time>
      </trkpt>
      <trkpt lat="43.33195" lon="-1.54665">
        <ele>37</ele>
        <time>2026-06-28T18:46:22.000Z</time>
      </trkpt>
      <trkpt lat="43.3317" lon="-1.54593">
        <ele>35</ele>
        <time>2026-06-28T18:46:33.000Z</time>
      </trkpt>
      <trkpt lat="43.3316" lon="-1.54575">
        <ele>35</ele>
        <time>2026-06-28T18:46:36.000Z</time>
      </trkpt>
      <trkpt lat="43.33136" lon="-1.54543">
        <ele>34</ele>
        <time>2026-06-28T18:46:42.000Z</time>
      </trkpt>
      <trkpt lat="43.33077" lon="-1.54474">
        <ele>32</ele>
        <time>2026-06-28T18:46:55.000Z</time>
      </trkpt>
      <trkpt lat="43.33059" lon="-1.54455">
        <ele>32</ele>
        <time>2026-06-28T18:46:59.000Z</time>
      </trkpt>
      <trkpt lat="43.33045" lon="-1.54446">
        <ele>32</ele>
        <time>2026-06-28T18:47:02.000Z</time>
      </trkpt>
      <trkpt lat="43.33029" lon="-1.5444">
        <ele>31</ele>
        <time>2026-06-28T18:47:05.000Z</time>
      </trkpt>
      <trkpt lat="43.33021" lon="-1.54439">
        <ele>31</ele>
        <time>2026-06-28T18:47:07.000Z</time>
      </trkpt>
      <trkpt lat="43.32996" lon="-1.54439">
        <ele>31</ele>
        <time>2026-06-28T18:47:11.000Z</time>
      </trkpt>
      <trkpt lat="43.32973" lon="-1.54447">
        <ele>31</ele>
        <time>2026-06-28T18:47:15.000Z</time>
      </trkpt>
      <trkpt lat="43.32881" lon="-1.54504">
        <ele>34</ele>
        <time>2026-06-28T18:47:33.000Z</time>
      </trkpt>
      <trkpt lat="43.32848" lon="-1.54529">
        <ele>37</ele>
        <time>2026-06-28T18:47:40.000Z</time>
      </trkpt>
      <trkpt lat="43.32688" lon="-1.54685">
        <ele>39</ele>
        <time>2026-06-28T18:48:15.000Z</time>
      </trkpt>
      <trkpt lat="43.32563" lon="-1.54811">
        <ele>36</ele>
        <time>2026-06-28T18:48:42.000Z</time>
      </trkpt>
      <trkpt lat="43.32473" lon="-1.54889">
        <ele>35</ele>
        <time>2026-06-28T18:49:01.000Z</time>
      </trkpt>
      <trkpt lat="43.32445" lon="-1.54905">
        <ele>34</ele>
        <time>2026-06-28T18:49:07.000Z</time>
      </trkpt>
      <trkpt lat="43.32343" lon="-1.54951">
        <ele>31</ele>
        <time>2026-06-28T18:49:26.000Z</time>
      </trkpt>
      <trkpt lat="43.32299" lon="-1.54969">
        <ele>30</ele>
        <time>2026-06-28T18:49:34.000Z</time>
      </trkpt>
      <trkpt lat="43.32229" lon="-1.55002">
        <ele>30</ele>
        <time>2026-06-28T18:49:47.000Z</time>
      </trkpt>
      <trkpt lat="43.32194" lon="-1.5502">
        <ele>30</ele>
        <time>2026-06-28T18:49:54.000Z</time>
      </trkpt>
      <trkpt lat="43.32174" lon="-1.55032">
        <ele>31</ele>
        <time>2026-06-28T18:49:58.000Z</time>
      </trkpt>
      <trkpt lat="43.32151" lon="-1.55053">
        <ele>31</ele>
        <time>2026-06-28T18:50:03.000Z</time>
      </trkpt>
      <trkpt lat="43.32143" lon="-1.55052">
        <ele>31</ele>
        <time>2026-06-28T18:50:04.000Z</time>
      </trkpt>
      <trkpt lat="43.32138" lon="-1.55045">
        <ele>31</ele>
        <time>2026-06-28T18:50:05.000Z</time>
      </trkpt>
      <trkpt lat="43.32141" lon="-1.55014">
        <ele>31</ele>
        <time>2026-06-28T18:50:09.000Z</time>
      </trkpt>
      <trkpt lat="43.3213" lon="-1.54941">
        <ele>30</ele>
        <time>2026-06-28T18:50:19.000Z</time>
      </trkpt>
      <trkpt lat="43.32123" lon="-1.54916">
        <ele>30</ele>
        <time>2026-06-28T18:50:22.000Z</time>
      </trkpt>
      <trkpt lat="43.3211" lon="-1.54895">
        <ele>30</ele>
        <time>2026-06-28T18:50:26.000Z</time>
      </trkpt>
      <trkpt lat="43.32072" lon="-1.54849">
        <ele>32</ele>
        <time>2026-06-28T18:50:35.000Z</time>
      </trkpt>
      <trkpt lat="43.31962" lon="-1.54709">
        <ele>41</ele>
        <time>2026-06-28T18:51:02.000Z</time>
      </trkpt>
      <trkpt lat="43.31916" lon="-1.54647">
        <ele>38</ele>
        <time>2026-06-28T18:51:13.000Z</time>
      </trkpt>
      <trkpt lat="43.31901" lon="-1.54618">
        <ele>39</ele>
        <time>2026-06-28T18:51:18.000Z</time>
      </trkpt>
      <trkpt lat="43.31889" lon="-1.54586">
        <ele>40</ele>
        <time>2026-06-28T18:51:22.000Z</time>
      </trkpt>
      <trkpt lat="43.31882" lon="-1.54559">
        <ele>40</ele>
        <time>2026-06-28T18:51:26.000Z</time>
      </trkpt>
      <trkpt lat="43.31876" lon="-1.54523">
        <ele>40</ele>
        <time>2026-06-28T18:51:31.000Z</time>
      </trkpt>
      <trkpt lat="43.31874" lon="-1.54495">
        <ele>40</ele>
        <time>2026-06-28T18:51:35.000Z</time>
      </trkpt>
      <trkpt lat="43.31875" lon="-1.54467">
        <ele>41</ele>
        <time>2026-06-28T18:51:38.000Z</time>
      </trkpt>
      <trkpt lat="43.31881" lon="-1.54422">
        <ele>42</ele>
        <time>2026-06-28T18:51:44.000Z</time>
      </trkpt>
      <trkpt lat="43.31895" lon="-1.54361">
        <ele>40</ele>
        <time>2026-06-28T18:51:52.000Z</time>
      </trkpt>
      <trkpt lat="43.32" lon="-1.53983">
        <ele>38</ele>
        <time>2026-06-28T18:52:45.000Z</time>
      </trkpt>
      <trkpt lat="43.32007" lon="-1.53947">
        <ele>39</ele>
        <time>2026-06-28T18:52:50.000Z</time>
      </trkpt>
      <trkpt lat="43.32008" lon="-1.53901">
        <ele>39</ele>
        <time>2026-06-28T18:52:56.000Z</time>
      </trkpt>
      <trkpt lat="43.31996" lon="-1.53644">
        <ele>40</ele>
        <time>2026-06-28T18:53:29.000Z</time>
      </trkpt>
      <trkpt lat="43.31991" lon="-1.53608">
        <ele>39</ele>
        <time>2026-06-28T18:53:34.000Z</time>
      </trkpt>
      <trkpt lat="43.31984" lon="-1.53583">
        <ele>39</ele>
        <time>2026-06-28T18:53:37.000Z</time>
      </trkpt>
      <trkpt lat="43.31977" lon="-1.53567">
        <ele>40</ele>
        <time>2026-06-28T18:53:40.000Z</time>
      </trkpt>
      <trkpt lat="43.31964" lon="-1.53546">
        <ele>40</ele>
        <time>2026-06-28T18:53:43.000Z</time>
      </trkpt>
      <trkpt lat="43.31721" lon="-1.53178">
        <ele>47</ele>
        <time>2026-06-28T18:54:47.000Z</time>
      </trkpt>
      <trkpt lat="43.31713" lon="-1.53163">
        <ele>48</ele>
        <time>2026-06-28T18:54:50.000Z</time>
      </trkpt>
      <trkpt lat="43.31709" lon="-1.53145">
        <ele>48</ele>
        <time>2026-06-28T18:54:52.000Z</time>
      </trkpt>
      <trkpt lat="43.31722" lon="-1.53042">
        <ele>51</ele>
        <time>2026-06-28T18:55:06.000Z</time>
      </trkpt>
      <trkpt lat="43.3173" lon="-1.53001">
        <ele>52</ele>
        <time>2026-06-28T18:55:11.000Z</time>
      </trkpt>
      <trkpt lat="43.31732" lon="-1.5298">
        <ele>53</ele>
        <time>2026-06-28T18:55:14.000Z</time>
      </trkpt>
      <trkpt lat="43.31743" lon="-1.52925">
        <ele>54</ele>
        <time>2026-06-28T18:55:21.000Z</time>
      </trkpt>
      <trkpt lat="43.31748" lon="-1.52888">
        <ele>55</ele>
        <time>2026-06-28T18:55:26.000Z</time>
      </trkpt>
      <trkpt lat="43.31773" lon="-1.52746">
        <ele>56</ele>
        <time>2026-06-28T18:55:45.000Z</time>
      </trkpt>
      <trkpt lat="43.31783" lon="-1.52677">
        <ele>55</ele>
        <time>2026-06-28T18:55:54.000Z</time>
      </trkpt>
      <trkpt lat="43.31792" lon="-1.52635">
        <ele>55</ele>
        <time>2026-06-28T18:56:00.000Z</time>
      </trkpt>
      <trkpt lat="43.31807" lon="-1.52516">
        <ele>53</ele>
        <time>2026-06-28T18:56:16.000Z</time>
      </trkpt>
      <trkpt lat="43.31807" lon="-1.52491">
        <ele>53</ele>
        <time>2026-06-28T18:56:19.000Z</time>
      </trkpt>
      <trkpt lat="43.31805" lon="-1.52475">
        <ele>54</ele>
        <time>2026-06-28T18:56:21.000Z</time>
      </trkpt>
      <trkpt lat="43.31795" lon="-1.52445">
        <ele>56</ele>
        <time>2026-06-28T18:56:25.000Z</time>
      </trkpt>
      <trkpt lat="43.31777" lon="-1.52413">
        <ele>56</ele>
        <time>2026-06-28T18:56:30.000Z</time>
      </trkpt>
      <trkpt lat="43.31746" lon="-1.52366">
        <ele>57</ele>
        <time>2026-06-28T18:56:39.000Z</time>
      </trkpt>
      <trkpt lat="43.31673" lon="-1.52264">
        <ele>57</ele>
        <time>2026-06-28T18:56:57.000Z</time>
      </trkpt>
      <trkpt lat="43.31642" lon="-1.52215">
        <ele>60</ele>
        <time>2026-06-28T18:57:06.000Z</time>
      </trkpt>
      <trkpt lat="43.31577" lon="-1.5212">
        <ele>62</ele>
        <time>2026-06-28T18:57:22.000Z</time>
      </trkpt>
      <trkpt lat="43.3153" lon="-1.52056">
        <ele>65</ele>
        <time>2026-06-28T18:57:34.000Z</time>
      </trkpt>
      <trkpt lat="43.31501" lon="-1.52027">
        <ele>67</ele>
        <time>2026-06-28T18:57:41.000Z</time>
      </trkpt>
      <trkpt lat="43.31492" lon="-1.5202">
        <ele>68</ele>
        <time>2026-06-28T18:57:42.000Z</time>
      </trkpt>
      <trkpt lat="43.31454" lon="-1.52001">
        <ele>68</ele>
        <time>2026-06-28T18:57:50.000Z</time>
      </trkpt>
      <trkpt lat="43.31438" lon="-1.51991">
        <ele>68</ele>
        <time>2026-06-28T18:57:53.000Z</time>
      </trkpt>
      <trkpt lat="43.31426" lon="-1.51977">
        <ele>67</ele>
        <time>2026-06-28T18:57:56.000Z</time>
      </trkpt>
      <trkpt lat="43.31419" lon="-1.51957">
        <ele>67</ele>
        <time>2026-06-28T18:57:58.000Z</time>
      </trkpt>
      <trkpt lat="43.31395" lon="-1.51848">
        <ele>68</ele>
        <time>2026-06-28T18:58:13.000Z</time>
      </trkpt>
      <trkpt lat="43.31387" lon="-1.518">
        <ele>67</ele>
        <time>2026-06-28T18:58:20.000Z</time>
      </trkpt>
      <trkpt lat="43.31382" lon="-1.51784">
        <ele>67</ele>
        <time>2026-06-28T18:58:22.000Z</time>
      </trkpt>
      <trkpt lat="43.31374" lon="-1.51767">
        <ele>67</ele>
        <time>2026-06-28T18:58:24.000Z</time>
      </trkpt>
      <trkpt lat="43.31348" lon="-1.51725">
        <ele>66</ele>
        <time>2026-06-28T18:58:32.000Z</time>
      </trkpt>
      <trkpt lat="43.31291" lon="-1.51647">
        <ele>66</ele>
        <time>2026-06-28T18:58:46.000Z</time>
      </trkpt>
      <trkpt lat="43.31262" lon="-1.51602">
        <ele>65</ele>
        <time>2026-06-28T18:58:54.000Z</time>
      </trkpt>
      <trkpt lat="43.31245" lon="-1.51574">
        <ele>65</ele>
        <time>2026-06-28T18:58:58.000Z</time>
      </trkpt>
      <trkpt lat="43.31229" lon="-1.51545">
        <ele>66</ele>
        <time>2026-06-28T18:59:03.000Z</time>
      </trkpt>
      <trkpt lat="43.31223" lon="-1.51529">
        <ele>66</ele>
        <time>2026-06-28T18:59:05.000Z</time>
      </trkpt>
      <trkpt lat="43.31218" lon="-1.51513">
        <ele>67</ele>
        <time>2026-06-28T18:59:08.000Z</time>
      </trkpt>
      <trkpt lat="43.31196" lon="-1.51411">
        <ele>68</ele>
        <time>2026-06-28T18:59:22.000Z</time>
      </trkpt>
      <trkpt lat="43.3119" lon="-1.51361">
        <ele>67</ele>
        <time>2026-06-28T18:59:28.000Z</time>
      </trkpt>
      <trkpt lat="43.31182" lon="-1.51241">
        <ele>72</ele>
        <time>2026-06-28T18:59:44.000Z</time>
      </trkpt>
      <trkpt lat="43.31185" lon="-1.512">
        <ele>71</ele>
        <time>2026-06-28T18:59:49.000Z</time>
      </trkpt>
      <trkpt lat="43.31196" lon="-1.51145">
        <ele>70</ele>
        <time>2026-06-28T18:59:56.000Z</time>
      </trkpt>
      <trkpt lat="43.3121" lon="-1.51091">
        <ele>71</ele>
        <time>2026-06-28T19:00:04.000Z</time>
      </trkpt>
      <trkpt lat="43.31233" lon="-1.51021">
        <ele>71</ele>
        <time>2026-06-28T19:00:14.000Z</time>
      </trkpt>
      <trkpt lat="43.31253" lon="-1.5098">
        <ele>71</ele>
        <time>2026-06-28T19:00:20.000Z</time>
      </trkpt>
      <trkpt lat="43.31265" lon="-1.50964">
        <ele>72</ele>
        <time>2026-06-28T19:00:23.000Z</time>
      </trkpt>
      <trkpt lat="43.31288" lon="-1.50939">
        <ele>72</ele>
        <time>2026-06-28T19:00:28.000Z</time>
      </trkpt>
      <trkpt lat="43.31296" lon="-1.50925">
        <ele>72</ele>
        <time>2026-06-28T19:00:31.000Z</time>
      </trkpt>
      <trkpt lat="43.31302" lon="-1.5091">
        <ele>71</ele>
        <time>2026-06-28T19:00:33.000Z</time>
      </trkpt>
      <trkpt lat="43.31333" lon="-1.50786">
        <ele>70</ele>
        <time>2026-06-28T19:00:50.000Z</time>
      </trkpt>
      <trkpt lat="43.3135" lon="-1.50725">
        <ele>74</ele>
        <time>2026-06-28T19:00:58.000Z</time>
      </trkpt>
      <trkpt lat="43.31361" lon="-1.50675">
        <ele>77</ele>
        <time>2026-06-28T19:01:05.000Z</time>
      </trkpt>
      <trkpt lat="43.31361" lon="-1.50659">
        <ele>78</ele>
        <time>2026-06-28T19:01:07.000Z</time>
      </trkpt>
      <trkpt lat="43.31357" lon="-1.50637">
        <ele>79</ele>
        <time>2026-06-28T19:01:10.000Z</time>
      </trkpt>
      <trkpt lat="43.31335" lon="-1.50554">
        <ele>79</ele>
        <time>2026-06-28T19:01:21.000Z</time>
      </trkpt>
      <trkpt lat="43.31315" lon="-1.50489">
        <ele>78</ele>
        <time>2026-06-28T19:01:31.000Z</time>
      </trkpt>
      <trkpt lat="43.31308" lon="-1.5045">
        <ele>77</ele>
        <time>2026-06-28T19:01:36.000Z</time>
      </trkpt>
      <trkpt lat="43.31305" lon="-1.50414">
        <ele>76</ele>
        <time>2026-06-28T19:01:41.000Z</time>
      </trkpt>
      <trkpt lat="43.31308" lon="-1.50352">
        <ele>80</ele>
        <time>2026-06-28T19:01:49.000Z</time>
      </trkpt>
      <trkpt lat="43.31307" lon="-1.50331">
        <ele>82</ele>
        <time>2026-06-28T19:01:51.000Z</time>
      </trkpt>
      <trkpt lat="43.31295" lon="-1.50281">
        <ele>85</ele>
        <time>2026-06-28T19:01:58.000Z</time>
      </trkpt>
      <trkpt lat="43.31289" lon="-1.50268">
        <ele>86</ele>
        <time>2026-06-28T19:02:00.000Z</time>
      </trkpt>
      <trkpt lat="43.31282" lon="-1.50255">
        <ele>88</ele>
        <time>2026-06-28T19:02:02.000Z</time>
      </trkpt>
      <trkpt lat="43.31237" lon="-1.50196">
        <ele>94</ele>
        <time>2026-06-28T19:02:13.000Z</time>
      </trkpt>
      <trkpt lat="43.31208" lon="-1.50165">
        <ele>96</ele>
        <time>2026-06-28T19:02:20.000Z</time>
      </trkpt>
      <trkpt lat="43.31183" lon="-1.50121">
        <ele>96</ele>
        <time>2026-06-28T19:02:27.000Z</time>
      </trkpt>
      <trkpt lat="43.3116" lon="-1.50092">
        <ele>97</ele>
        <time>2026-06-28T19:02:33.000Z</time>
      </trkpt>
      <trkpt lat="43.31136" lon="-1.50057">
        <ele>97</ele>
        <time>2026-06-28T19:02:39.000Z</time>
      </trkpt>
      <trkpt lat="43.31129" lon="-1.50054">
        <ele>97</ele>
        <time>2026-06-28T19:02:40.000Z</time>
      </trkpt>
      <trkpt lat="43.31122" lon="-1.50053">
        <ele>98</ele>
        <time>2026-06-28T19:02:41.000Z</time>
      </trkpt>
      <trkpt lat="43.31098" lon="-1.50057">
        <ele>100</ele>
        <time>2026-06-28T19:02:46.000Z</time>
      </trkpt>
      <trkpt lat="43.31079" lon="-1.50057">
        <ele>101</ele>
        <time>2026-06-28T19:02:49.000Z</time>
      </trkpt>
      <trkpt lat="43.3107" lon="-1.50055">
        <ele>102</ele>
        <time>2026-06-28T19:02:51.000Z</time>
      </trkpt>
      <trkpt lat="43.31058" lon="-1.50046">
        <ele>103</ele>
        <time>2026-06-28T19:02:53.000Z</time>
      </trkpt>
      <trkpt lat="43.31052" lon="-1.50037">
        <ele>103</ele>
        <time>2026-06-28T19:02:55.000Z</time>
      </trkpt>
      <trkpt lat="43.31042" lon="-1.50016">
        <ele>104</ele>
        <time>2026-06-28T19:02:58.000Z</time>
      </trkpt>
      <trkpt lat="43.31008" lon="-1.49919">
        <ele>109</ele>
        <time>2026-06-28T19:03:12.000Z</time>
      </trkpt>
      <trkpt lat="43.31" lon="-1.49908">
        <ele>110</ele>
        <time>2026-06-28T19:03:14.000Z</time>
      </trkpt>
      <trkpt lat="43.3099" lon="-1.49901">
        <ele>110</ele>
        <time>2026-06-28T19:03:16.000Z</time>
      </trkpt>
      <trkpt lat="43.3097" lon="-1.49899">
        <ele>110</ele>
        <time>2026-06-28T19:03:19.000Z</time>
      </trkpt>
      <trkpt lat="43.30943" lon="-1.49902">
        <ele>111</ele>
        <time>2026-06-28T19:03:24.000Z</time>
      </trkpt>
      <trkpt lat="43.30918" lon="-1.49902">
        <ele>112</ele>
        <time>2026-06-28T19:03:29.000Z</time>
      </trkpt>
      <trkpt lat="43.309" lon="-1.499">
        <ele>113</ele>
        <time>2026-06-28T19:03:32.000Z</time>
      </trkpt>
      <trkpt lat="43.30877" lon="-1.49903">
        <ele>113</ele>
        <time>2026-06-28T19:03:36.000Z</time>
      </trkpt>
      <trkpt lat="43.3084" lon="-1.49904">
        <ele>114</ele>
        <time>2026-06-28T19:03:43.000Z</time>
      </trkpt>
      <trkpt lat="43.30826" lon="-1.49902">
        <ele>115</ele>
        <time>2026-06-28T19:03:45.000Z</time>
      </trkpt>
      <trkpt lat="43.30782" lon="-1.49902">
        <ele>115</ele>
        <time>2026-06-28T19:03:53.000Z</time>
      </trkpt>
      <trkpt lat="43.30739" lon="-1.499">
        <ele>117</ele>
        <time>2026-06-28T19:04:01.000Z</time>
      </trkpt>
      <trkpt lat="43.30732" lon="-1.49899">
        <ele>118</ele>
        <time>2026-06-28T19:04:02.000Z</time>
      </trkpt>
      <trkpt lat="43.30705" lon="-1.49889">
        <ele>121</ele>
        <time>2026-06-28T19:04:07.000Z</time>
      </trkpt>
      <trkpt lat="43.3069" lon="-1.49886">
        <ele>122</ele>
        <time>2026-06-28T19:04:10.000Z</time>
      </trkpt>
      <trkpt lat="43.30676" lon="-1.4988">
        <ele>124</ele>
        <time>2026-06-28T19:04:12.000Z</time>
      </trkpt>
      <trkpt lat="43.30662" lon="-1.49878">
        <ele>125</ele>
        <time>2026-06-28T19:04:15.000Z</time>
      </trkpt>
      <trkpt lat="43.30631" lon="-1.49882">
        <ele>125</ele>
        <time>2026-06-28T19:04:20.000Z</time>
      </trkpt>
      <trkpt lat="43.30537" lon="-1.49905">
        <ele>122</ele>
        <time>2026-06-28T19:04:37.000Z</time>
      </trkpt>
      <trkpt lat="43.30524" lon="-1.49903">
        <ele>121</ele>
        <time>2026-06-28T19:04:40.000Z</time>
      </trkpt>
      <trkpt lat="43.30517" lon="-1.49899">
        <ele>121</ele>
        <time>2026-06-28T19:04:41.000Z</time>
      </trkpt>
      <trkpt lat="43.30512" lon="-1.49892">
        <ele>120</ele>
        <time>2026-06-28T19:04:42.000Z</time>
      </trkpt>
      <trkpt lat="43.30503" lon="-1.49875">
        <ele>120</ele>
        <time>2026-06-28T19:04:45.000Z</time>
      </trkpt>
      <trkpt lat="43.30469" lon="-1.49784">
        <ele>119</ele>
        <time>2026-06-28T19:04:58.000Z</time>
      </trkpt>
      <trkpt lat="43.30449" lon="-1.49718">
        <ele>121</ele>
        <time>2026-06-28T19:05:07.000Z</time>
      </trkpt>
      <trkpt lat="43.30425" lon="-1.49656">
        <ele>124</ele>
        <time>2026-06-28T19:05:16.000Z</time>
      </trkpt>
      <trkpt lat="43.3042" lon="-1.49649">
        <ele>124</ele>
        <time>2026-06-28T19:05:18.000Z</time>
      </trkpt>
      <trkpt lat="43.30408" lon="-1.49641">
        <ele>124</ele>
        <time>2026-06-28T19:05:20.000Z</time>
      </trkpt>
      <trkpt lat="43.30404" lon="-1.49636">
        <ele>124</ele>
        <time>2026-06-28T19:05:21.000Z</time>
      </trkpt>
      <trkpt lat="43.3039" lon="-1.49623">
        <ele>125</ele>
        <time>2026-06-28T19:05:24.000Z</time>
      </trkpt>
      <trkpt lat="43.30375" lon="-1.49612">
        <ele>125</ele>
        <time>2026-06-28T19:05:27.000Z</time>
      </trkpt>
      <trkpt lat="43.30353" lon="-1.49592">
        <ele>124</ele>
        <time>2026-06-28T19:05:32.000Z</time>
      </trkpt>
      <trkpt lat="43.30342" lon="-1.49577">
        <ele>124</ele>
        <time>2026-06-28T19:05:35.000Z</time>
      </trkpt>
      <trkpt lat="43.30333" lon="-1.4956">
        <ele>124</ele>
        <time>2026-06-28T19:05:37.000Z</time>
      </trkpt>
      <trkpt lat="43.30326" lon="-1.4954">
        <ele>124</ele>
        <time>2026-06-28T19:05:40.000Z</time>
      </trkpt>
      <trkpt lat="43.30285" lon="-1.4939">
        <ele>128</ele>
        <time>2026-06-28T19:06:01.000Z</time>
      </trkpt>
      <trkpt lat="43.30276" lon="-1.49369">
        <ele>130</ele>
        <time>2026-06-28T19:06:04.000Z</time>
      </trkpt>
      <trkpt lat="43.30268" lon="-1.49357">
        <ele>131</ele>
        <time>2026-06-28T19:06:06.000Z</time>
      </trkpt>
      <trkpt lat="43.30263" lon="-1.49353">
        <ele>131</ele>
        <time>2026-06-28T19:06:07.000Z</time>
      </trkpt>
      <trkpt lat="43.30258" lon="-1.4935">
        <ele>131</ele>
        <time>2026-06-28T19:06:08.000Z</time>
      </trkpt>
      <trkpt lat="43.30246" lon="-1.49347">
        <ele>131</ele>
        <time>2026-06-28T19:06:10.000Z</time>
      </trkpt>
      <trkpt lat="43.30229" lon="-1.49352">
        <ele>131</ele>
        <time>2026-06-28T19:06:13.000Z</time>
      </trkpt>
      <trkpt lat="43.3017" lon="-1.49387">
        <ele>128</ele>
        <time>2026-06-28T19:06:25.000Z</time>
      </trkpt>
      <trkpt lat="43.30132" lon="-1.49412">
        <ele>127</ele>
        <time>2026-06-28T19:06:32.000Z</time>
      </trkpt>
      <trkpt lat="43.30097" lon="-1.4943">
        <ele>127</ele>
        <time>2026-06-28T19:06:39.000Z</time>
      </trkpt>
      <trkpt lat="43.30066" lon="-1.49438">
        <ele>127</ele>
        <time>2026-06-28T19:06:45.000Z</time>
      </trkpt>
      <trkpt lat="43.30043" lon="-1.4944">
        <ele>128</ele>
        <time>2026-06-28T19:06:49.000Z</time>
      </trkpt>
      <trkpt lat="43.30026" lon="-1.49439">
        <ele>129</ele>
        <time>2026-06-28T19:06:52.000Z</time>
      </trkpt>
      <trkpt lat="43.3001" lon="-1.49438">
        <ele>130</ele>
        <time>2026-06-28T19:06:55.000Z</time>
      </trkpt>
      <trkpt lat="43.29985" lon="-1.49432">
        <ele>132</ele>
        <time>2026-06-28T19:06:59.000Z</time>
      </trkpt>
      <trkpt lat="43.29965" lon="-1.49425">
        <ele>133</ele>
        <time>2026-06-28T19:07:03.000Z</time>
      </trkpt>
      <trkpt lat="43.29946" lon="-1.49415">
        <ele>134</ele>
        <time>2026-06-28T19:07:06.000Z</time>
      </trkpt>
      <trkpt lat="43.29924" lon="-1.494">
        <ele>135</ele>
        <time>2026-06-28T19:07:11.000Z</time>
      </trkpt>
      <trkpt lat="43.29908" lon="-1.49387">
        <ele>136</ele>
        <time>2026-06-28T19:07:14.000Z</time>
      </trkpt>
      <trkpt lat="43.29849" lon="-1.49323">
        <ele>132</ele>
        <time>2026-06-28T19:07:27.000Z</time>
      </trkpt>
      <trkpt lat="43.29835" lon="-1.49312">
        <ele>130</ele>
        <time>2026-06-28T19:07:30.000Z</time>
      </trkpt>
      <trkpt lat="43.29824" lon="-1.49307">
        <ele>129</ele>
        <time>2026-06-28T19:07:32.000Z</time>
      </trkpt>
      <trkpt lat="43.29797" lon="-1.49298">
        <ele>127</ele>
        <time>2026-06-28T19:07:37.000Z</time>
      </trkpt>
      <trkpt lat="43.29771" lon="-1.49296">
        <ele>126</ele>
        <time>2026-06-28T19:07:42.000Z</time>
      </trkpt>
      <trkpt lat="43.29753" lon="-1.49299">
        <ele>125</ele>
        <time>2026-06-28T19:07:45.000Z</time>
      </trkpt>
      <trkpt lat="43.29725" lon="-1.49311">
        <ele>122</ele>
        <time>2026-06-28T19:07:50.000Z</time>
      </trkpt>
      <trkpt lat="43.29707" lon="-1.49323">
        <ele>120</ele>
        <time>2026-06-28T19:07:54.000Z</time>
      </trkpt>
      <trkpt lat="43.2969" lon="-1.49339">
        <ele>119</ele>
        <time>2026-06-28T19:07:58.000Z</time>
      </trkpt>
      <trkpt lat="43.29656" lon="-1.49377">
        <ele>116</ele>
        <time>2026-06-28T19:08:05.000Z</time>
      </trkpt>
      <trkpt lat="43.29632" lon="-1.49407">
        <ele>114</ele>
        <time>2026-06-28T19:08:11.000Z</time>
      </trkpt>
      <trkpt lat="43.29613" lon="-1.49443">
        <ele>113</ele>
        <time>2026-06-28T19:08:17.000Z</time>
      </trkpt>
      <trkpt lat="43.29581" lon="-1.49524">
        <ele>113</ele>
        <time>2026-06-28T19:08:29.000Z</time>
      </trkpt>
      <trkpt lat="43.29567" lon="-1.49548">
        <ele>114</ele>
        <time>2026-06-28T19:08:33.000Z</time>
      </trkpt>
      <trkpt lat="43.29548" lon="-1.49566">
        <ele>113</ele>
        <time>2026-06-28T19:08:37.000Z</time>
      </trkpt>
      <trkpt lat="43.29486" lon="-1.49602">
        <ele>108</ele>
        <time>2026-06-28T19:08:49.000Z</time>
      </trkpt>
      <trkpt lat="43.29456" lon="-1.49626">
        <ele>104</ele>
        <time>2026-06-28T19:08:55.000Z</time>
      </trkpt>
      <trkpt lat="43.29439" lon="-1.49647">
        <ele>101</ele>
        <time>2026-06-28T19:08:59.000Z</time>
      </trkpt>
      <trkpt lat="43.29424" lon="-1.49671">
        <ele>100</ele>
        <time>2026-06-28T19:09:03.000Z</time>
      </trkpt>
      <trkpt lat="43.29413" lon="-1.49698">
        <ele>100</ele>
        <time>2026-06-28T19:09:07.000Z</time>
      </trkpt>
      <trkpt lat="43.29408" lon="-1.49729">
        <ele>102</ele>
        <time>2026-06-28T19:09:11.000Z</time>
      </trkpt>
      <trkpt lat="43.29406" lon="-1.49761">
        <ele>103</ele>
        <time>2026-06-28T19:09:16.000Z</time>
      </trkpt>
      <trkpt lat="43.29408" lon="-1.49792">
        <ele>102</ele>
        <time>2026-06-28T19:09:20.000Z</time>
      </trkpt>
      <trkpt lat="43.29425" lon="-1.49969">
        <ele>90</ele>
        <time>2026-06-28T19:09:43.000Z</time>
      </trkpt>
      <trkpt lat="43.29424" lon="-1.50014">
        <ele>89</ele>
        <time>2026-06-28T19:09:49.000Z</time>
      </trkpt>
      <trkpt lat="43.29419" lon="-1.50044">
        <ele>88</ele>
        <time>2026-06-28T19:09:53.000Z</time>
      </trkpt>
      <trkpt lat="43.29414" lon="-1.50058">
        <ele>88</ele>
        <time>2026-06-28T19:09:55.000Z</time>
      </trkpt>
      <trkpt lat="43.2939" lon="-1.50111">
        <ele>87</ele>
        <time>2026-06-28T19:10:03.000Z</time>
      </trkpt>
      <trkpt lat="43.29376" lon="-1.50154">
        <ele>85</ele>
        <time>2026-06-28T19:10:09.000Z</time>
      </trkpt>
      <trkpt lat="43.29347" lon="-1.50301">
        <ele>78</ele>
        <time>2026-06-28T19:10:28.000Z</time>
      </trkpt>
      <trkpt lat="43.29345" lon="-1.50328">
        <ele>77</ele>
        <time>2026-06-28T19:10:32.000Z</time>
      </trkpt>
      <trkpt lat="43.29352" lon="-1.5041">
        <ele>76</ele>
        <time>2026-06-28T19:10:43.000Z</time>
      </trkpt>
      <trkpt lat="43.29352" lon="-1.50437">
        <ele>75</ele>
        <time>2026-06-28T19:10:46.000Z</time>
      </trkpt>
      <trkpt lat="43.29349" lon="-1.50463">
        <ele>73</ele>
        <time>2026-06-28T19:10:50.000Z</time>
      </trkpt>
      <trkpt lat="43.29338" lon="-1.50503">
        <ele>72</ele>
        <time>2026-06-28T19:10:55.000Z</time>
      </trkpt>
      <trkpt lat="43.2934" lon="-1.50518">
        <ele>71</ele>
        <time>2026-06-28T19:10:57.000Z</time>
      </trkpt>
      <trkpt lat="43.29343" lon="-1.50523">
        <ele>71</ele>
        <time>2026-06-28T19:10:58.000Z</time>
      </trkpt>
      <trkpt lat="43.29396" lon="-1.5058">
        <ele>66</ele>
        <time>2026-06-28T19:11:10.000Z</time>
      </trkpt>
      <trkpt lat="43.29419" lon="-1.506">
        <ele>68</ele>
        <time>2026-06-28T19:11:15.000Z</time>
      </trkpt>
      <trkpt lat="43.2944" lon="-1.50624">
        <ele>71</ele>
        <time>2026-06-28T19:11:20.000Z</time>
      </trkpt>
      <trkpt lat="43.29453" lon="-1.50633">
        <ele>72</ele>
        <time>2026-06-28T19:11:22.000Z</time>
      </trkpt>
      <trkpt lat="43.29459" lon="-1.50634">
        <ele>72</ele>
        <time>2026-06-28T19:11:23.000Z</time>
      </trkpt>
      <trkpt lat="43.29472" lon="-1.50631">
        <ele>72</ele>
        <time>2026-06-28T19:11:26.000Z</time>
      </trkpt>
      <trkpt lat="43.29544" lon="-1.50603">
        <ele>71</ele>
        <time>2026-06-28T19:11:39.000Z</time>
      </trkpt>
      <trkpt lat="43.2956" lon="-1.50603">
        <ele>71</ele>
        <time>2026-06-28T19:11:42.000Z</time>
      </trkpt>
      <trkpt lat="43.29574" lon="-1.5061">
        <ele>71</ele>
        <time>2026-06-28T19:11:44.000Z</time>
      </trkpt>
      <trkpt lat="43.29591" lon="-1.50625">
        <ele>72</ele>
        <time>2026-06-28T19:11:48.000Z</time>
      </trkpt>
      <trkpt lat="43.29629" lon="-1.50677">
        <ele>72</ele>
        <time>2026-06-28T19:11:58.000Z</time>
      </trkpt>
      <trkpt lat="43.29642" lon="-1.50691">
        <ele>72</ele>
        <time>2026-06-28T19:12:00.000Z</time>
      </trkpt>
      <trkpt lat="43.29652" lon="-1.50698">
        <ele>72</ele>
        <time>2026-06-28T19:12:02.000Z</time>
      </trkpt>
      <trkpt lat="43.29708" lon="-1.5073">
        <ele>73</ele>
        <time>2026-06-28T19:12:13.000Z</time>
      </trkpt>
      <trkpt lat="43.29734" lon="-1.50747">
        <ele>72</ele>
        <time>2026-06-28T19:12:18.000Z</time>
      </trkpt>
      <trkpt lat="43.29802" lon="-1.50803">
        <ele>71</ele>
        <time>2026-06-28T19:12:33.000Z</time>
      </trkpt>
      <trkpt lat="43.29844" lon="-1.50847">
        <ele>70</ele>
        <time>2026-06-28T19:12:42.000Z</time>
      </trkpt>
      <trkpt lat="43.29887" lon="-1.50889">
        <ele>70</ele>
        <time>2026-06-28T19:12:51.000Z</time>
      </trkpt>
      <trkpt lat="43.29904" lon="-1.50909">
        <ele>69</ele>
        <time>2026-06-28T19:12:55.000Z</time>
      </trkpt>
      <trkpt lat="43.30003" lon="-1.5107">
        <ele>66</ele>
        <time>2026-06-28T19:13:23.000Z</time>
      </trkpt>
      <trkpt lat="43.30012" lon="-1.51087">
        <ele>66</ele>
        <time>2026-06-28T19:13:25.000Z</time>
      </trkpt>
      <trkpt lat="43.30018" lon="-1.51106">
        <ele>66</ele>
        <time>2026-06-28T19:13:28.000Z</time>
      </trkpt>
      <trkpt lat="43.30018" lon="-1.51125">
        <ele>67</ele>
        <time>2026-06-28T19:13:30.000Z</time>
      </trkpt>
      <trkpt lat="43.30011" lon="-1.51151">
        <ele>69</ele>
        <time>2026-06-28T19:13:34.000Z</time>
      </trkpt>
      <trkpt lat="43.29978" lon="-1.51223">
        <ele>75</ele>
        <time>2026-06-28T19:13:45.000Z</time>
      </trkpt>
      <trkpt lat="43.29976" lon="-1.51232">
        <ele>76</ele>
        <time>2026-06-28T19:13:46.000Z</time>
      </trkpt>
      <trkpt lat="43.29976" lon="-1.51241">
        <ele>76</ele>
        <time>2026-06-28T19:13:47.000Z</time>
      </trkpt>
      <trkpt lat="43.29979" lon="-1.5125">
        <ele>75</ele>
        <time>2026-06-28T19:13:49.000Z</time>
      </trkpt>
      <trkpt lat="43.29984" lon="-1.51254">
        <ele>75</ele>
        <time>2026-06-28T19:13:50.000Z</time>
      </trkpt>
      <trkpt lat="43.2999" lon="-1.51255">
        <ele>74</ele>
        <time>2026-06-28T19:13:51.000Z</time>
      </trkpt>
      <trkpt lat="43.29995" lon="-1.51254">
        <ele>73</ele>
        <time>2026-06-28T19:13:52.000Z</time>
      </trkpt>
      <trkpt lat="43.30021" lon="-1.51235">
        <ele>70</ele>
        <time>2026-06-28T19:13:57.000Z</time>
      </trkpt>
      <trkpt lat="43.30032" lon="-1.51232">
        <ele>69</ele>
        <time>2026-06-28T19:13:59.000Z</time>
      </trkpt>
      <trkpt lat="43.30037" lon="-1.51232">
        <ele>69</ele>
        <time>2026-06-28T19:14:00.000Z</time>
      </trkpt>
      <trkpt lat="43.30047" lon="-1.51237">
        <ele>68</ele>
        <time>2026-06-28T19:14:02.000Z</time>
      </trkpt>
      <trkpt lat="43.30055" lon="-1.51243">
        <ele>68</ele>
        <time>2026-06-28T19:14:03.000Z</time>
      </trkpt>
      <trkpt lat="43.30075" lon="-1.51265">
        <ele>68</ele>
        <time>2026-06-28T19:14:08.000Z</time>
      </trkpt>
      <trkpt lat="43.30089" lon="-1.51275">
        <ele>68</ele>
        <time>2026-06-28T19:14:11.000Z</time>
      </trkpt>
      <trkpt lat="43.301" lon="-1.51279">
        <ele>68</ele>
        <time>2026-06-28T19:14:13.000Z</time>
      </trkpt>
      <trkpt lat="43.30152" lon="-1.51282">
        <ele>66</ele>
        <time>2026-06-28T19:14:22.000Z</time>
      </trkpt>
      <trkpt lat="43.30171" lon="-1.51285">
        <ele>66</ele>
        <time>2026-06-28T19:14:25.000Z</time>
      </trkpt>
      <trkpt lat="43.30183" lon="-1.5129">
        <ele>66</ele>
        <time>2026-06-28T19:14:28.000Z</time>
      </trkpt>
      <trkpt lat="43.30196" lon="-1.51297">
        <ele>66</ele>
        <time>2026-06-28T19:14:30.000Z</time>
      </trkpt>
      <trkpt lat="43.30214" lon="-1.51311">
        <ele>67</ele>
        <time>2026-06-28T19:14:34.000Z</time>
      </trkpt>
      <trkpt lat="43.30265" lon="-1.51359">
        <ele>70</ele>
        <time>2026-06-28T19:14:45.000Z</time>
      </trkpt>
      <trkpt lat="43.30355" lon="-1.51451">
        <ele>74</ele>
        <time>2026-06-28T19:15:05.000Z</time>
      </trkpt>
      <trkpt lat="43.30429" lon="-1.51531">
        <ele>71</ele>
        <time>2026-06-28T19:15:22.000Z</time>
      </trkpt>
      <trkpt lat="43.30462" lon="-1.51563">
        <ele>71</ele>
        <time>2026-06-28T19:15:29.000Z</time>
      </trkpt>
      <trkpt lat="43.30487" lon="-1.51592">
        <ele>71</ele>
        <time>2026-06-28T19:15:35.000Z</time>
      </trkpt>
      <trkpt lat="43.30536" lon="-1.51651">
        <ele>70</ele>
        <time>2026-06-28T19:15:46.000Z</time>
      </trkpt>
      <trkpt lat="43.3056" lon="-1.51683">
        <ele>71</ele>
        <time>2026-06-28T19:15:52.000Z</time>
      </trkpt>
      <trkpt lat="43.30592" lon="-1.51746">
        <ele>70</ele>
        <time>2026-06-28T19:16:02.000Z</time>
      </trkpt>
      <trkpt lat="43.30609" lon="-1.51771">
        <ele>70</ele>
        <time>2026-06-28T19:16:06.000Z</time>
      </trkpt>
      <trkpt lat="43.30674" lon="-1.51851">
        <ele>68</ele>
        <time>2026-06-28T19:16:22.000Z</time>
      </trkpt>
      <trkpt lat="43.30684" lon="-1.51868">
        <ele>67</ele>
        <time>2026-06-28T19:16:25.000Z</time>
      </trkpt>
      <trkpt lat="43.30691" lon="-1.51887">
        <ele>67</ele>
        <time>2026-06-28T19:16:28.000Z</time>
      </trkpt>
      <trkpt lat="43.30712" lon="-1.51968">
        <ele>65</ele>
        <time>2026-06-28T19:16:39.000Z</time>
      </trkpt>
      <trkpt lat="43.3072" lon="-1.52004">
        <ele>64</ele>
        <time>2026-06-28T19:16:44.000Z</time>
      </trkpt>
      <trkpt lat="43.30722" lon="-1.52042">
        <ele>63</ele>
        <time>2026-06-28T19:16:48.000Z</time>
      </trkpt>
      <trkpt lat="43.30721" lon="-1.52054">
        <ele>63</ele>
        <time>2026-06-28T19:16:50.000Z</time>
      </trkpt>
      <trkpt lat="43.30715" lon="-1.52079">
        <ele>63</ele>
        <time>2026-06-28T19:16:53.000Z</time>
      </trkpt>
      <trkpt lat="43.30712" lon="-1.52091">
        <ele>63</ele>
        <time>2026-06-28T19:16:55.000Z</time>
      </trkpt>
      <trkpt lat="43.30701" lon="-1.52112">
        <ele>62</ele>
        <time>2026-06-28T19:16:58.000Z</time>
      </trkpt>
      <trkpt lat="43.30687" lon="-1.52129">
        <ele>62</ele>
        <time>2026-06-28T19:17:02.000Z</time>
      </trkpt>
      <trkpt lat="43.3064" lon="-1.52178">
        <ele>62</ele>
        <time>2026-06-28T19:17:12.000Z</time>
      </trkpt>
      <trkpt lat="43.30633" lon="-1.52189">
        <ele>62</ele>
        <time>2026-06-28T19:17:14.000Z</time>
      </trkpt>
      <trkpt lat="43.30625" lon="-1.5221">
        <ele>61</ele>
        <time>2026-06-28T19:17:17.000Z</time>
      </trkpt>
      <trkpt lat="43.30624" lon="-1.52221">
        <ele>60</ele>
        <time>2026-06-28T19:17:19.000Z</time>
      </trkpt>
      <trkpt lat="43.30623" lon="-1.52246">
        <ele>59</ele>
        <time>2026-06-28T19:17:22.000Z</time>
      </trkpt>
      <trkpt lat="43.30628" lon="-1.52342">
        <ele>57</ele>
        <time>2026-06-28T19:17:34.000Z</time>
      </trkpt>
      <trkpt lat="43.30624" lon="-1.52417">
        <ele>60</ele>
        <time>2026-06-28T19:17:44.000Z</time>
      </trkpt>
      <trkpt lat="43.30627" lon="-1.52449">
        <ele>59</ele>
        <time>2026-06-28T19:17:48.000Z</time>
      </trkpt>
      <trkpt lat="43.30649" lon="-1.52538">
        <ele>57</ele>
        <time>2026-06-28T19:18:00.000Z</time>
      </trkpt>
      <trkpt lat="43.30659" lon="-1.52565">
        <ele>55</ele>
        <time>2026-06-28T19:18:04.000Z</time>
      </trkpt>
      <trkpt lat="43.30672" lon="-1.5259">
        <ele>55</ele>
        <time>2026-06-28T19:18:08.000Z</time>
      </trkpt>
      <trkpt lat="43.30678" lon="-1.52597">
        <ele>56</ele>
        <time>2026-06-28T19:18:10.000Z</time>
      </trkpt>
      <trkpt lat="43.30708" lon="-1.52626">
        <ele>58</ele>
        <time>2026-06-28T19:18:16.000Z</time>
      </trkpt>
      <trkpt lat="43.30736" lon="-1.5266">
        <ele>57</ele>
        <time>2026-06-28T19:18:23.000Z</time>
      </trkpt>
      <trkpt lat="43.30797" lon="-1.5272">
        <ele>56</ele>
        <time>2026-06-28T19:18:36.000Z</time>
      </trkpt>
      <trkpt lat="43.30824" lon="-1.52735">
        <ele>56</ele>
        <time>2026-06-28T19:18:41.000Z</time>
      </trkpt>
      <trkpt lat="43.30868" lon="-1.52745">
        <ele>58</ele>
        <time>2026-06-28T19:18:49.000Z</time>
      </trkpt>
      <trkpt lat="43.30882" lon="-1.5275">
        <ele>58</ele>
        <time>2026-06-28T19:18:52.000Z</time>
      </trkpt>
      <trkpt lat="43.30902" lon="-1.52761">
        <ele>58</ele>
        <time>2026-06-28T19:18:56.000Z</time>
      </trkpt>
      <trkpt lat="43.3092" lon="-1.52778">
        <ele>58</ele>
        <time>2026-06-28T19:19:00.000Z</time>
      </trkpt>
      <trkpt lat="43.30949" lon="-1.52811">
        <ele>56</ele>
        <time>2026-06-28T19:19:06.000Z</time>
      </trkpt>
      <trkpt lat="43.30962" lon="-1.52837">
        <ele>54</ele>
        <time>2026-06-28T19:19:10.000Z</time>
      </trkpt>
      <trkpt lat="43.30974" lon="-1.52875">
        <ele>53</ele>
        <time>2026-06-28T19:19:16.000Z</time>
      </trkpt>
      <trkpt lat="43.30982" lon="-1.52893">
        <ele>53</ele>
        <time>2026-06-28T19:19:19.000Z</time>
      </trkpt>
      <trkpt lat="43.30997" lon="-1.52917">
        <ele>52</ele>
        <time>2026-06-28T19:19:23.000Z</time>
      </trkpt>
      <trkpt lat="43.31009" lon="-1.5293">
        <ele>52</ele>
        <time>2026-06-28T19:19:25.000Z</time>
      </trkpt>
      <trkpt lat="43.31024" lon="-1.5294">
        <ele>52</ele>
        <time>2026-06-28T19:19:28.000Z</time>
      </trkpt>
      <trkpt lat="43.31039" lon="-1.52947">
        <ele>52</ele>
        <time>2026-06-28T19:19:31.000Z</time>
      </trkpt>
      <trkpt lat="43.31054" lon="-1.52952">
        <ele>51</ele>
        <time>2026-06-28T19:19:34.000Z</time>
      </trkpt>
      <trkpt lat="43.31079" lon="-1.52957">
        <ele>52</ele>
        <time>2026-06-28T19:19:38.000Z</time>
      </trkpt>
      <trkpt lat="43.31087" lon="-1.5296">
        <ele>52</ele>
        <time>2026-06-28T19:19:40.000Z</time>
      </trkpt>
      <trkpt lat="43.31102" lon="-1.52969">
        <ele>52</ele>
        <time>2026-06-28T19:19:43.000Z</time>
      </trkpt>
      <trkpt lat="43.31116" lon="-1.52981">
        <ele>51</ele>
        <time>2026-06-28T19:19:46.000Z</time>
      </trkpt>
      <trkpt lat="43.31138" lon="-1.52994">
        <ele>50</ele>
        <time>2026-06-28T19:19:50.000Z</time>
      </trkpt>
      <trkpt lat="43.31161" lon="-1.53001">
        <ele>50</ele>
        <time>2026-06-28T19:19:54.000Z</time>
      </trkpt>
      <trkpt lat="43.31176" lon="-1.53004">
        <ele>50</ele>
        <time>2026-06-28T19:19:57.000Z</time>
      </trkpt>
      <trkpt lat="43.31191" lon="-1.53004">
        <ele>50</ele>
        <time>2026-06-28T19:20:00.000Z</time>
      </trkpt>
      <trkpt lat="43.31209" lon="-1.53">
        <ele>50</ele>
        <time>2026-06-28T19:20:03.000Z</time>
      </trkpt>
      <trkpt lat="43.31228" lon="-1.5299">
        <ele>51</ele>
        <time>2026-06-28T19:20:06.000Z</time>
      </trkpt>
      <trkpt lat="43.31266" lon="-1.52955">
        <ele>55</ele>
        <time>2026-06-28T19:20:15.000Z</time>
      </trkpt>
      <trkpt lat="43.31287" lon="-1.52941">
        <ele>56</ele>
        <time>2026-06-28T19:20:19.000Z</time>
      </trkpt>
      <trkpt lat="43.3131" lon="-1.52935">
        <ele>57</ele>
        <time>2026-06-28T19:20:23.000Z</time>
      </trkpt>
      <trkpt lat="43.31327" lon="-1.52933">
        <ele>58</ele>
        <time>2026-06-28T19:20:26.000Z</time>
      </trkpt>
      <trkpt lat="43.31354" lon="-1.5294">
        <ele>59</ele>
        <time>2026-06-28T19:20:31.000Z</time>
      </trkpt>
      <trkpt lat="43.31368" lon="-1.52948">
        <ele>60</ele>
        <time>2026-06-28T19:20:34.000Z</time>
      </trkpt>
      <trkpt lat="43.31407" lon="-1.52976">
        <ele>60</ele>
        <time>2026-06-28T19:20:41.000Z</time>
      </trkpt>
      <trkpt lat="43.31446" lon="-1.52992">
        <ele>60</ele>
        <time>2026-06-28T19:20:49.000Z</time>
      </trkpt>
      <trkpt lat="43.31471" lon="-1.52998">
        <ele>59</ele>
        <time>2026-06-28T19:20:53.000Z</time>
      </trkpt>
      <trkpt lat="43.31489" lon="-1.53001">
        <ele>59</ele>
        <time>2026-06-28T19:20:56.000Z</time>
      </trkpt>
      <trkpt lat="43.31538" lon="-1.53">
        <ele>59</ele>
        <time>2026-06-28T19:21:05.000Z</time>
      </trkpt>
      <trkpt lat="43.3156" lon="-1.53002">
        <ele>59</ele>
        <time>2026-06-28T19:21:09.000Z</time>
      </trkpt>
      <trkpt lat="43.31571" lon="-1.53004">
        <ele>59</ele>
        <time>2026-06-28T19:21:11.000Z</time>
      </trkpt>
      <trkpt lat="43.31594" lon="-1.53013">
        <ele>58</ele>
        <time>2026-06-28T19:21:15.000Z</time>
      </trkpt>
      <trkpt lat="43.31616" lon="-1.53026">
        <ele>55</ele>
        <time>2026-06-28T19:21:19.000Z</time>
      </trkpt>
      <trkpt lat="43.31635" lon="-1.53043">
        <ele>53</ele>
        <time>2026-06-28T19:21:23.000Z</time>
      </trkpt>
      <trkpt lat="43.31672" lon="-1.53095">
        <ele>50</ele>
        <time>2026-06-28T19:21:33.000Z</time>
      </trkpt>
      <trkpt lat="43.31717" lon="-1.53164">
        <ele>47</ele>
        <time>2026-06-28T19:21:45.000Z</time>
      </trkpt>
      <trkpt lat="43.31737" lon="-1.532">
        <ele>47</ele>
        <time>2026-06-28T19:21:51.000Z</time>
      </trkpt>
      <trkpt lat="43.31776" lon="-1.53254">
        <ele>47</ele>
        <time>2026-06-28T19:22:01.000Z</time>
      </trkpt>
      <trkpt lat="43.31956" lon="-1.53528">
        <ele>40</ele>
        <time>2026-06-28T19:22:48.000Z</time>
      </trkpt>
      <trkpt lat="43.31974" lon="-1.53553">
        <ele>40</ele>
        <time>2026-06-28T19:22:53.000Z</time>
      </trkpt>
      <trkpt lat="43.31984" lon="-1.53572">
        <ele>39</ele>
        <time>2026-06-28T19:22:56.000Z</time>
      </trkpt>
      <trkpt lat="43.31992" lon="-1.53593">
        <ele>39</ele>
        <time>2026-06-28T19:22:59.000Z</time>
      </trkpt>
      <trkpt lat="43.31998" lon="-1.53627">
        <ele>40</ele>
        <time>2026-06-28T19:23:04.000Z</time>
      </trkpt>
      <trkpt lat="43.32012" lon="-1.5388">
        <ele>40</ele>
        <time>2026-06-28T19:23:36.000Z</time>
      </trkpt>
      <trkpt lat="43.32012" lon="-1.53942">
        <ele>39</ele>
        <time>2026-06-28T19:23:44.000Z</time>
      </trkpt>
      <trkpt lat="43.32005" lon="-1.53978">
        <ele>38</ele>
        <time>2026-06-28T19:23:49.000Z</time>
      </trkpt>
      <trkpt lat="43.3199" lon="-1.54036">
        <ele>38</ele>
        <time>2026-06-28T19:23:57.000Z</time>
      </trkpt>
      <trkpt lat="43.31951" lon="-1.54179">
        <ele>37</ele>
        <time>2026-06-28T19:24:17.000Z</time>
      </trkpt>
      <trkpt lat="43.31913" lon="-1.54308">
        <ele>40</ele>
        <time>2026-06-28T19:24:35.000Z</time>
      </trkpt>
      <trkpt lat="43.31888" lon="-1.54407">
        <ele>42</ele>
        <time>2026-06-28T19:24:49.000Z</time>
      </trkpt>
      <trkpt lat="43.31881" lon="-1.54442">
        <ele>41</ele>
        <time>2026-06-28T19:24:53.000Z</time>
      </trkpt>
      <trkpt lat="43.31878" lon="-1.54477">
        <ele>41</ele>
        <time>2026-06-28T19:24:58.000Z</time>
      </trkpt>
      <trkpt lat="43.31878" lon="-1.545">
        <ele>41</ele>
        <time>2026-06-28T19:25:01.000Z</time>
      </trkpt>
      <trkpt lat="43.31881" lon="-1.54536">
        <ele>40</ele>
        <time>2026-06-28T19:25:06.000Z</time>
      </trkpt>
      <trkpt lat="43.31888" lon="-1.5457">
        <ele>40</ele>
        <time>2026-06-28T19:25:10.000Z</time>
      </trkpt>
      <trkpt lat="43.31895" lon="-1.54592">
        <ele>40</ele>
        <time>2026-06-28T19:25:13.000Z</time>
      </trkpt>
      <trkpt lat="43.31912" lon="-1.54632">
        <ele>39</ele>
        <time>2026-06-28T19:25:19.000Z</time>
      </trkpt>
      <trkpt lat="43.31927" lon="-1.54659">
        <ele>40</ele>
        <time>2026-06-28T19:25:24.000Z</time>
      </trkpt>
      <trkpt lat="43.31981" lon="-1.5473">
        <ele>41</ele>
        <time>2026-06-28T19:25:37.000Z</time>
      </trkpt>
      <trkpt lat="43.32113" lon="-1.54897">
        <ele>30</ele>
        <time>2026-06-28T19:26:09.000Z</time>
      </trkpt>
      <trkpt lat="43.32124" lon="-1.54913">
        <ele>30</ele>
        <time>2026-06-28T19:26:12.000Z</time>
      </trkpt>
      <trkpt lat="43.32133" lon="-1.54943">
        <ele>30</ele>
        <time>2026-06-28T19:26:16.000Z</time>
      </trkpt>
      <trkpt lat="43.32144" lon="-1.55017">
        <ele>31</ele>
        <time>2026-06-28T19:26:26.000Z</time>
      </trkpt>
      <trkpt lat="43.32151" lon="-1.5504">
        <ele>31</ele>
        <time>2026-06-28T19:26:29.000Z</time>
      </trkpt>
      <trkpt lat="43.32151" lon="-1.55048">
        <ele>31</ele>
        <time>2026-06-28T19:26:30.000Z</time>
      </trkpt>
      <trkpt lat="43.3215" lon="-1.55056">
        <ele>31</ele>
        <time>2026-06-28T19:26:31.000Z</time>
      </trkpt>
      <trkpt lat="43.32142" lon="-1.5508">
        <ele>32</ele>
        <time>2026-06-28T19:26:34.000Z</time>
      </trkpt>
      <trkpt lat="43.32124" lon="-1.55148">
        <ele>31</ele>
        <time>2026-06-28T19:26:44.000Z</time>
      </trkpt>
      <trkpt lat="43.32109" lon="-1.5522">
        <ele>32</ele>
        <time>2026-06-28T19:26:53.000Z</time>
      </trkpt>
      <trkpt lat="43.3209" lon="-1.55288">
        <ele>33</ele>
        <time>2026-06-28T19:27:03.000Z</time>
      </trkpt>
      <trkpt lat="43.32082" lon="-1.55313">
        <ele>33</ele>
        <time>2026-06-28T19:27:06.000Z</time>
      </trkpt>
      <trkpt lat="43.32063" lon="-1.55351">
        <ele>34</ele>
        <time>2026-06-28T19:27:12.000Z</time>
      </trkpt>
      <trkpt lat="43.32053" lon="-1.55363">
        <ele>35</ele>
        <time>2026-06-28T19:27:15.000Z</time>
      </trkpt>
      <trkpt lat="43.32016" lon="-1.55395">
        <ele>35</ele>
        <time>2026-06-28T19:27:23.000Z</time>
      </trkpt>
      <trkpt lat="43.32006" lon="-1.55408">
        <ele>35</ele>
        <time>2026-06-28T19:27:25.000Z</time>
      </trkpt>
      <trkpt lat="43.31999" lon="-1.55422">
        <ele>35</ele>
        <time>2026-06-28T19:27:27.000Z</time>
      </trkpt>
      <trkpt lat="43.3199" lon="-1.55452">
        <ele>35</ele>
        <time>2026-06-28T19:27:31.000Z</time>
      </trkpt>
      <trkpt lat="43.31966" lon="-1.55568">
        <ele>37</ele>
        <time>2026-06-28T19:27:47.000Z</time>
      </trkpt>
      <trkpt lat="43.31942" lon="-1.55654">
        <ele>41</ele>
        <time>2026-06-28T19:27:59.000Z</time>
      </trkpt>
      <trkpt lat="43.31937" lon="-1.55667">
        <ele>41</ele>
        <time>2026-06-28T19:28:01.000Z</time>
      </trkpt>
      <trkpt lat="43.31926" lon="-1.55685">
        <ele>42</ele>
        <time>2026-06-28T19:28:04.000Z</time>
      </trkpt>
      <trkpt lat="43.31859" lon="-1.55777">
        <ele>46</ele>
        <time>2026-06-28T19:28:21.000Z</time>
      </trkpt>
      <trkpt lat="43.31806" lon="-1.55871">
        <ele>49</ele>
        <time>2026-06-28T19:28:36.000Z</time>
      </trkpt>
      <trkpt lat="43.31777" lon="-1.55909">
        <ele>50</ele>
        <time>2026-06-28T19:28:43.000Z</time>
      </trkpt>
      <trkpt lat="43.31771" lon="-1.5592">
        <ele>50</ele>
        <time>2026-06-28T19:28:45.000Z</time>
      </trkpt>
      <trkpt lat="43.31766" lon="-1.55936">
        <ele>51</ele>
        <time>2026-06-28T19:28:47.000Z</time>
      </trkpt>
      <trkpt lat="43.31756" lon="-1.55977">
        <ele>52</ele>
        <time>2026-06-28T19:28:53.000Z</time>
      </trkpt>
      <trkpt lat="43.31747" lon="-1.55994">
        <ele>53</ele>
        <time>2026-06-28T19:28:56.000Z</time>
      </trkpt>
      <trkpt lat="43.31735" lon="-1.56008">
        <ele>54</ele>
        <time>2026-06-28T19:28:58.000Z</time>
      </trkpt>
      <trkpt lat="43.31688" lon="-1.56055">
        <ele>56</ele>
        <time>2026-06-28T19:29:09.000Z</time>
      </trkpt>
      <trkpt lat="43.31612" lon="-1.56138">
        <ele>54</ele>
        <time>2026-06-28T19:29:26.000Z</time>
      </trkpt>
      <trkpt lat="43.316" lon="-1.56148">
        <ele>54</ele>
        <time>2026-06-28T19:29:28.000Z</time>
      </trkpt>
      <trkpt lat="43.31587" lon="-1.56157">
        <ele>53</ele>
        <time>2026-06-28T19:29:31.000Z</time>
      </trkpt>
      <trkpt lat="43.31572" lon="-1.56159">
        <ele>53</ele>
        <time>2026-06-28T19:29:34.000Z</time>
      </trkpt>
      <trkpt lat="43.31564" lon="-1.56158">
        <ele>53</ele>
        <time>2026-06-28T19:29:35.000Z</time>
      </trkpt>
      <trkpt lat="43.31549" lon="-1.56152">
        <ele>52</ele>
        <time>2026-06-28T19:29:38.000Z</time>
      </trkpt>
      <trkpt lat="43.31497" lon="-1.56116">
        <ele>49</ele>
        <time>2026-06-28T19:29:48.000Z</time>
      </trkpt>
      <trkpt lat="43.31489" lon="-1.56112">
        <ele>48</ele>
        <time>2026-06-28T19:29:50.000Z</time>
      </trkpt>
      <trkpt lat="43.3148" lon="-1.56112">
        <ele>47</ele>
        <time>2026-06-28T19:29:51.000Z</time>
      </trkpt>
      <trkpt lat="43.31473" lon="-1.56115">
        <ele>47</ele>
        <time>2026-06-28T19:29:53.000Z</time>
      </trkpt>
      <trkpt lat="43.31466" lon="-1.56122">
        <ele>46</ele>
        <time>2026-06-28T19:29:54.000Z</time>
      </trkpt>
      <trkpt lat="43.31462" lon="-1.56132">
        <ele>46</ele>
        <time>2026-06-28T19:29:56.000Z</time>
      </trkpt>
      <trkpt lat="43.31448" lon="-1.56201">
        <ele>46</ele>
        <time>2026-06-28T19:30:05.000Z</time>
      </trkpt>
      <trkpt lat="43.31433" lon="-1.56247">
        <ele>44</ele>
        <time>2026-06-28T19:30:12.000Z</time>
      </trkpt>
      <trkpt lat="43.31417" lon="-1.56278">
        <ele>44</ele>
        <time>2026-06-28T19:30:16.000Z</time>
      </trkpt>
      <trkpt lat="43.31405" lon="-1.56296">
        <ele>44</ele>
        <time>2026-06-28T19:30:20.000Z</time>
      </trkpt>
      <trkpt lat="43.3139" lon="-1.56311">
        <ele>44</ele>
        <time>2026-06-28T19:30:23.000Z</time>
      </trkpt>
      <trkpt lat="43.31337" lon="-1.56354">
        <ele>44</ele>
        <time>2026-06-28T19:30:34.000Z</time>
      </trkpt>
      <trkpt lat="43.31317" lon="-1.56375">
        <ele>46</ele>
        <time>2026-06-28T19:30:38.000Z</time>
      </trkpt>
      <trkpt lat="43.31299" lon="-1.56399">
        <ele>47</ele>
        <time>2026-06-28T19:30:43.000Z</time>
      </trkpt>
      <trkpt lat="43.31259" lon="-1.56469">
        <ele>47</ele>
        <time>2026-06-28T19:30:54.000Z</time>
      </trkpt>
      <trkpt lat="43.3124" lon="-1.5649">
        <ele>47</ele>
        <time>2026-06-28T19:30:59.000Z</time>
      </trkpt>
      <trkpt lat="43.31218" lon="-1.56505">
        <ele>47</ele>
        <time>2026-06-28T19:31:03.000Z</time>
      </trkpt>
      <trkpt lat="43.31181" lon="-1.56528">
        <ele>48</ele>
        <time>2026-06-28T19:31:10.000Z</time>
      </trkpt>
      <trkpt lat="43.31074" lon="-1.5659">
        <ele>47</ele>
        <time>2026-06-28T19:31:31.000Z</time>
      </trkpt>
      <trkpt lat="43.31048" lon="-1.56611">
        <ele>47</ele>
        <time>2026-06-28T19:31:36.000Z</time>
      </trkpt>
      <trkpt lat="43.31036" lon="-1.56625">
        <ele>48</ele>
        <time>2026-06-28T19:31:39.000Z</time>
      </trkpt>
      <trkpt lat="43.31026" lon="-1.56639">
        <ele>48</ele>
        <time>2026-06-28T19:31:42.000Z</time>
      </trkpt>
      <trkpt lat="43.31007" lon="-1.56671">
        <ele>48</ele>
        <time>2026-06-28T19:31:47.000Z</time>
      </trkpt>
      <trkpt lat="43.30978" lon="-1.56725">
        <ele>50</ele>
        <time>2026-06-28T19:31:56.000Z</time>
      </trkpt>
      <trkpt lat="43.30957" lon="-1.56759">
        <ele>50</ele>
        <time>2026-06-28T19:32:01.000Z</time>
      </trkpt>
      <trkpt lat="43.30946" lon="-1.56781">
        <ele>49</ele>
        <time>2026-06-28T19:32:05.000Z</time>
      </trkpt>
      <trkpt lat="43.30936" lon="-1.56813">
        <ele>50</ele>
        <time>2026-06-28T19:32:09.000Z</time>
      </trkpt>
      <trkpt lat="43.30924" lon="-1.5687">
        <ele>50</ele>
        <time>2026-06-28T19:32:17.000Z</time>
      </trkpt>
      <trkpt lat="43.30921" lon="-1.56895">
        <ele>51</ele>
        <time>2026-06-28T19:32:20.000Z</time>
      </trkpt>
      <trkpt lat="43.30925" lon="-1.56929">
        <ele>51</ele>
        <time>2026-06-28T19:32:25.000Z</time>
      </trkpt>
      <trkpt lat="43.30936" lon="-1.56974">
        <ele>51</ele>
        <time>2026-06-28T19:32:31.000Z</time>
      </trkpt>
      <trkpt lat="43.30954" lon="-1.57018">
        <ele>50</ele>
        <time>2026-06-28T19:32:38.000Z</time>
      </trkpt>
      <trkpt lat="43.30986" lon="-1.57073">
        <ele>50</ele>
        <time>2026-06-28T19:32:47.000Z</time>
      </trkpt>
      <trkpt lat="43.30992" lon="-1.57094">
        <ele>49</ele>
        <time>2026-06-28T19:32:50.000Z</time>
      </trkpt>
      <trkpt lat="43.30991" lon="-1.57118">
        <ele>49</ele>
        <time>2026-06-28T19:32:53.000Z</time>
      </trkpt>
      <trkpt lat="43.30987" lon="-1.57143">
        <ele>48</ele>
        <time>2026-06-28T19:32:56.000Z</time>
      </trkpt>
      <trkpt lat="43.30975" lon="-1.57186">
        <ele>47</ele>
        <time>2026-06-28T19:33:02.000Z</time>
      </trkpt>
      <trkpt lat="43.30968" lon="-1.57218">
        <ele>47</ele>
        <time>2026-06-28T19:33:06.000Z</time>
      </trkpt>
      <trkpt lat="43.30962" lon="-1.57229">
        <ele>47</ele>
        <time>2026-06-28T19:33:08.000Z</time>
      </trkpt>
      <trkpt lat="43.30901" lon="-1.57259">
        <ele>48</ele>
        <time>2026-06-28T19:33:20.000Z</time>
      </trkpt>
      <trkpt lat="43.30873" lon="-1.57269">
        <ele>48</ele>
        <time>2026-06-28T19:33:25.000Z</time>
      </trkpt>
      <trkpt lat="43.3086" lon="-1.57271">
        <ele>48</ele>
        <time>2026-06-28T19:33:27.000Z</time>
      </trkpt>
      <trkpt lat="43.30838" lon="-1.57271">
        <ele>48</ele>
        <time>2026-06-28T19:33:31.000Z</time>
      </trkpt>
      <trkpt lat="43.30797" lon="-1.57267">
        <ele>48</ele>
        <time>2026-06-28T19:33:38.000Z</time>
      </trkpt>
      <trkpt lat="43.30735" lon="-1.57272">
        <ele>48</ele>
        <time>2026-06-28T19:33:49.000Z</time>
      </trkpt>
      <trkpt lat="43.30713" lon="-1.57266">
        <ele>47</ele>
        <time>2026-06-28T19:33:53.000Z</time>
      </trkpt>
      <trkpt lat="43.30687" lon="-1.57251">
        <ele>46</ele>
        <time>2026-06-28T19:33:58.000Z</time>
      </trkpt>
      <trkpt lat="43.30651" lon="-1.57242">
        <ele>45</ele>
        <time>2026-06-28T19:34:05.000Z</time>
      </trkpt>
      <trkpt lat="43.30616" lon="-1.57239">
        <ele>45</ele>
        <time>2026-06-28T19:34:11.000Z</time>
      </trkpt>
      <trkpt lat="43.30602" lon="-1.57239">
        <ele>45</ele>
        <time>2026-06-28T19:34:14.000Z</time>
      </trkpt>
      <trkpt lat="43.3059" lon="-1.57242">
        <ele>45</ele>
        <time>2026-06-28T19:34:16.000Z</time>
      </trkpt>
      <trkpt lat="43.30547" lon="-1.57264">
        <ele>47</ele>
        <time>2026-06-28T19:34:24.000Z</time>
      </trkpt>
      <trkpt lat="43.30523" lon="-1.57273">
        <ele>48</ele>
        <time>2026-06-28T19:34:28.000Z</time>
      </trkpt>
      <trkpt lat="43.30478" lon="-1.57309">
        <ele>50</ele>
        <time>2026-06-28T19:34:38.000Z</time>
      </trkpt>
      <trkpt lat="43.30421" lon="-1.57342">
        <ele>48</ele>
        <time>2026-06-28T19:34:49.000Z</time>
      </trkpt>
      <trkpt lat="43.30383" lon="-1.57376">
        <ele>52</ele>
        <time>2026-06-28T19:34:57.000Z</time>
      </trkpt>
      <trkpt lat="43.30331" lon="-1.57438">
        <ele>53</ele>
        <time>2026-06-28T19:35:09.000Z</time>
      </trkpt>
      <trkpt lat="43.30321" lon="-1.57449">
        <ele>53</ele>
        <time>2026-06-28T19:35:11.000Z</time>
      </trkpt>
      <trkpt lat="43.30303" lon="-1.57459">
        <ele>53</ele>
        <time>2026-06-28T19:35:15.000Z</time>
      </trkpt>
      <trkpt lat="43.30262" lon="-1.57467">
        <ele>50</ele>
        <time>2026-06-28T19:35:22.000Z</time>
      </trkpt>
      <trkpt lat="43.30256" lon="-1.57476">
        <ele>50</ele>
        <time>2026-06-28T19:35:24.000Z</time>
      </trkpt>
      <trkpt lat="43.30254" lon="-1.57489">
        <ele>50</ele>
        <time>2026-06-28T19:35:25.000Z</time>
      </trkpt>
      <trkpt lat="43.30254" lon="-1.57501">
        <ele>50</ele>
        <time>2026-06-28T19:35:27.000Z</time>
      </trkpt>
      <trkpt lat="43.30263" lon="-1.57554">
        <ele>52</ele>
        <time>2026-06-28T19:35:34.000Z</time>
      </trkpt>
      <trkpt lat="43.30271" lon="-1.57583">
        <ele>54</ele>
        <time>2026-06-28T19:35:38.000Z</time>
      </trkpt>
      <trkpt lat="43.30295" lon="-1.57641">
        <ele>56</ele>
        <time>2026-06-28T19:35:47.000Z</time>
      </trkpt>
      <trkpt lat="43.30306" lon="-1.57658">
        <ele>57</ele>
        <time>2026-06-28T19:35:50.000Z</time>
      </trkpt>
      <trkpt lat="43.30324" lon="-1.57675">
        <ele>59</ele>
        <time>2026-06-28T19:35:53.000Z</time>
      </trkpt>
      <trkpt lat="43.3033" lon="-1.57681">
        <ele>60</ele>
        <time>2026-06-28T19:35:55.000Z</time>
      </trkpt>
      <trkpt lat="43.3034" lon="-1.57705">
        <ele>63</ele>
        <time>2026-06-28T19:35:58.000Z</time>
      </trkpt>
      <trkpt lat="43.30342" lon="-1.57721">
        <ele>65</ele>
        <time>2026-06-28T19:36:00.000Z</time>
      </trkpt>
      <trkpt lat="43.30342" lon="-1.57757">
        <ele>67</ele>
        <time>2026-06-28T19:36:05.000Z</time>
      </trkpt>
      <trkpt lat="43.30349" lon="-1.57798">
        <ele>68</ele>
        <time>2026-06-28T19:36:11.000Z</time>
      </trkpt>
      <trkpt lat="43.30355" lon="-1.57817">
        <ele>69</ele>
        <time>2026-06-28T19:36:13.000Z</time>
      </trkpt>
      <trkpt lat="43.30394" lon="-1.57868">
        <ele>72</ele>
        <time>2026-06-28T19:36:23.000Z</time>
      </trkpt>
      <trkpt lat="43.30418" lon="-1.57888">
        <ele>74</ele>
        <time>2026-06-28T19:36:28.000Z</time>
      </trkpt>
      <trkpt lat="43.30478" lon="-1.57954">
        <ele>79</ele>
        <time>2026-06-28T19:36:41.000Z</time>
      </trkpt>
      <trkpt lat="43.30498" lon="-1.57983">
        <ele>79</ele>
        <time>2026-06-28T19:36:47.000Z</time>
      </trkpt>
      <trkpt lat="43.30526" lon="-1.58035">
        <ele>83</ele>
        <time>2026-06-28T19:36:55.000Z</time>
      </trkpt>
      <trkpt lat="43.30569" lon="-1.58082">
        <ele>85</ele>
        <time>2026-06-28T19:37:05.000Z</time>
      </trkpt>
      <trkpt lat="43.30572" lon="-1.58087">
        <ele>85</ele>
        <time>2026-06-28T19:37:06.000Z</time>
      </trkpt>
      <trkpt lat="43.30574" lon="-1.581">
        <ele>85</ele>
        <time>2026-06-28T19:37:07.000Z</time>
      </trkpt>
      <trkpt lat="43.30572" lon="-1.58113">
        <ele>85</ele>
        <time>2026-06-28T19:37:09.000Z</time>
      </trkpt>
      <trkpt lat="43.30552" lon="-1.58177">
        <ele>85</ele>
        <time>2026-06-28T19:37:18.000Z</time>
      </trkpt>
      <trkpt lat="43.30539" lon="-1.58205">
        <ele>86</ele>
        <time>2026-06-28T19:37:22.000Z</time>
      </trkpt>
      <trkpt lat="43.30534" lon="-1.58222">
        <ele>86</ele>
        <time>2026-06-28T19:37:25.000Z</time>
      </trkpt>
      <trkpt lat="43.30525" lon="-1.58237">
        <ele>87</ele>
        <time>2026-06-28T19:37:27.000Z</time>
      </trkpt>
      <trkpt lat="43.30511" lon="-1.58257">
        <ele>88</ele>
        <time>2026-06-28T19:37:31.000Z</time>
      </trkpt>
      <trkpt lat="43.30493" lon="-1.5829">
        <ele>89</ele>
        <time>2026-06-28T19:37:36.000Z</time>
      </trkpt>
      <trkpt lat="43.30487" lon="-1.58296">
        <ele>89</ele>
        <time>2026-06-28T19:37:38.000Z</time>
      </trkpt>
      <trkpt lat="43.30436" lon="-1.58412">
        <ele>92</ele>
        <time>2026-06-28T19:37:55.000Z</time>
      </trkpt>
      <trkpt lat="43.30414" lon="-1.58486">
        <ele>93</ele>
        <time>2026-06-28T19:38:05.000Z</time>
      </trkpt>
      <trkpt lat="43.30396" lon="-1.58572">
        <ele>93</ele>
        <time>2026-06-28T19:38:17.000Z</time>
      </trkpt>
      <trkpt lat="43.30388" lon="-1.58592">
        <ele>92</ele>
        <time>2026-06-28T19:38:20.000Z</time>
      </trkpt>
      <trkpt lat="43.30339" lon="-1.58657">
        <ele>93</ele>
        <time>2026-06-28T19:38:32.000Z</time>
      </trkpt>
      <trkpt lat="43.30313" lon="-1.58689">
        <ele>91</ele>
        <time>2026-06-28T19:38:38.000Z</time>
      </trkpt>
      <trkpt lat="43.30287" lon="-1.58719">
        <ele>91</ele>
        <time>2026-06-28T19:38:44.000Z</time>
      </trkpt>
      <trkpt lat="43.3026" lon="-1.58746">
        <ele>92</ele>
        <time>2026-06-28T19:38:50.000Z</time>
      </trkpt>
      <trkpt lat="43.30248" lon="-1.58763">
        <ele>94</ele>
        <time>2026-06-28T19:38:53.000Z</time>
      </trkpt>
      <trkpt lat="43.30227" lon="-1.58786">
        <ele>94</ele>
        <time>2026-06-28T19:38:58.000Z</time>
      </trkpt>
      <trkpt lat="43.30217" lon="-1.588">
        <ele>94</ele>
        <time>2026-06-28T19:39:01.000Z</time>
      </trkpt>
      <trkpt lat="43.30211" lon="-1.58811">
        <ele>95</ele>
        <time>2026-06-28T19:39:02.000Z</time>
      </trkpt>
      <trkpt lat="43.30204" lon="-1.58831">
        <ele>96</ele>
        <time>2026-06-28T19:39:05.000Z</time>
      </trkpt>
      <trkpt lat="43.30197" lon="-1.58884">
        <ele>99</ele>
        <time>2026-06-28T19:39:12.000Z</time>
      </trkpt>
      <trkpt lat="43.30184" lon="-1.58951">
        <ele>101</ele>
        <time>2026-06-28T19:39:21.000Z</time>
      </trkpt>
      <trkpt lat="43.30175" lon="-1.58979">
        <ele>102</ele>
        <time>2026-06-28T19:39:25.000Z</time>
      </trkpt>
      <trkpt lat="43.3016" lon="-1.5901">
        <ele>103</ele>
        <time>2026-06-28T19:39:30.000Z</time>
      </trkpt>
      <trkpt lat="43.30141" lon="-1.59035">
        <ele>103</ele>
        <time>2026-06-28T19:39:35.000Z</time>
      </trkpt>
      <trkpt lat="43.30113" lon="-1.59055">
        <ele>103</ele>
        <time>2026-06-28T19:39:40.000Z</time>
      </trkpt>
      <trkpt lat="43.30104" lon="-1.5906">
        <ele>104</ele>
        <time>2026-06-28T19:39:42.000Z</time>
      </trkpt>
      <trkpt lat="43.30106" lon="-1.5905">
        <ele>103</ele>
        <time>2026-06-28T19:39:43.000Z</time>
      </trkpt>
      <trkpt lat="43.30102" lon="-1.59039">
        <ele>103</ele>
        <time>2026-06-28T19:39:45.000Z</time>
      </trkpt>
      <trkpt lat="43.30062" lon="-1.58993">
        <ele>102</ele>
        <time>2026-06-28T19:39:54.000Z</time>
      </trkpt>
      <trkpt lat="43.3005" lon="-1.58981">
        <ele>102</ele>
        <time>2026-06-28T19:39:57.000Z</time>
      </trkpt>
      <trkpt lat="43.30024" lon="-1.58966">
        <ele>101</ele>
        <time>2026-06-28T19:40:02.000Z</time>
      </trkpt>
      <trkpt lat="43.29975" lon="-1.58947">
        <ele>99</ele>
        <time>2026-06-28T19:40:11.000Z</time>
      </trkpt>
      <trkpt lat="43.29937" lon="-1.58937">
        <ele>99</ele>
        <time>2026-06-28T19:40:18.000Z</time>
      </trkpt>
      <trkpt lat="43.29917" lon="-1.58935">
        <ele>99</ele>
        <time>2026-06-28T19:40:21.000Z</time>
      </trkpt>
      <trkpt lat="43.29829" lon="-1.58955">
        <ele>93</ele>
        <time>2026-06-28T19:40:37.000Z</time>
      </trkpt>
      <trkpt lat="43.29802" lon="-1.58964">
        <ele>91</ele>
        <time>2026-06-28T19:40:42.000Z</time>
      </trkpt>
      <trkpt lat="43.29785" lon="-1.58974">
        <ele>90</ele>
        <time>2026-06-28T19:40:46.000Z</time>
      </trkpt>
      <trkpt lat="43.29768" lon="-1.58988">
        <ele>89</ele>
        <time>2026-06-28T19:40:49.000Z</time>
      </trkpt>
      <trkpt lat="43.2976" lon="-1.58996">
        <ele>89</ele>
        <time>2026-06-28T19:40:51.000Z</time>
      </trkpt>
      <trkpt lat="43.29738" lon="-1.59026">
        <ele>89</ele>
        <time>2026-06-28T19:40:56.000Z</time>
      </trkpt>
      <trkpt lat="43.29722" lon="-1.59043">
        <ele>89</ele>
        <time>2026-06-28T19:41:00.000Z</time>
      </trkpt>
      <trkpt lat="43.29703" lon="-1.59058">
        <ele>88</ele>
        <time>2026-06-28T19:41:04.000Z</time>
      </trkpt>
      <trkpt lat="43.29609" lon="-1.59122">
        <ele>86</ele>
        <time>2026-06-28T19:41:23.000Z</time>
      </trkpt>
      <trkpt lat="43.29572" lon="-1.59149">
        <ele>85</ele>
        <time>2026-06-28T19:41:30.000Z</time>
      </trkpt>
      <trkpt lat="43.29539" lon="-1.59179">
        <ele>87</ele>
        <time>2026-06-28T19:41:37.000Z</time>
      </trkpt>
      <trkpt lat="43.29493" lon="-1.59226">
        <ele>89</ele>
        <time>2026-06-28T19:41:47.000Z</time>
      </trkpt>
      <trkpt lat="43.29471" lon="-1.59243">
        <ele>90</ele>
        <time>2026-06-28T19:41:52.000Z</time>
      </trkpt>
      <trkpt lat="43.29449" lon="-1.59257">
        <ele>92</ele>
        <time>2026-06-28T19:41:56.000Z</time>
      </trkpt>
      <trkpt lat="43.29401" lon="-1.59275">
        <ele>97</ele>
        <time>2026-06-28T19:42:05.000Z</time>
      </trkpt>
      <trkpt lat="43.29384" lon="-1.59283">
        <ele>98</ele>
        <time>2026-06-28T19:42:08.000Z</time>
      </trkpt>
      <trkpt lat="43.29366" lon="-1.59298">
        <ele>100</ele>
        <time>2026-06-28T19:42:12.000Z</time>
      </trkpt>
      <trkpt lat="43.29346" lon="-1.59322">
        <ele>101</ele>
        <time>2026-06-28T19:42:17.000Z</time>
      </trkpt>
      <trkpt lat="43.29337" lon="-1.59331">
        <ele>101</ele>
        <time>2026-06-28T19:42:19.000Z</time>
      </trkpt>
      <trkpt lat="43.29326" lon="-1.59336">
        <ele>102</ele>
        <time>2026-06-28T19:42:21.000Z</time>
      </trkpt>
      <trkpt lat="43.29295" lon="-1.59348">
        <ele>106</ele>
        <time>2026-06-28T19:42:26.000Z</time>
      </trkpt>
      <trkpt lat="43.2928" lon="-1.59355">
        <ele>108</ele>
        <time>2026-06-28T19:42:29.000Z</time>
      </trkpt>
      <trkpt lat="43.29261" lon="-1.59369">
        <ele>112</ele>
        <time>2026-06-28T19:42:33.000Z</time>
      </trkpt>
      <trkpt lat="43.29237" lon="-1.59389">
        <ele>117</ele>
        <time>2026-06-28T19:42:38.000Z</time>
      </trkpt>
      <trkpt lat="43.29206" lon="-1.59411">
        <ele>118</ele>
        <time>2026-06-28T19:42:44.000Z</time>
      </trkpt>
      <trkpt lat="43.29187" lon="-1.59427">
        <ele>119</ele>
        <time>2026-06-28T19:42:48.000Z</time>
      </trkpt>
      <trkpt lat="43.29163" lon="-1.59452">
        <ele>122</ele>
        <time>2026-06-28T19:42:54.000Z</time>
      </trkpt>
      <trkpt lat="43.29113" lon="-1.5952">
        <ele>126</ele>
        <time>2026-06-28T19:43:06.000Z</time>
      </trkpt>
      <trkpt lat="43.29097" lon="-1.59532">
        <ele>124</ele>
        <time>2026-06-28T19:43:09.000Z</time>
      </trkpt>
      <trkpt lat="43.2908" lon="-1.59538">
        <ele>121</ele>
        <time>2026-06-28T19:43:12.000Z</time>
      </trkpt>
      <trkpt lat="43.29059" lon="-1.59548">
        <ele>120</ele>
        <time>2026-06-28T19:43:16.000Z</time>
      </trkpt>
      <trkpt lat="43.29044" lon="-1.5956">
        <ele>120</ele>
        <time>2026-06-28T19:43:19.000Z</time>
      </trkpt>
      <trkpt lat="43.29037" lon="-1.5957">
        <ele>121</ele>
        <time>2026-06-28T19:43:21.000Z</time>
      </trkpt>
      <trkpt lat="43.2903" lon="-1.59583">
        <ele>122</ele>
        <time>2026-06-28T19:43:23.000Z</time>
      </trkpt>
      <trkpt lat="43.29024" lon="-1.59605">
        <ele>123</ele>
        <time>2026-06-28T19:43:26.000Z</time>
      </trkpt>
      <trkpt lat="43.29016" lon="-1.59672">
        <ele>130</ele>
        <time>2026-06-28T19:43:35.000Z</time>
      </trkpt>
      <trkpt lat="43.29013" lon="-1.59688">
        <ele>133</ele>
        <time>2026-06-28T19:43:37.000Z</time>
      </trkpt>
      <trkpt lat="43.29007" lon="-1.59703">
        <ele>134</ele>
        <time>2026-06-28T19:43:40.000Z</time>
      </trkpt>
      <trkpt lat="43.2899" lon="-1.5973">
        <ele>137</ele>
        <time>2026-06-28T19:43:44.000Z</time>
      </trkpt>
      <trkpt lat="43.28903" lon="-1.5981">
        <ele>131</ele>
        <time>2026-06-28T19:44:03.000Z</time>
      </trkpt>
      <trkpt lat="43.28877" lon="-1.59845">
        <ele>129</ele>
        <time>2026-06-28T19:44:09.000Z</time>
      </trkpt>
      <trkpt lat="43.28851" lon="-1.59892">
        <ele>127</ele>
        <time>2026-06-28T19:44:17.000Z</time>
      </trkpt>
      <trkpt lat="43.2881" lon="-1.59982">
        <ele>126</ele>
        <time>2026-06-28T19:44:31.000Z</time>
      </trkpt>
      <trkpt lat="43.28799" lon="-1.60008">
        <ele>126</ele>
        <time>2026-06-28T19:44:35.000Z</time>
      </trkpt>
      <trkpt lat="43.28772" lon="-1.60088">
        <ele>127</ele>
        <time>2026-06-28T19:44:46.000Z</time>
      </trkpt>
      <trkpt lat="43.28755" lon="-1.60128">
        <ele>129</ele>
        <time>2026-06-28T19:44:52.000Z</time>
      </trkpt>
      <trkpt lat="43.28731" lon="-1.60173">
        <ele>129</ele>
        <time>2026-06-28T19:44:59.000Z</time>
      </trkpt>
      <trkpt lat="43.28651" lon="-1.60291">
        <ele>120</ele>
        <time>2026-06-28T19:45:20.000Z</time>
      </trkpt>
      <trkpt lat="43.28638" lon="-1.60313">
        <ele>120</ele>
        <time>2026-06-28T19:45:24.000Z</time>
      </trkpt>
      <trkpt lat="43.28624" lon="-1.6035">
        <ele>119</ele>
        <time>2026-06-28T19:45:29.000Z</time>
      </trkpt>
      <trkpt lat="43.28612" lon="-1.60409">
        <ele>120</ele>
        <time>2026-06-28T19:45:37.000Z</time>
      </trkpt>
      <trkpt lat="43.2861" lon="-1.60442">
        <ele>119</ele>
        <time>2026-06-28T19:45:41.000Z</time>
      </trkpt>
      <trkpt lat="43.28613" lon="-1.60502">
        <ele>119</ele>
        <time>2026-06-28T19:45:49.000Z</time>
      </trkpt>
      <trkpt lat="43.28611" lon="-1.60524">
        <ele>121</ele>
        <time>2026-06-28T19:45:52.000Z</time>
      </trkpt>
      <trkpt lat="43.28605" lon="-1.60544">
        <ele>122</ele>
        <time>2026-06-28T19:45:55.000Z</time>
      </trkpt>
      <trkpt lat="43.28597" lon="-1.60564">
        <ele>122</ele>
        <time>2026-06-28T19:45:58.000Z</time>
      </trkpt>
      <trkpt lat="43.28582" lon="-1.60588">
        <ele>122</ele>
        <time>2026-06-28T19:46:02.000Z</time>
      </trkpt>
      <trkpt lat="43.28571" lon="-1.60602">
        <ele>124</ele>
        <time>2026-06-28T19:46:05.000Z</time>
      </trkpt>
      <trkpt lat="43.28529" lon="-1.60652">
        <ele>126</ele>
        <time>2026-06-28T19:46:14.000Z</time>
      </trkpt>
      <trkpt lat="43.28523" lon="-1.60662">
        <ele>126</ele>
        <time>2026-06-28T19:46:16.000Z</time>
      </trkpt>
      <trkpt lat="43.28506" lon="-1.60696">
        <ele>125</ele>
        <time>2026-06-28T19:46:21.000Z</time>
      </trkpt>
      <trkpt lat="43.28502" lon="-1.60722">
        <ele>125</ele>
        <time>2026-06-28T19:46:25.000Z</time>
      </trkpt>
      <trkpt lat="43.28502" lon="-1.60767">
        <ele>124</ele>
        <time>2026-06-28T19:46:31.000Z</time>
      </trkpt>
      <trkpt lat="43.28505" lon="-1.60808">
        <ele>124</ele>
        <time>2026-06-28T19:46:36.000Z</time>
      </trkpt>
      <trkpt lat="43.28514" lon="-1.60875">
        <ele>126</ele>
        <time>2026-06-28T19:46:45.000Z</time>
      </trkpt>
      <trkpt lat="43.28515" lon="-1.60891">
        <ele>127</ele>
        <time>2026-06-28T19:46:47.000Z</time>
      </trkpt>
      <trkpt lat="43.28513" lon="-1.60912">
        <ele>127</ele>
        <time>2026-06-28T19:46:50.000Z</time>
      </trkpt>
      <trkpt lat="43.28507" lon="-1.60932">
        <ele>127</ele>
        <time>2026-06-28T19:46:53.000Z</time>
      </trkpt>
      <trkpt lat="43.28502" lon="-1.60943">
        <ele>128</ele>
        <time>2026-06-28T19:46:54.000Z</time>
      </trkpt>
      <trkpt lat="43.2849" lon="-1.60959">
        <ele>130</ele>
        <time>2026-06-28T19:46:57.000Z</time>
      </trkpt>
      <trkpt lat="43.28465" lon="-1.60986">
        <ele>135</ele>
        <time>2026-06-28T19:47:03.000Z</time>
      </trkpt>
      <trkpt lat="43.28446" lon="-1.6101">
        <ele>138</ele>
        <time>2026-06-28T19:47:07.000Z</time>
      </trkpt>
      <trkpt lat="43.28437" lon="-1.61027">
        <ele>139</ele>
        <time>2026-06-28T19:47:10.000Z</time>
      </trkpt>
      <trkpt lat="43.2843" lon="-1.61045">
        <ele>139</ele>
        <time>2026-06-28T19:47:13.000Z</time>
      </trkpt>
      <trkpt lat="43.28425" lon="-1.6107">
        <ele>139</ele>
        <time>2026-06-28T19:47:16.000Z</time>
      </trkpt>
      <trkpt lat="43.28413" lon="-1.61151">
        <ele>138</ele>
        <time>2026-06-28T19:47:27.000Z</time>
      </trkpt>
      <trkpt lat="43.28408" lon="-1.61202">
        <ele>140</ele>
        <time>2026-06-28T19:47:34.000Z</time>
      </trkpt>
      <trkpt lat="43.28404" lon="-1.61224">
        <ele>142</ele>
        <time>2026-06-28T19:47:36.000Z</time>
      </trkpt>
      <trkpt lat="43.28394" lon="-1.61265">
        <ele>146</ele>
        <time>2026-06-28T19:47:42.000Z</time>
      </trkpt>
      <trkpt lat="43.28382" lon="-1.61303">
        <ele>149</ele>
        <time>2026-06-28T19:47:47.000Z</time>
      </trkpt>
      <trkpt lat="43.28377" lon="-1.61334">
        <ele>150</ele>
        <time>2026-06-28T19:47:52.000Z</time>
      </trkpt>
      <trkpt lat="43.28376" lon="-1.61362">
        <ele>149</ele>
        <time>2026-06-28T19:47:55.000Z</time>
      </trkpt>
      <trkpt lat="43.28379" lon="-1.61388">
        <ele>147</ele>
        <time>2026-06-28T19:47:59.000Z</time>
      </trkpt>
      <trkpt lat="43.28386" lon="-1.61418">
        <ele>146</ele>
        <time>2026-06-28T19:48:03.000Z</time>
      </trkpt>
      <trkpt lat="43.28388" lon="-1.6144">
        <ele>147</ele>
        <time>2026-06-28T19:48:06.000Z</time>
      </trkpt>
      <trkpt lat="43.28384" lon="-1.61467">
        <ele>148</ele>
        <time>2026-06-28T19:48:09.000Z</time>
      </trkpt>
      <trkpt lat="43.28374" lon="-1.615">
        <ele>147</ele>
        <time>2026-06-28T19:48:14.000Z</time>
      </trkpt>
      <trkpt lat="43.28364" lon="-1.61545">
        <ele>148</ele>
        <time>2026-06-28T19:48:20.000Z</time>
      </trkpt>
      <trkpt lat="43.28365" lon="-1.6157">
        <ele>149</ele>
        <time>2026-06-28T19:48:23.000Z</time>
      </trkpt>
      <trkpt lat="43.28371" lon="-1.61601">
        <ele>151</ele>
        <time>2026-06-28T19:48:27.000Z</time>
      </trkpt>
      <trkpt lat="43.28384" lon="-1.61638">
        <ele>153</ele>
        <time>2026-06-28T19:48:33.000Z</time>
      </trkpt>
      <trkpt lat="43.28412" lon="-1.61694">
        <ele>152</ele>
        <time>2026-06-28T19:48:41.000Z</time>
      </trkpt>
      <trkpt lat="43.28425" lon="-1.61729">
        <ele>151</ele>
        <time>2026-06-28T19:48:46.000Z</time>
      </trkpt>
      <trkpt lat="43.28442" lon="-1.61792">
        <ele>152</ele>
        <time>2026-06-28T19:48:55.000Z</time>
      </trkpt>
      <trkpt lat="43.28469" lon="-1.61878">
        <ele>151</ele>
        <time>2026-06-28T19:49:07.000Z</time>
      </trkpt>
      <trkpt lat="43.28472" lon="-1.61896">
        <ele>150</ele>
        <time>2026-06-28T19:49:10.000Z</time>
      </trkpt>
      <trkpt lat="43.28475" lon="-1.61927">
        <ele>149</ele>
        <time>2026-06-28T19:49:14.000Z</time>
      </trkpt>
      <trkpt lat="43.28469" lon="-1.62067">
        <ele>153</ele>
        <time>2026-06-28T19:49:32.000Z</time>
      </trkpt>
      <trkpt lat="43.28459" lon="-1.62177">
        <ele>157</ele>
        <time>2026-06-28T19:49:46.000Z</time>
      </trkpt>
      <trkpt lat="43.28458" lon="-1.62198">
        <ele>157</ele>
        <time>2026-06-28T19:49:49.000Z</time>
      </trkpt>
      <trkpt lat="43.28464" lon="-1.62249">
        <ele>159</ele>
        <time>2026-06-28T19:49:56.000Z</time>
      </trkpt>
      <trkpt lat="43.2846" lon="-1.62353">
        <ele>167</ele>
        <time>2026-06-28T19:50:09.000Z</time>
      </trkpt>
      <trkpt lat="43.28453" lon="-1.62452">
        <ele>173</ele>
        <time>2026-06-28T19:50:22.000Z</time>
      </trkpt>
      <trkpt lat="43.28442" lon="-1.6252">
        <ele>177</ele>
        <time>2026-06-28T19:50:31.000Z</time>
      </trkpt>
      <trkpt lat="43.28425" lon="-1.6259">
        <ele>180</ele>
        <time>2026-06-28T19:50:41.000Z</time>
      </trkpt>
      <trkpt lat="43.28415" lon="-1.62611">
        <ele>180</ele>
        <time>2026-06-28T19:50:44.000Z</time>
      </trkpt>
      <trkpt lat="43.28375" lon="-1.62663">
        <ele>183</ele>
        <time>2026-06-28T19:50:54.000Z</time>
      </trkpt>
      <trkpt lat="43.28357" lon="-1.6268">
        <ele>183</ele>
        <time>2026-06-28T19:50:58.000Z</time>
      </trkpt>
      <trkpt lat="43.28338" lon="-1.62707">
        <ele>183</ele>
        <time>2026-06-28T19:51:02.000Z</time>
      </trkpt>
      <trkpt lat="43.28321" lon="-1.62739">
        <ele>186</ele>
        <time>2026-06-28T19:51:08.000Z</time>
      </trkpt>
      <trkpt lat="43.28303" lon="-1.62767">
        <ele>191</ele>
        <time>2026-06-28T19:51:12.000Z</time>
      </trkpt>
      <trkpt lat="43.283" lon="-1.62774">
        <ele>192</ele>
        <time>2026-06-28T19:51:13.000Z</time>
      </trkpt>
      <trkpt lat="43.28293" lon="-1.62816">
        <ele>192</ele>
        <time>2026-06-28T19:51:19.000Z</time>
      </trkpt>
      <trkpt lat="43.28288" lon="-1.62831">
        <ele>192</ele>
        <time>2026-06-28T19:51:21.000Z</time>
      </trkpt>
      <trkpt lat="43.28284" lon="-1.62846">
        <ele>192</ele>
        <time>2026-06-28T19:51:23.000Z</time>
      </trkpt>
      <trkpt lat="43.28273" lon="-1.6287">
        <ele>192</ele>
        <time>2026-06-28T19:51:27.000Z</time>
      </trkpt>
      <trkpt lat="43.28259" lon="-1.62896">
        <ele>191</ele>
        <time>2026-06-28T19:51:31.000Z</time>
      </trkpt>
      <trkpt lat="43.2825" lon="-1.62907">
        <ele>190</ele>
        <time>2026-06-28T19:51:33.000Z</time>
      </trkpt>
      <trkpt lat="43.28229" lon="-1.62938">
        <ele>195</ele>
        <time>2026-06-28T19:51:39.000Z</time>
      </trkpt>
      <trkpt lat="43.28195" lon="-1.62994">
        <ele>199</ele>
        <time>2026-06-28T19:51:48.000Z</time>
      </trkpt>
      <trkpt lat="43.28187" lon="-1.63004">
        <ele>200</ele>
        <time>2026-06-28T19:51:50.000Z</time>
      </trkpt>
      <trkpt lat="43.28168" lon="-1.63022">
        <ele>201</ele>
        <time>2026-06-28T19:51:54.000Z</time>
      </trkpt>
      <trkpt lat="43.28146" lon="-1.63037">
        <ele>205</ele>
        <time>2026-06-28T19:51:59.000Z</time>
      </trkpt>
      <trkpt lat="43.28137" lon="-1.63041">
        <ele>207</ele>
        <time>2026-06-28T19:52:00.000Z</time>
      </trkpt>
      <trkpt lat="43.28127" lon="-1.63042">
        <ele>208</ele>
        <time>2026-06-28T19:52:02.000Z</time>
      </trkpt>
      <trkpt lat="43.28106" lon="-1.63043">
        <ele>211</ele>
        <time>2026-06-28T19:52:06.000Z</time>
      </trkpt>
      <trkpt lat="43.2807" lon="-1.63055">
        <ele>216</ele>
        <time>2026-06-28T19:52:12.000Z</time>
      </trkpt>
      <trkpt lat="43.28059" lon="-1.63063">
        <ele>218</ele>
        <time>2026-06-28T19:52:15.000Z</time>
      </trkpt>
      <trkpt lat="43.28049" lon="-1.63073">
        <ele>218</ele>
        <time>2026-06-28T19:52:17.000Z</time>
      </trkpt>
      <trkpt lat="43.28045" lon="-1.63087">
        <ele>218</ele>
        <time>2026-06-28T19:52:19.000Z</time>
      </trkpt>
      <trkpt lat="43.28047" lon="-1.63104">
        <ele>218</ele>
        <time>2026-06-28T19:52:21.000Z</time>
      </trkpt>
      <trkpt lat="43.28054" lon="-1.63126">
        <ele>219</ele>
        <time>2026-06-28T19:52:24.000Z</time>
      </trkpt>
      <trkpt lat="43.28061" lon="-1.63141">
        <ele>218</ele>
        <time>2026-06-28T19:52:26.000Z</time>
      </trkpt>
      <trkpt lat="43.28066" lon="-1.63145">
        <ele>218</ele>
        <time>2026-06-28T19:52:27.000Z</time>
      </trkpt>
      <trkpt lat="43.28078" lon="-1.63149">
        <ele>216</ele>
        <time>2026-06-28T19:52:30.000Z</time>
      </trkpt>
      <trkpt lat="43.28091" lon="-1.63146">
        <ele>214</ele>
        <time>2026-06-28T19:52:32.000Z</time>
      </trkpt>
      <trkpt lat="43.28096" lon="-1.63143">
        <ele>214</ele>
        <time>2026-06-28T19:52:33.000Z</time>
      </trkpt>
      <trkpt lat="43.28126" lon="-1.63133">
        <ele>212</ele>
        <time>2026-06-28T19:52:38.000Z</time>
      </trkpt>
      <trkpt lat="43.28136" lon="-1.63133">
        <ele>212</ele>
        <time>2026-06-28T19:52:40.000Z</time>
      </trkpt>
      <trkpt lat="43.28141" lon="-1.63135">
        <ele>212</ele>
        <time>2026-06-28T19:52:41.000Z</time>
      </trkpt>
      <trkpt lat="43.28159" lon="-1.63148">
        <ele>213</ele>
        <time>2026-06-28T19:52:45.000Z</time>
      </trkpt>
      <trkpt lat="43.28188" lon="-1.63181">
        <ele>218</ele>
        <time>2026-06-28T19:52:51.000Z</time>
      </trkpt>
      <trkpt lat="43.28234" lon="-1.63213">
        <ele>221</ele>
        <time>2026-06-28T19:53:01.000Z</time>
      </trkpt>
      <trkpt lat="43.28248" lon="-1.63224">
        <ele>222</ele>
        <time>2026-06-28T19:53:03.000Z</time>
      </trkpt>
      <trkpt lat="43.28253" lon="-1.6323">
        <ele>222</ele>
        <time>2026-06-28T19:53:05.000Z</time>
      </trkpt>
      <trkpt lat="43.2828" lon="-1.63279">
        <ele>220</ele>
        <time>2026-06-28T19:53:13.000Z</time>
      </trkpt>
      <trkpt lat="43.28294" lon="-1.63303">
        <ele>218</ele>
        <time>2026-06-28T19:53:17.000Z</time>
      </trkpt>
      <trkpt lat="43.28306" lon="-1.63329">
        <ele>216</ele>
        <time>2026-06-28T19:53:21.000Z</time>
      </trkpt>
      <trkpt lat="43.28312" lon="-1.63352">
        <ele>215</ele>
        <time>2026-06-28T19:53:24.000Z</time>
      </trkpt>
      <trkpt lat="43.28314" lon="-1.6338">
        <ele>213</ele>
        <time>2026-06-28T19:53:27.000Z</time>
      </trkpt>
      <trkpt lat="43.28314" lon="-1.63496">
        <ele>204</ele>
        <time>2026-06-28T19:53:42.000Z</time>
      </trkpt>
      <trkpt lat="43.28315" lon="-1.63515">
        <ele>203</ele>
        <time>2026-06-28T19:53:45.000Z</time>
      </trkpt>
      <trkpt lat="43.2832" lon="-1.63534">
        <ele>202</ele>
        <time>2026-06-28T19:53:48.000Z</time>
      </trkpt>
      <trkpt lat="43.2834" lon="-1.63573">
        <ele>205</ele>
        <time>2026-06-28T19:53:54.000Z</time>
      </trkpt>
      <trkpt lat="43.28349" lon="-1.63595">
        <ele>207</ele>
        <time>2026-06-28T19:53:57.000Z</time>
      </trkpt>
      <trkpt lat="43.28352" lon="-1.63617">
        <ele>208</ele>
        <time>2026-06-28T19:54:00.000Z</time>
      </trkpt>
      <trkpt lat="43.28349" lon="-1.63641">
        <ele>208</ele>
        <time>2026-06-28T19:54:03.000Z</time>
      </trkpt>
      <trkpt lat="43.28344" lon="-1.63653">
        <ele>207</ele>
        <time>2026-06-28T19:54:05.000Z</time>
      </trkpt>
      <trkpt lat="43.28339" lon="-1.63664">
        <ele>205</ele>
        <time>2026-06-28T19:54:06.000Z</time>
      </trkpt>
      <trkpt lat="43.28309" lon="-1.63705">
        <ele>195</ele>
        <time>2026-06-28T19:54:14.000Z</time>
      </trkpt>
      <trkpt lat="43.28298" lon="-1.6373">
        <ele>192</ele>
        <time>2026-06-28T19:54:18.000Z</time>
      </trkpt>
      <trkpt lat="43.28292" lon="-1.63759">
        <ele>189</ele>
        <time>2026-06-28T19:54:22.000Z</time>
      </trkpt>
      <trkpt lat="43.2829" lon="-1.63805">
        <ele>185</ele>
        <time>2026-06-28T19:54:28.000Z</time>
      </trkpt>
      <trkpt lat="43.28291" lon="-1.63832">
        <ele>184</ele>
        <time>2026-06-28T19:54:31.000Z</time>
      </trkpt>
      <trkpt lat="43.28293" lon="-1.63845">
        <ele>183</ele>
        <time>2026-06-28T19:54:33.000Z</time>
      </trkpt>
      <trkpt lat="43.28298" lon="-1.63857">
        <ele>183</ele>
        <time>2026-06-28T19:54:35.000Z</time>
      </trkpt>
      <trkpt lat="43.28318" lon="-1.6389">
        <ele>184</ele>
        <time>2026-06-28T19:54:40.000Z</time>
      </trkpt>
      <trkpt lat="43.28328" lon="-1.63912">
        <ele>184</ele>
        <time>2026-06-28T19:54:44.000Z</time>
      </trkpt>
      <trkpt lat="43.28334" lon="-1.63935">
        <ele>182</ele>
        <time>2026-06-28T19:54:47.000Z</time>
      </trkpt>
      <trkpt lat="43.2834" lon="-1.63973">
        <ele>177</ele>
        <time>2026-06-28T19:54:52.000Z</time>
      </trkpt>
      <trkpt lat="43.28349" lon="-1.63996">
        <ele>174</ele>
        <time>2026-06-28T19:54:55.000Z</time>
      </trkpt>
      <trkpt lat="43.28362" lon="-1.64014">
        <ele>174</ele>
        <time>2026-06-28T19:54:58.000Z</time>
      </trkpt>
      <trkpt lat="43.2837" lon="-1.6402">
        <ele>174</ele>
        <time>2026-06-28T19:55:00.000Z</time>
      </trkpt>
      <trkpt lat="43.28408" lon="-1.64039">
        <ele>176</ele>
        <time>2026-06-28T19:55:07.000Z</time>
      </trkpt>
      <trkpt lat="43.28458" lon="-1.64067">
        <ele>170</ele>
        <time>2026-06-28T19:55:17.000Z</time>
      </trkpt>
      <trkpt lat="43.28479" lon="-1.64076">
        <ele>168</ele>
        <time>2026-06-28T19:55:21.000Z</time>
      </trkpt>
      <trkpt lat="43.28511" lon="-1.64079">
        <ele>168</ele>
        <time>2026-06-28T19:55:27.000Z</time>
      </trkpt>
      <trkpt lat="43.28521" lon="-1.64081">
        <ele>169</ele>
        <time>2026-06-28T19:55:28.000Z</time>
      </trkpt>
      <trkpt lat="43.2853" lon="-1.64085">
        <ele>169</ele>
        <time>2026-06-28T19:55:30.000Z</time>
      </trkpt>
      <trkpt lat="43.28546" lon="-1.641">
        <ele>169</ele>
        <time>2026-06-28T19:55:33.000Z</time>
      </trkpt>
      <trkpt lat="43.2858" lon="-1.6414">
        <ele>160</ele>
        <time>2026-06-28T19:55:41.000Z</time>
      </trkpt>
      <trkpt lat="43.2859" lon="-1.64147">
        <ele>159</ele>
        <time>2026-06-28T19:55:43.000Z</time>
      </trkpt>
      <trkpt lat="43.28623" lon="-1.64164">
        <ele>158</ele>
        <time>2026-06-28T19:55:50.000Z</time>
      </trkpt>
      <trkpt lat="43.28641" lon="-1.64179">
        <ele>158</ele>
        <time>2026-06-28T19:55:53.000Z</time>
      </trkpt>
      <trkpt lat="43.28648" lon="-1.64189">
        <ele>158</ele>
        <time>2026-06-28T19:55:55.000Z</time>
      </trkpt>
      <trkpt lat="43.28652" lon="-1.642">
        <ele>157</ele>
        <time>2026-06-28T19:55:57.000Z</time>
      </trkpt>
      <trkpt lat="43.28656" lon="-1.64224">
        <ele>154</ele>
        <time>2026-06-28T19:56:00.000Z</time>
      </trkpt>
      <trkpt lat="43.28653" lon="-1.64283">
        <ele>154</ele>
        <time>2026-06-28T19:56:08.000Z</time>
      </trkpt>
      <trkpt lat="43.2864" lon="-1.64346">
        <ele>158</ele>
        <time>2026-06-28T19:56:16.000Z</time>
      </trkpt>
      <trkpt lat="43.2863" lon="-1.64374">
        <ele>159</ele>
        <time>2026-06-28T19:56:20.000Z</time>
      </trkpt>
      <trkpt lat="43.2859" lon="-1.64465">
        <ele>158</ele>
        <time>2026-06-28T19:56:34.000Z</time>
      </trkpt>
      <trkpt lat="43.2858" lon="-1.64479">
        <ele>157</ele>
        <time>2026-06-28T19:56:37.000Z</time>
      </trkpt>
      <trkpt lat="43.28543" lon="-1.64508">
        <ele>149</ele>
        <time>2026-06-28T19:56:44.000Z</time>
      </trkpt>
      <trkpt lat="43.28537" lon="-1.64515">
        <ele>148</ele>
        <time>2026-06-28T19:56:45.000Z</time>
      </trkpt>
      <trkpt lat="43.28531" lon="-1.64525">
        <ele>148</ele>
        <time>2026-06-28T19:56:47.000Z</time>
      </trkpt>
      <trkpt lat="43.28516" lon="-1.6457">
        <ele>148</ele>
        <time>2026-06-28T19:56:54.000Z</time>
      </trkpt>
      <trkpt lat="43.28504" lon="-1.64589">
        <ele>147</ele>
        <time>2026-06-28T19:56:57.000Z</time>
      </trkpt>
      <trkpt lat="43.28488" lon="-1.64604">
        <ele>143</ele>
        <time>2026-06-28T19:57:00.000Z</time>
      </trkpt>
      <trkpt lat="43.28446" lon="-1.64633">
        <ele>133</ele>
        <time>2026-06-28T19:57:09.000Z</time>
      </trkpt>
      <trkpt lat="43.28432" lon="-1.64645">
        <ele>130</ele>
        <time>2026-06-28T19:57:12.000Z</time>
      </trkpt>
      <trkpt lat="43.28423" lon="-1.64664">
        <ele>129</ele>
        <time>2026-06-28T19:57:15.000Z</time>
      </trkpt>
      <trkpt lat="43.28413" lon="-1.64714">
        <ele>129</ele>
        <time>2026-06-28T19:57:21.000Z</time>
      </trkpt>
      <trkpt lat="43.28404" lon="-1.64735">
        <ele>129</ele>
        <time>2026-06-28T19:57:24.000Z</time>
      </trkpt>
      <trkpt lat="43.28392" lon="-1.64754">
        <ele>128</ele>
        <time>2026-06-28T19:57:28.000Z</time>
      </trkpt>
      <trkpt lat="43.28361" lon="-1.64791">
        <ele>129</ele>
        <time>2026-06-28T19:57:35.000Z</time>
      </trkpt>
      <trkpt lat="43.28339" lon="-1.64822">
        <ele>130</ele>
        <time>2026-06-28T19:57:41.000Z</time>
      </trkpt>
      <trkpt lat="43.28325" lon="-1.64838">
        <ele>130</ele>
        <time>2026-06-28T19:57:44.000Z</time>
      </trkpt>
      <trkpt lat="43.28316" lon="-1.64843">
        <ele>128</ele>
        <time>2026-06-28T19:57:46.000Z</time>
      </trkpt>
      <trkpt lat="43.28291" lon="-1.64853">
        <ele>124</ele>
        <time>2026-06-28T19:57:50.000Z</time>
      </trkpt>
      <trkpt lat="43.28283" lon="-1.64858">
        <ele>122</ele>
        <time>2026-06-28T19:57:52.000Z</time>
      </trkpt>
      <trkpt lat="43.28275" lon="-1.64865">
        <ele>120</ele>
        <time>2026-06-28T19:57:53.000Z</time>
      </trkpt>
      <trkpt lat="43.28269" lon="-1.64874">
        <ele>119</ele>
        <time>2026-06-28T19:57:55.000Z</time>
      </trkpt>
      <trkpt lat="43.28261" lon="-1.64898">
        <ele>117</ele>
        <time>2026-06-28T19:57:58.000Z</time>
      </trkpt>
      <trkpt lat="43.2824" lon="-1.65003">
        <ele>113</ele>
        <time>2026-06-28T19:58:13.000Z</time>
      </trkpt>
      <trkpt lat="43.28216" lon="-1.65132">
        <ele>115</ele>
        <time>2026-06-28T19:58:30.000Z</time>
      </trkpt>
      <trkpt lat="43.28209" lon="-1.65161">
        <ele>115</ele>
        <time>2026-06-28T19:58:34.000Z</time>
      </trkpt>
      <trkpt lat="43.28201" lon="-1.65188">
        <ele>116</ele>
        <time>2026-06-28T19:58:37.000Z</time>
      </trkpt>
      <trkpt lat="43.28188" lon="-1.65224">
        <ele>115</ele>
        <time>2026-06-28T19:58:43.000Z</time>
      </trkpt>
      <trkpt lat="43.28161" lon="-1.65292">
        <ele>106</ele>
        <time>2026-06-28T19:58:53.000Z</time>
      </trkpt>
      <trkpt lat="43.28154" lon="-1.65315">
        <ele>104</ele>
        <time>2026-06-28T19:58:56.000Z</time>
      </trkpt>
      <trkpt lat="43.28153" lon="-1.65326">
        <ele>103</ele>
        <time>2026-06-28T19:58:57.000Z</time>
      </trkpt>
      <trkpt lat="43.28151" lon="-1.65361">
        <ele>103</ele>
        <time>2026-06-28T19:59:02.000Z</time>
      </trkpt>
      <trkpt lat="43.28154" lon="-1.65433">
        <ele>102</ele>
        <time>2026-06-28T19:59:11.000Z</time>
      </trkpt>
      <trkpt lat="43.28155" lon="-1.65449">
        <ele>102</ele>
        <time>2026-06-28T19:59:13.000Z</time>
      </trkpt>
      <trkpt lat="43.28165" lon="-1.65499">
        <ele>99</ele>
        <time>2026-06-28T19:59:20.000Z</time>
      </trkpt>
      <trkpt lat="43.28178" lon="-1.65533">
        <ele>100</ele>
        <time>2026-06-28T19:59:25.000Z</time>
      </trkpt>
      <trkpt lat="43.28223" lon="-1.65622">
        <ele>102</ele>
        <time>2026-06-28T19:59:39.000Z</time>
      </trkpt>
      <trkpt lat="43.28248" lon="-1.65698">
        <ele>96</ele>
        <time>2026-06-28T19:59:50.000Z</time>
      </trkpt>
      <trkpt lat="43.28255" lon="-1.65734">
        <ele>96</ele>
        <time>2026-06-28T19:59:55.000Z</time>
      </trkpt>
      <trkpt lat="43.28256" lon="-1.65753">
        <ele>96</ele>
        <time>2026-06-28T19:59:57.000Z</time>
      </trkpt>
      <trkpt lat="43.28254" lon="-1.65771">
        <ele>96</ele>
        <time>2026-06-28T20:00:00.000Z</time>
      </trkpt>
      <trkpt lat="43.28239" lon="-1.65856">
        <ele>98</ele>
        <time>2026-06-28T20:00:11.000Z</time>
      </trkpt>
      <trkpt lat="43.28234" lon="-1.65892">
        <ele>96</ele>
        <time>2026-06-28T20:00:16.000Z</time>
      </trkpt>
      <trkpt lat="43.28228" lon="-1.65956">
        <ele>91</ele>
        <time>2026-06-28T20:00:24.000Z</time>
      </trkpt>
      <trkpt lat="43.28228" lon="-1.65974">
        <ele>89</ele>
        <time>2026-06-28T20:00:26.000Z</time>
      </trkpt>
      <trkpt lat="43.2823" lon="-1.65982">
        <ele>88</ele>
        <time>2026-06-28T20:00:27.000Z</time>
      </trkpt>
      <trkpt lat="43.2824" lon="-1.65996">
        <ele>88</ele>
        <time>2026-06-28T20:00:30.000Z</time>
      </trkpt>
      <trkpt lat="43.28253" lon="-1.66004">
        <ele>89</ele>
        <time>2026-06-28T20:00:32.000Z</time>
      </trkpt>
      <trkpt lat="43.28273" lon="-1.66012">
        <ele>90</ele>
        <time>2026-06-28T20:00:36.000Z</time>
      </trkpt>
      <trkpt lat="43.28285" lon="-1.66023">
        <ele>90</ele>
        <time>2026-06-28T20:00:39.000Z</time>
      </trkpt>
      <trkpt lat="43.28293" lon="-1.66038">
        <ele>90</ele>
        <time>2026-06-28T20:00:41.000Z</time>
      </trkpt>
      <trkpt lat="43.28296" lon="-1.66055">
        <ele>91</ele>
        <time>2026-06-28T20:00:43.000Z</time>
      </trkpt>
      <trkpt lat="43.28296" lon="-1.66063">
        <ele>91</ele>
        <time>2026-06-28T20:00:44.000Z</time>
      </trkpt>
      <trkpt lat="43.28292" lon="-1.66079">
        <ele>90</ele>
        <time>2026-06-28T20:00:47.000Z</time>
      </trkpt>
      <trkpt lat="43.28262" lon="-1.66154">
        <ele>92</ele>
        <time>2026-06-28T20:00:58.000Z</time>
      </trkpt>
      <trkpt lat="43.28259" lon="-1.66166">
        <ele>92</ele>
        <time>2026-06-28T20:00:59.000Z</time>
      </trkpt>
      <trkpt lat="43.28252" lon="-1.66218">
        <ele>92</ele>
        <time>2026-06-28T20:01:06.000Z</time>
      </trkpt>
      <trkpt lat="43.28245" lon="-1.66327">
        <ele>98</ele>
        <time>2026-06-28T20:01:20.000Z</time>
      </trkpt>
      <trkpt lat="43.28232" lon="-1.66383">
        <ele>94</ele>
        <time>2026-06-28T20:01:28.000Z</time>
      </trkpt>
      <trkpt lat="43.28215" lon="-1.66443">
        <ele>87</ele>
        <time>2026-06-28T20:01:36.000Z</time>
      </trkpt>
      <trkpt lat="43.2821" lon="-1.66476">
        <ele>85</ele>
        <time>2026-06-28T20:01:41.000Z</time>
      </trkpt>
      <trkpt lat="43.2821" lon="-1.665">
        <ele>84</ele>
        <time>2026-06-28T20:01:44.000Z</time>
      </trkpt>
      <trkpt lat="43.28215" lon="-1.66572">
        <ele>83</ele>
        <time>2026-06-28T20:01:53.000Z</time>
      </trkpt>
      <trkpt lat="43.28223" lon="-1.66734">
        <ele>77</ele>
        <time>2026-06-28T20:02:14.000Z</time>
      </trkpt>
      <trkpt lat="43.28236" lon="-1.66797">
        <ele>75</ele>
        <time>2026-06-28T20:02:23.000Z</time>
      </trkpt>
      <trkpt lat="43.28269" lon="-1.66929">
        <ele>73</ele>
        <time>2026-06-28T20:02:41.000Z</time>
      </trkpt>
      <trkpt lat="43.28275" lon="-1.66968">
        <ele>72</ele>
        <time>2026-06-28T20:02:46.000Z</time>
      </trkpt>
      <trkpt lat="43.28275" lon="-1.66992">
        <ele>70</ele>
        <time>2026-06-28T20:02:49.000Z</time>
      </trkpt>
      <trkpt lat="43.28267" lon="-1.67071">
        <ele>68</ele>
        <time>2026-06-28T20:02:59.000Z</time>
      </trkpt>
      <trkpt lat="43.28266" lon="-1.67093">
        <ele>68</ele>
        <time>2026-06-28T20:03:02.000Z</time>
      </trkpt>
      <trkpt lat="43.28268" lon="-1.67128">
        <ele>68</ele>
        <time>2026-06-28T20:03:07.000Z</time>
      </trkpt>
      <trkpt lat="43.28276" lon="-1.67203">
        <ele>68</ele>
        <time>2026-06-28T20:03:17.000Z</time>
      </trkpt>
      <trkpt lat="43.28276" lon="-1.67228">
        <ele>67</ele>
        <time>2026-06-28T20:03:20.000Z</time>
      </trkpt>
      <trkpt lat="43.28269" lon="-1.67324">
        <ele>66</ele>
        <time>2026-06-28T20:03:32.000Z</time>
      </trkpt>
      <trkpt lat="43.28257" lon="-1.6738">
        <ele>64</ele>
        <time>2026-06-28T20:03:40.000Z</time>
      </trkpt>
      <trkpt lat="43.2825" lon="-1.674">
        <ele>63</ele>
        <time>2026-06-28T20:03:43.000Z</time>
      </trkpt>
      <trkpt lat="43.28236" lon="-1.67426">
        <ele>62</ele>
        <time>2026-06-28T20:03:47.000Z</time>
      </trkpt>
      <trkpt lat="43.28227" lon="-1.67445">
        <ele>60</ele>
        <time>2026-06-28T20:03:50.000Z</time>
      </trkpt>
      <trkpt lat="43.28223" lon="-1.67467">
        <ele>60</ele>
        <time>2026-06-28T20:03:53.000Z</time>
      </trkpt>
      <trkpt lat="43.28217" lon="-1.67514">
        <ele>59</ele>
        <time>2026-06-28T20:03:59.000Z</time>
      </trkpt>
      <trkpt lat="43.28213" lon="-1.67525">
        <ele>57</ele>
        <time>2026-06-28T20:04:01.000Z</time>
      </trkpt>
      <trkpt lat="43.28188" lon="-1.67564">
        <ele>51</ele>
        <time>2026-06-28T20:04:07.000Z</time>
      </trkpt>
      <trkpt lat="43.28185" lon="-1.67575">
        <ele>51</ele>
        <time>2026-06-28T20:04:09.000Z</time>
      </trkpt>
      <trkpt lat="43.28185" lon="-1.67599">
        <ele>50</ele>
        <time>2026-06-28T20:04:12.000Z</time>
      </trkpt>
      <trkpt lat="43.2819" lon="-1.67633">
        <ele>50</ele>
        <time>2026-06-28T20:04:16.000Z</time>
      </trkpt>
      <trkpt lat="43.2819" lon="-1.67655">
        <ele>50</ele>
        <time>2026-06-28T20:04:19.000Z</time>
      </trkpt>
      <trkpt lat="43.28172" lon="-1.67732">
        <ele>45</ele>
        <time>2026-06-28T20:04:30.000Z</time>
      </trkpt>
      <trkpt lat="43.28171" lon="-1.67748">
        <ele>44</ele>
        <time>2026-06-28T20:04:32.000Z</time>
      </trkpt>
      <trkpt lat="43.28175" lon="-1.67788">
        <ele>44</ele>
        <time>2026-06-28T20:04:37.000Z</time>
      </trkpt>
      <trkpt lat="43.2818" lon="-1.67813">
        <ele>44</ele>
        <time>2026-06-28T20:04:40.000Z</time>
      </trkpt>
      <trkpt lat="43.28183" lon="-1.67819">
        <ele>44</ele>
        <time>2026-06-28T20:04:41.000Z</time>
      </trkpt>
      <trkpt lat="43.28187" lon="-1.67826">
        <ele>44</ele>
        <time>2026-06-28T20:04:43.000Z</time>
      </trkpt>
      <trkpt lat="43.28193" lon="-1.67831">
        <ele>44</ele>
        <time>2026-06-28T20:04:44.000Z</time>
      </trkpt>
      <trkpt lat="43.28216" lon="-1.6784">
        <ele>45</ele>
        <time>2026-06-28T20:04:48.000Z</time>
      </trkpt>
      <trkpt lat="43.28252" lon="-1.67861">
        <ele>45</ele>
        <time>2026-06-28T20:04:55.000Z</time>
      </trkpt>
      <trkpt lat="43.28274" lon="-1.67871">
        <ele>46</ele>
        <time>2026-06-28T20:04:59.000Z</time>
      </trkpt>
      <trkpt lat="43.28328" lon="-1.67903">
        <ele>50</ele>
        <time>2026-06-28T20:05:10.000Z</time>
      </trkpt>
      <trkpt lat="43.28376" lon="-1.67925">
        <ele>57</ele>
        <time>2026-06-28T20:05:19.000Z</time>
      </trkpt>
      <trkpt lat="43.28397" lon="-1.67929">
        <ele>60</ele>
        <time>2026-06-28T20:05:22.000Z</time>
      </trkpt>
      <trkpt lat="43.28417" lon="-1.6794">
        <ele>65</ele>
        <time>2026-06-28T20:05:26.000Z</time>
      </trkpt>
      <trkpt lat="43.28437" lon="-1.67954">
        <ele>70</ele>
        <time>2026-06-28T20:05:30.000Z</time>
      </trkpt>
      <trkpt lat="43.28451" lon="-1.6796">
        <ele>72</ele>
        <time>2026-06-28T20:05:33.000Z</time>
      </trkpt>
      <trkpt lat="43.28457" lon="-1.6796">
        <ele>72</ele>
        <time>2026-06-28T20:05:34.000Z</time>
      </trkpt>
      <trkpt lat="43.28469" lon="-1.67957">
        <ele>72</ele>
        <time>2026-06-28T20:05:36.000Z</time>
      </trkpt>
      <trkpt lat="43.28494" lon="-1.67961">
        <ele>74</ele>
        <time>2026-06-28T20:05:41.000Z</time>
      </trkpt>
      <trkpt lat="43.28511" lon="-1.67958">
        <ele>73</ele>
        <time>2026-06-28T20:05:44.000Z</time>
      </trkpt>
      <trkpt lat="43.28532" lon="-1.67957">
        <ele>71</ele>
        <time>2026-06-28T20:05:47.000Z</time>
      </trkpt>
      <trkpt lat="43.28563" lon="-1.67943">
        <ele>65</ele>
        <time>2026-06-28T20:05:53.000Z</time>
      </trkpt>
      <trkpt lat="43.28575" lon="-1.67943">
        <ele>65</ele>
        <time>2026-06-28T20:05:55.000Z</time>
      </trkpt>
      <trkpt lat="43.28581" lon="-1.67945">
        <ele>65</ele>
        <time>2026-06-28T20:05:56.000Z</time>
      </trkpt>
      <trkpt lat="43.28592" lon="-1.67954">
        <ele>67</ele>
        <time>2026-06-28T20:05:59.000Z</time>
      </trkpt>
      <trkpt lat="43.28636" lon="-1.68004">
        <ele>73</ele>
        <time>2026-06-28T20:06:09.000Z</time>
      </trkpt>
      <trkpt lat="43.28647" lon="-1.68012">
        <ele>76</ele>
        <time>2026-06-28T20:06:11.000Z</time>
      </trkpt>
      <trkpt lat="43.2866" lon="-1.68014">
        <ele>76</ele>
        <time>2026-06-28T20:06:13.000Z</time>
      </trkpt>
      <trkpt lat="43.28679" lon="-1.6801">
        <ele>75</ele>
        <time>2026-06-28T20:06:17.000Z</time>
      </trkpt>
      <trkpt lat="43.28708" lon="-1.67999">
        <ele>76</ele>
        <time>2026-06-28T20:06:22.000Z</time>
      </trkpt>
      <trkpt lat="43.28745" lon="-1.6799">
        <ele>80</ele>
        <time>2026-06-28T20:06:29.000Z</time>
      </trkpt>
      <trkpt lat="43.28775" lon="-1.67977">
        <ele>82</ele>
        <time>2026-06-28T20:06:34.000Z</time>
      </trkpt>
      <trkpt lat="43.28786" lon="-1.67978">
        <ele>82</ele>
        <time>2026-06-28T20:06:36.000Z</time>
      </trkpt>
      <trkpt lat="43.2881" lon="-1.67988">
        <ele>83</ele>
        <time>2026-06-28T20:06:41.000Z</time>
      </trkpt>
      <trkpt lat="43.28878" lon="-1.68028">
        <ele>92</ele>
        <time>2026-06-28T20:06:54.000Z</time>
      </trkpt>
      <trkpt lat="43.28899" lon="-1.68034">
        <ele>92</ele>
        <time>2026-06-28T20:06:58.000Z</time>
      </trkpt>
      <trkpt lat="43.28951" lon="-1.68035">
        <ele>88</ele>
        <time>2026-06-28T20:07:07.000Z</time>
      </trkpt>
      <trkpt lat="43.28963" lon="-1.68039">
        <ele>88</ele>
        <time>2026-06-28T20:07:09.000Z</time>
      </trkpt>
      <trkpt lat="43.28981" lon="-1.68052">
        <ele>89</ele>
        <time>2026-06-28T20:07:13.000Z</time>
      </trkpt>
      <trkpt lat="43.2899" lon="-1.68063">
        <ele>91</ele>
        <time>2026-06-28T20:07:15.000Z</time>
      </trkpt>
      <trkpt lat="43.28998" lon="-1.68077">
        <ele>93</ele>
        <time>2026-06-28T20:07:17.000Z</time>
      </trkpt>
      <trkpt lat="43.2902" lon="-1.68134">
        <ele>98</ele>
        <time>2026-06-28T20:07:26.000Z</time>
      </trkpt>
      <trkpt lat="43.29035" lon="-1.68212">
        <ele>102</ele>
        <time>2026-06-28T20:07:36.000Z</time>
      </trkpt>
      <trkpt lat="43.29049" lon="-1.68255">
        <ele>99</ele>
        <time>2026-06-28T20:07:42.000Z</time>
      </trkpt>
      <trkpt lat="43.29051" lon="-1.68279">
        <ele>99</ele>
        <time>2026-06-28T20:07:45.000Z</time>
      </trkpt>
      <trkpt lat="43.29049" lon="-1.68294">
        <ele>101</ele>
        <time>2026-06-28T20:07:47.000Z</time>
      </trkpt>
      <trkpt lat="43.29028" lon="-1.68351">
        <ele>116</ele>
        <time>2026-06-28T20:07:56.000Z</time>
      </trkpt>
      <trkpt lat="43.29025" lon="-1.68365">
        <ele>118</ele>
        <time>2026-06-28T20:07:58.000Z</time>
      </trkpt>
      <trkpt lat="43.29026" lon="-1.68372">
        <ele>119</ele>
        <time>2026-06-28T20:07:58.000Z</time>
      </trkpt>
      <trkpt lat="43.2903" lon="-1.68379">
        <ele>118</ele>
        <time>2026-06-28T20:08:00.000Z</time>
      </trkpt>
      <trkpt lat="43.29034" lon="-1.68384">
        <ele>117</ele>
        <time>2026-06-28T20:08:01.000Z</time>
      </trkpt>
      <trkpt lat="43.2907" lon="-1.68403">
        <ele>107</ele>
        <time>2026-06-28T20:08:07.000Z</time>
      </trkpt>
      <trkpt lat="43.29079" lon="-1.68412">
        <ele>105</ele>
        <time>2026-06-28T20:08:09.000Z</time>
      </trkpt>
      <trkpt lat="43.29122" lon="-1.6847">
        <ele>116</ele>
        <time>2026-06-28T20:08:20.000Z</time>
      </trkpt>
      <trkpt lat="43.29132" lon="-1.68478">
        <ele>117</ele>
        <time>2026-06-28T20:08:22.000Z</time>
      </trkpt>
      <trkpt lat="43.29138" lon="-1.6848">
        <ele>116</ele>
        <time>2026-06-28T20:08:23.000Z</time>
      </trkpt>
      <trkpt lat="43.29164" lon="-1.68484">
        <ele>113</ele>
        <time>2026-06-28T20:08:28.000Z</time>
      </trkpt>
      <trkpt lat="43.29176" lon="-1.68488">
        <ele>111</ele>
        <time>2026-06-28T20:08:30.000Z</time>
      </trkpt>
      <trkpt lat="43.29181" lon="-1.68492">
        <ele>110</ele>
        <time>2026-06-28T20:08:31.000Z</time>
      </trkpt>
      <trkpt lat="43.29188" lon="-1.68504">
        <ele>111</ele>
        <time>2026-06-28T20:08:33.000Z</time>
      </trkpt>
      <trkpt lat="43.29188" lon="-1.6852">
        <ele>112</ele>
        <time>2026-06-28T20:08:35.000Z</time>
      </trkpt>
      <trkpt lat="43.29181" lon="-1.68541">
        <ele>116</ele>
        <time>2026-06-28T20:08:38.000Z</time>
      </trkpt>
      <trkpt lat="43.29169" lon="-1.68557">
        <ele>121</ele>
        <time>2026-06-28T20:08:41.000Z</time>
      </trkpt>
      <trkpt lat="43.29139" lon="-1.6858">
        <ele>132</ele>
        <time>2026-06-28T20:08:47.000Z</time>
      </trkpt>
      <trkpt lat="43.29135" lon="-1.68586">
        <ele>133</ele>
        <time>2026-06-28T20:08:48.000Z</time>
      </trkpt>
      <trkpt lat="43.29131" lon="-1.68601">
        <ele>136</ele>
        <time>2026-06-28T20:08:50.000Z</time>
      </trkpt>
      <trkpt lat="43.29128" lon="-1.68624">
        <ele>140</ele>
        <time>2026-06-28T20:08:53.000Z</time>
      </trkpt>
      <trkpt lat="43.29127" lon="-1.68648">
        <ele>143</ele>
        <time>2026-06-28T20:08:57.000Z</time>
      </trkpt>
      <trkpt lat="43.29132" lon="-1.6867">
        <ele>144</ele>
        <time>2026-06-28T20:09:00.000Z</time>
      </trkpt>
      <trkpt lat="43.29137" lon="-1.68675">
        <ele>144</ele>
        <time>2026-06-28T20:09:01.000Z</time>
      </trkpt>
      <trkpt lat="43.29143" lon="-1.68676">
        <ele>142</ele>
        <time>2026-06-28T20:09:02.000Z</time>
      </trkpt>
      <trkpt lat="43.29159" lon="-1.68672">
        <ele>137</ele>
        <time>2026-06-28T20:09:05.000Z</time>
      </trkpt>
      <trkpt lat="43.29165" lon="-1.68672">
        <ele>136</ele>
        <time>2026-06-28T20:09:06.000Z</time>
      </trkpt>
      <trkpt lat="43.2917" lon="-1.68675">
        <ele>135</ele>
        <time>2026-06-28T20:09:07.000Z</time>
      </trkpt>
      <trkpt lat="43.29172" lon="-1.68682">
        <ele>137</ele>
        <time>2026-06-28T20:09:08.000Z</time>
      </trkpt>
      <trkpt lat="43.2917" lon="-1.68689">
        <ele>138</ele>
        <time>2026-06-28T20:09:09.000Z</time>
      </trkpt>
      <trkpt lat="43.29166" lon="-1.68695">
        <ele>140</ele>
        <time>2026-06-28T20:09:10.000Z</time>
      </trkpt>
      <trkpt lat="43.2915" lon="-1.68707">
        <ele>147</ele>
        <time>2026-06-28T20:09:13.000Z</time>
      </trkpt>
      <trkpt lat="43.29139" lon="-1.68713">
        <ele>151</ele>
        <time>2026-06-28T20:09:15.000Z</time>
      </trkpt>
      <trkpt lat="43.29133" lon="-1.68713">
        <ele>152</ele>
        <time>2026-06-28T20:09:16.000Z</time>
      </trkpt>
      <trkpt lat="43.29128" lon="-1.6871">
        <ele>153</ele>
        <time>2026-06-28T20:09:17.000Z</time>
      </trkpt>
      <trkpt lat="43.29123" lon="-1.68705">
        <ele>153</ele>
        <time>2026-06-28T20:09:18.000Z</time>
      </trkpt>
      <trkpt lat="43.29108" lon="-1.68659">
        <ele>149</ele>
        <time>2026-06-28T20:09:25.000Z</time>
      </trkpt>
      <trkpt lat="43.29093" lon="-1.68625">
        <ele>150</ele>
        <time>2026-06-28T20:09:30.000Z</time>
      </trkpt>
      <trkpt lat="43.29091" lon="-1.68608">
        <ele>148</ele>
        <time>2026-06-28T20:09:32.000Z</time>
      </trkpt>
      <trkpt lat="43.29092" lon="-1.68591">
        <ele>146</ele>
        <time>2026-06-28T20:09:34.000Z</time>
      </trkpt>
      <trkpt lat="43.29106" lon="-1.68555">
        <ele>137</ele>
        <time>2026-06-28T20:09:40.000Z</time>
      </trkpt>
      <trkpt lat="43.29107" lon="-1.68547">
        <ele>136</ele>
        <time>2026-06-28T20:09:41.000Z</time>
      </trkpt>
      <trkpt lat="43.29105" lon="-1.68539">
        <ele>135</ele>
        <time>2026-06-28T20:09:42.000Z</time>
      </trkpt>
      <trkpt lat="43.29101" lon="-1.68534">
        <ele>135</ele>
        <time>2026-06-28T20:09:43.000Z</time>
      </trkpt>
      <trkpt lat="43.29091" lon="-1.68526">
        <ele>136</ele>
        <time>2026-06-28T20:09:45.000Z</time>
      </trkpt>
      <trkpt lat="43.29075" lon="-1.68518">
        <ele>138</ele>
        <time>2026-06-28T20:09:48.000Z</time>
      </trkpt>
      <trkpt lat="43.29064" lon="-1.68517">
        <ele>140</ele>
        <time>2026-06-28T20:09:50.000Z</time>
      </trkpt>
      <trkpt lat="43.29046" lon="-1.6852">
        <ele>143</ele>
        <time>2026-06-28T20:09:53.000Z</time>
      </trkpt>
      <trkpt lat="43.29017" lon="-1.68519">
        <ele>149</ele>
        <time>2026-06-28T20:09:58.000Z</time>
      </trkpt>
      <trkpt lat="43.29005" lon="-1.68522">
        <ele>151</ele>
        <time>2026-06-28T20:10:00.000Z</time>
      </trkpt>
      <trkpt lat="43.28994" lon="-1.68527">
        <ele>156</ele>
        <time>2026-06-28T20:10:02.000Z</time>
      </trkpt>
      <trkpt lat="43.2899" lon="-1.68531">
        <ele>158</ele>
        <time>2026-06-28T20:10:03.000Z</time>
      </trkpt>
      <trkpt lat="43.28987" lon="-1.68538">
        <ele>160</ele>
        <time>2026-06-28T20:10:04.000Z</time>
      </trkpt>
      <trkpt lat="43.28988" lon="-1.68546">
        <ele>162</ele>
        <time>2026-06-28T20:10:05.000Z</time>
      </trkpt>
      <trkpt lat="43.28993" lon="-1.68552">
        <ele>161</ele>
        <time>2026-06-28T20:10:06.000Z</time>
      </trkpt>
      <trkpt lat="43.29007" lon="-1.68558">
        <ele>158</ele>
        <time>2026-06-28T20:10:09.000Z</time>
      </trkpt>
      <trkpt lat="43.29015" lon="-1.68558">
        <ele>156</ele>
        <time>2026-06-28T20:10:11.000Z</time>
      </trkpt>
      <trkpt lat="43.29022" lon="-1.68554">
        <ele>154</ele>
        <time>2026-06-28T20:10:12.000Z</time>
      </trkpt>
      <trkpt lat="43.29032" lon="-1.68543">
        <ele>150</ele>
        <time>2026-06-28T20:10:14.000Z</time>
      </trkpt>
      <trkpt lat="43.29042" lon="-1.68536">
        <ele>147</ele>
        <time>2026-06-28T20:10:16.000Z</time>
      </trkpt>
      <trkpt lat="43.29048" lon="-1.68536">
        <ele>146</ele>
        <time>2026-06-28T20:10:17.000Z</time>
      </trkpt>
      <trkpt lat="43.29055" lon="-1.68537">
        <ele>145</ele>
        <time>2026-06-28T20:10:18.000Z</time>
      </trkpt>
      <trkpt lat="43.29061" lon="-1.68541">
        <ele>145</ele>
        <time>2026-06-28T20:10:20.000Z</time>
      </trkpt>
      <trkpt lat="43.29066" lon="-1.68547">
        <ele>145</ele>
        <time>2026-06-28T20:10:21.000Z</time>
      </trkpt>
      <trkpt lat="43.29069" lon="-1.68556">
        <ele>146</ele>
        <time>2026-06-28T20:10:22.000Z</time>
      </trkpt>
      <trkpt lat="43.29068" lon="-1.68565">
        <ele>148</ele>
        <time>2026-06-28T20:10:23.000Z</time>
      </trkpt>
      <trkpt lat="43.29051" lon="-1.68628">
        <ele>161</ele>
        <time>2026-06-28T20:10:32.000Z</time>
      </trkpt>
      <trkpt lat="43.2905" lon="-1.68645">
        <ele>164</ele>
        <time>2026-06-28T20:10:34.000Z</time>
      </trkpt>
      <trkpt lat="43.29053" lon="-1.6866">
        <ele>165</ele>
        <time>2026-06-28T20:10:36.000Z</time>
      </trkpt>
      <trkpt lat="43.29079" lon="-1.6869">
        <ele>162</ele>
        <time>2026-06-28T20:10:42.000Z</time>
      </trkpt>
      <trkpt lat="43.29082" lon="-1.68698">
        <ele>162</ele>
        <time>2026-06-28T20:10:43.000Z</time>
      </trkpt>
      <trkpt lat="43.29085" lon="-1.68724">
        <ele>165</ele>
        <time>2026-06-28T20:10:47.000Z</time>
      </trkpt>
      <trkpt lat="43.29082" lon="-1.68755">
        <ele>171</ele>
        <time>2026-06-28T20:10:51.000Z</time>
      </trkpt>
      <trkpt lat="43.29082" lon="-1.68772">
        <ele>174</ele>
        <time>2026-06-28T20:10:53.000Z</time>
      </trkpt>
      <trkpt lat="43.29084" lon="-1.6878">
        <ele>175</ele>
        <time>2026-06-28T20:10:54.000Z</time>
      </trkpt>
      <trkpt lat="43.29089" lon="-1.68785">
        <ele>176</ele>
        <time>2026-06-28T20:10:55.000Z</time>
      </trkpt>
      <trkpt lat="43.29095" lon="-1.68788">
        <ele>175</ele>
        <time>2026-06-28T20:10:56.000Z</time>
      </trkpt>
      <trkpt lat="43.29101" lon="-1.68789">
        <ele>175</ele>
        <time>2026-06-28T20:10:57.000Z</time>
      </trkpt>
      <trkpt lat="43.29124" lon="-1.68787">
        <ele>171</ele>
        <time>2026-06-28T20:11:02.000Z</time>
      </trkpt>
      <trkpt lat="43.29165" lon="-1.68779">
        <ele>162</ele>
        <time>2026-06-28T20:11:09.000Z</time>
      </trkpt>
      <trkpt lat="43.29185" lon="-1.68784">
        <ele>159</ele>
        <time>2026-06-28T20:11:13.000Z</time>
      </trkpt>
      <trkpt lat="43.29198" lon="-1.68797">
        <ele>160</ele>
        <time>2026-06-28T20:11:15.000Z</time>
      </trkpt>
      <trkpt lat="43.29202" lon="-1.68806">
        <ele>161</ele>
        <time>2026-06-28T20:11:17.000Z</time>
      </trkpt>
      <trkpt lat="43.29207" lon="-1.68826">
        <ele>165</ele>
        <time>2026-06-28T20:11:20.000Z</time>
      </trkpt>
      <trkpt lat="43.2921" lon="-1.68857">
        <ele>172</ele>
        <time>2026-06-28T20:11:24.000Z</time>
      </trkpt>
      <trkpt lat="43.29213" lon="-1.68867">
        <ele>174</ele>
        <time>2026-06-28T20:11:25.000Z</time>
      </trkpt>
      <trkpt lat="43.29218" lon="-1.68873">
        <ele>174</ele>
        <time>2026-06-28T20:11:26.000Z</time>
      </trkpt>
      <trkpt lat="43.29231" lon="-1.68881">
        <ele>172</ele>
        <time>2026-06-28T20:11:29.000Z</time>
      </trkpt>
      <trkpt lat="43.29241" lon="-1.68894">
        <ele>172</ele>
        <time>2026-06-28T20:11:31.000Z</time>
      </trkpt>
      <trkpt lat="43.29267" lon="-1.68967">
        <ele>184</ele>
        <time>2026-06-28T20:11:42.000Z</time>
      </trkpt>
      <trkpt lat="43.29276" lon="-1.68982">
        <ele>186</ele>
        <time>2026-06-28T20:11:44.000Z</time>
      </trkpt>
      <trkpt lat="43.29282" lon="-1.68986">
        <ele>186</ele>
        <time>2026-06-28T20:11:45.000Z</time>
      </trkpt>
      <trkpt lat="43.29296" lon="-1.68986">
        <ele>184</ele>
        <time>2026-06-28T20:11:48.000Z</time>
      </trkpt>
      <trkpt lat="43.29319" lon="-1.68966">
        <ele>174</ele>
        <time>2026-06-28T20:11:53.000Z</time>
      </trkpt>
      <trkpt lat="43.29325" lon="-1.68963">
        <ele>172</ele>
        <time>2026-06-28T20:11:54.000Z</time>
      </trkpt>
      <trkpt lat="43.29333" lon="-1.68962">
        <ele>170</ele>
        <time>2026-06-28T20:11:55.000Z</time>
      </trkpt>
      <trkpt lat="43.2934" lon="-1.68965">
        <ele>169</ele>
        <time>2026-06-28T20:11:57.000Z</time>
      </trkpt>
      <trkpt lat="43.2935" lon="-1.68977">
        <ele>171</ele>
        <time>2026-06-28T20:11:59.000Z</time>
      </trkpt>
      <trkpt lat="43.29353" lon="-1.68985">
        <ele>173</ele>
        <time>2026-06-28T20:12:00.000Z</time>
      </trkpt>
      <trkpt lat="43.29359" lon="-1.69012">
        <ele>180</ele>
        <time>2026-06-28T20:12:04.000Z</time>
      </trkpt>
      <trkpt lat="43.29362" lon="-1.6904">
        <ele>189</ele>
        <time>2026-06-28T20:12:07.000Z</time>
      </trkpt>
      <trkpt lat="43.29365" lon="-1.69048">
        <ele>191</ele>
        <time>2026-06-28T20:12:09.000Z</time>
      </trkpt>
      <trkpt lat="43.29371" lon="-1.69055">
        <ele>192</ele>
        <time>2026-06-28T20:12:10.000Z</time>
      </trkpt>
      <trkpt lat="43.29391" lon="-1.69054">
        <ele>189</ele>
        <time>2026-06-28T20:12:14.000Z</time>
      </trkpt>
      <trkpt lat="43.29397" lon="-1.69057">
        <ele>189</ele>
        <time>2026-06-28T20:12:15.000Z</time>
      </trkpt>
      <trkpt lat="43.29414" lon="-1.69076">
        <ele>193</ele>
        <time>2026-06-28T20:12:19.000Z</time>
      </trkpt>
      <trkpt lat="43.29424" lon="-1.69096">
        <ele>198</ele>
        <time>2026-06-28T20:12:22.000Z</time>
      </trkpt>
      <trkpt lat="43.29429" lon="-1.691">
        <ele>199</ele>
        <time>2026-06-28T20:12:23.000Z</time>
      </trkpt>
      <trkpt lat="43.29435" lon="-1.691">
        <ele>199</ele>
        <time>2026-06-28T20:12:24.000Z</time>
      </trkpt>
      <trkpt lat="43.29442" lon="-1.69098">
        <ele>198</ele>
        <time>2026-06-28T20:12:25.000Z</time>
      </trkpt>
      <trkpt lat="43.29447" lon="-1.69091">
        <ele>196</ele>
        <time>2026-06-28T20:12:26.000Z</time>
      </trkpt>
      <trkpt lat="43.29457" lon="-1.6907">
        <ele>189</ele>
        <time>2026-06-28T20:12:30.000Z</time>
      </trkpt>
      <trkpt lat="43.29461" lon="-1.69065">
        <ele>188</ele>
        <time>2026-06-28T20:12:31.000Z</time>
      </trkpt>
      <trkpt lat="43.29467" lon="-1.69061">
        <ele>186</ele>
        <time>2026-06-28T20:12:32.000Z</time>
      </trkpt>
      <trkpt lat="43.29474" lon="-1.69062">
        <ele>187</ele>
        <time>2026-06-28T20:12:33.000Z</time>
      </trkpt>
      <trkpt lat="43.2948" lon="-1.69066">
        <ele>188</ele>
        <time>2026-06-28T20:12:34.000Z</time>
      </trkpt>
      <trkpt lat="43.29499" lon="-1.69105">
        <ele>198</ele>
        <time>2026-06-28T20:12:40.000Z</time>
      </trkpt>
      <trkpt lat="43.29514" lon="-1.69119">
        <ele>204</ele>
        <time>2026-06-28T20:12:44.000Z</time>
      </trkpt>
      <trkpt lat="43.29526" lon="-1.69125">
        <ele>207</ele>
        <time>2026-06-28T20:12:46.000Z</time>
      </trkpt>
      <trkpt lat="43.29533" lon="-1.69125">
        <ele>208</ele>
        <time>2026-06-28T20:12:47.000Z</time>
      </trkpt>
      <trkpt lat="43.29546" lon="-1.69118">
        <ele>209</ele>
        <time>2026-06-28T20:12:50.000Z</time>
      </trkpt>
      <trkpt lat="43.29553" lon="-1.69107">
        <ele>208</ele>
        <time>2026-06-28T20:12:51.000Z</time>
      </trkpt>
      <trkpt lat="43.29557" lon="-1.691">
        <ele>207</ele>
        <time>2026-06-28T20:12:53.000Z</time>
      </trkpt>
      <trkpt lat="43.29558" lon="-1.69087">
        <ele>205</ele>
        <time>2026-06-28T20:12:54.000Z</time>
      </trkpt>
      <trkpt lat="43.29562" lon="-1.69067">
        <ele>201</ele>
        <time>2026-06-28T20:12:57.000Z</time>
      </trkpt>
      <trkpt lat="43.29577" lon="-1.69026">
        <ele>195</ele>
        <time>2026-06-28T20:13:03.000Z</time>
      </trkpt>
      <trkpt lat="43.29589" lon="-1.69016">
        <ele>196</ele>
        <time>2026-06-28T20:13:05.000Z</time>
      </trkpt>
      <trkpt lat="43.29615" lon="-1.68998">
        <ele>197</ele>
        <time>2026-06-28T20:13:11.000Z</time>
      </trkpt>
      <trkpt lat="43.29627" lon="-1.68992">
        <ele>199</ele>
        <time>2026-06-28T20:13:13.000Z</time>
      </trkpt>
      <trkpt lat="43.2964" lon="-1.68989">
        <ele>201</ele>
        <time>2026-06-28T20:13:15.000Z</time>
      </trkpt>
      <trkpt lat="43.29653" lon="-1.6899">
        <ele>204</ele>
        <time>2026-06-28T20:13:18.000Z</time>
      </trkpt>
      <trkpt lat="43.29665" lon="-1.68988">
        <ele>206</ele>
        <time>2026-06-28T20:13:20.000Z</time>
      </trkpt>
      <trkpt lat="43.2967" lon="-1.68983">
        <ele>206</ele>
        <time>2026-06-28T20:13:21.000Z</time>
      </trkpt>
      <trkpt lat="43.29674" lon="-1.68977">
        <ele>206</ele>
        <time>2026-06-28T20:13:22.000Z</time>
      </trkpt>
      <trkpt lat="43.29679" lon="-1.68955">
        <ele>202</ele>
        <time>2026-06-28T20:13:25.000Z</time>
      </trkpt>
      <trkpt lat="43.29683" lon="-1.68949">
        <ele>201</ele>
        <time>2026-06-28T20:13:26.000Z</time>
      </trkpt>
      <trkpt lat="43.29689" lon="-1.68945">
        <ele>201</ele>
        <time>2026-06-28T20:13:27.000Z</time>
      </trkpt>
      <trkpt lat="43.29708" lon="-1.68946">
        <ele>203</ele>
        <time>2026-06-28T20:13:30.000Z</time>
      </trkpt>
      <trkpt lat="43.29719" lon="-1.68946">
        <ele>204</ele>
        <time>2026-06-28T20:13:32.000Z</time>
      </trkpt>
      <trkpt lat="43.29759" lon="-1.68939">
        <ele>206</ele>
        <time>2026-06-28T20:13:40.000Z</time>
      </trkpt>
      <trkpt lat="43.2978" lon="-1.68942">
        <ele>209</ele>
        <time>2026-06-28T20:13:43.000Z</time>
      </trkpt>
      <trkpt lat="43.29804" lon="-1.68952">
        <ele>213</ele>
        <time>2026-06-28T20:13:48.000Z</time>
      </trkpt>
      <trkpt lat="43.29817" lon="-1.68956">
        <ele>215</ele>
        <time>2026-06-28T20:13:50.000Z</time>
      </trkpt>
      <trkpt lat="43.29829" lon="-1.68954">
        <ele>216</ele>
        <time>2026-06-28T20:13:52.000Z</time>
      </trkpt>
      <trkpt lat="43.29852" lon="-1.68941">
        <ele>213</ele>
        <time>2026-06-28T20:13:57.000Z</time>
      </trkpt>
      <trkpt lat="43.2986" lon="-1.68941">
        <ele>213</ele>
        <time>2026-06-28T20:13:58.000Z</time>
      </trkpt>
      <trkpt lat="43.29867" lon="-1.68943">
        <ele>214</ele>
        <time>2026-06-28T20:13:59.000Z</time>
      </trkpt>
      <trkpt lat="43.29899" lon="-1.68966">
        <ele>221</ele>
        <time>2026-06-28T20:14:06.000Z</time>
      </trkpt>
      <trkpt lat="43.29923" lon="-1.68974">
        <ele>224</ele>
        <time>2026-06-28T20:14:10.000Z</time>
      </trkpt>
      <trkpt lat="43.29934" lon="-1.68981">
        <ele>226</ele>
        <time>2026-06-28T20:14:12.000Z</time>
      </trkpt>
      <trkpt lat="43.29945" lon="-1.68992">
        <ele>229</ele>
        <time>2026-06-28T20:14:15.000Z</time>
      </trkpt>
      <trkpt lat="43.29963" lon="-1.69019">
        <ele>238</ele>
        <time>2026-06-28T20:14:20.000Z</time>
      </trkpt>
      <trkpt lat="43.29975" lon="-1.69023">
        <ele>239</ele>
        <time>2026-06-28T20:14:22.000Z</time>
      </trkpt>
      <trkpt lat="43.2998" lon="-1.69021">
        <ele>239</ele>
        <time>2026-06-28T20:14:23.000Z</time>
      </trkpt>
      <trkpt lat="43.29988" lon="-1.69014">
        <ele>236</ele>
        <time>2026-06-28T20:14:24.000Z</time>
      </trkpt>
      <trkpt lat="43.30012" lon="-1.68966">
        <ele>228</ele>
        <time>2026-06-28T20:14:32.000Z</time>
      </trkpt>
      <trkpt lat="43.30025" lon="-1.68947">
        <ele>226</ele>
        <time>2026-06-28T20:14:35.000Z</time>
      </trkpt>
      <trkpt lat="43.30042" lon="-1.68931">
        <ele>226</ele>
        <time>2026-06-28T20:14:39.000Z</time>
      </trkpt>
      <trkpt lat="43.30053" lon="-1.68923">
        <ele>226</ele>
        <time>2026-06-28T20:14:41.000Z</time>
      </trkpt>
      <trkpt lat="43.30059" lon="-1.68921">
        <ele>227</ele>
        <time>2026-06-28T20:14:42.000Z</time>
      </trkpt>
      <trkpt lat="43.30086" lon="-1.68917">
        <ele>230</ele>
        <time>2026-06-28T20:14:47.000Z</time>
      </trkpt>
      <trkpt lat="43.30106" lon="-1.6892">
        <ele>233</ele>
        <time>2026-06-28T20:14:51.000Z</time>
      </trkpt>
      <trkpt lat="43.30125" lon="-1.6892">
        <ele>235</ele>
        <time>2026-06-28T20:14:54.000Z</time>
      </trkpt>
      <trkpt lat="43.30152" lon="-1.68913">
        <ele>235</ele>
        <time>2026-06-28T20:14:59.000Z</time>
      </trkpt>
      <trkpt lat="43.30165" lon="-1.68913">
        <ele>237</ele>
        <time>2026-06-28T20:15:01.000Z</time>
      </trkpt>
      <trkpt lat="43.30178" lon="-1.68917">
        <ele>239</ele>
        <time>2026-06-28T20:15:04.000Z</time>
      </trkpt>
      <trkpt lat="43.30201" lon="-1.68929">
        <ele>246</ele>
        <time>2026-06-28T20:15:08.000Z</time>
      </trkpt>
      <trkpt lat="43.30224" lon="-1.68937">
        <ele>251</ele>
        <time>2026-06-28T20:15:12.000Z</time>
      </trkpt>
      <trkpt lat="43.30244" lon="-1.68939">
        <ele>253</ele>
        <time>2026-06-28T20:15:16.000Z</time>
      </trkpt>
      <trkpt lat="43.30271" lon="-1.68935">
        <ele>252</ele>
        <time>2026-06-28T20:15:21.000Z</time>
      </trkpt>
      <trkpt lat="43.30284" lon="-1.68936">
        <ele>252</ele>
        <time>2026-06-28T20:15:23.000Z</time>
      </trkpt>
      <trkpt lat="43.30296" lon="-1.68941">
        <ele>254</ele>
        <time>2026-06-28T20:15:25.000Z</time>
      </trkpt>
      <trkpt lat="43.30326" lon="-1.68958">
        <ele>261</ele>
        <time>2026-06-28T20:15:31.000Z</time>
      </trkpt>
      <trkpt lat="43.30338" lon="-1.68962">
        <ele>263</ele>
        <time>2026-06-28T20:15:33.000Z</time>
      </trkpt>
      <trkpt lat="43.30351" lon="-1.68961">
        <ele>263</ele>
        <time>2026-06-28T20:15:35.000Z</time>
      </trkpt>
      <trkpt lat="43.30391" lon="-1.6895">
        <ele>259</ele>
        <time>2026-06-28T20:15:43.000Z</time>
      </trkpt>
      <trkpt lat="43.30405" lon="-1.68944">
        <ele>257</ele>
        <time>2026-06-28T20:15:45.000Z</time>
      </trkpt>
      <trkpt lat="43.30411" lon="-1.68938">
        <ele>255</ele>
        <time>2026-06-28T20:15:47.000Z</time>
      </trkpt>
      <trkpt lat="43.30428" lon="-1.68917">
        <ele>249</ele>
        <time>2026-06-28T20:15:51.000Z</time>
      </trkpt>
      <trkpt lat="43.30434" lon="-1.68911">
        <ele>249</ele>
        <time>2026-06-28T20:15:52.000Z</time>
      </trkpt>
      <trkpt lat="43.30466" lon="-1.68901">
        <ele>252</ele>
        <time>2026-06-28T20:15:58.000Z</time>
      </trkpt>
      <trkpt lat="43.30474" lon="-1.68898">
        <ele>252</ele>
        <time>2026-06-28T20:15:59.000Z</time>
      </trkpt>
      <trkpt lat="43.30495" lon="-1.68882">
        <ele>252</ele>
        <time>2026-06-28T20:16:04.000Z</time>
      </trkpt>
      <trkpt lat="43.30512" lon="-1.68863">
        <ele>248</ele>
        <time>2026-06-28T20:16:08.000Z</time>
      </trkpt>
      <trkpt lat="43.30518" lon="-1.68859">
        <ele>247</ele>
        <time>2026-06-28T20:16:09.000Z</time>
      </trkpt>
      <trkpt lat="43.30526" lon="-1.68857">
        <ele>247</ele>
        <time>2026-06-28T20:16:10.000Z</time>
      </trkpt>
      <trkpt lat="43.30533" lon="-1.6886">
        <ele>248</ele>
        <time>2026-06-28T20:16:11.000Z</time>
      </trkpt>
      <trkpt lat="43.3054" lon="-1.68865">
        <ele>249</ele>
        <time>2026-06-28T20:16:13.000Z</time>
      </trkpt>
      <trkpt lat="43.30568" lon="-1.68906">
        <ele>259</ele>
        <time>2026-06-28T20:16:20.000Z</time>
      </trkpt>
      <trkpt lat="43.30595" lon="-1.68984">
        <ele>275</ele>
        <time>2026-06-28T20:16:31.000Z</time>
      </trkpt>
      <trkpt lat="43.306" lon="-1.69004">
        <ele>279</ele>
        <time>2026-06-28T20:16:34.000Z</time>
      </trkpt>
      <trkpt lat="43.30604" lon="-1.69014">
        <ele>282</ele>
        <time>2026-06-28T20:16:36.000Z</time>
      </trkpt>
      <trkpt lat="43.30612" lon="-1.69016">
        <ele>282</ele>
        <time>2026-06-28T20:16:37.000Z</time>
      </trkpt>
      <trkpt lat="43.30618" lon="-1.6901">
        <ele>280</ele>
        <time>2026-06-28T20:16:38.000Z</time>
      </trkpt>
      <trkpt lat="43.30632" lon="-1.68975">
        <ele>272</ele>
        <time>2026-06-28T20:16:43.000Z</time>
      </trkpt>
      <trkpt lat="43.30641" lon="-1.6896">
        <ele>269</ele>
        <time>2026-06-28T20:16:46.000Z</time>
      </trkpt>
      <trkpt lat="43.30664" lon="-1.68937">
        <ele>264</ele>
        <time>2026-06-28T20:16:51.000Z</time>
      </trkpt>
      <trkpt lat="43.30677" lon="-1.6893">
        <ele>264</ele>
        <time>2026-06-28T20:16:54.000Z</time>
      </trkpt>
      <trkpt lat="43.30684" lon="-1.68928">
        <ele>264</ele>
        <time>2026-06-28T20:16:55.000Z</time>
      </trkpt>
      <trkpt lat="43.30712" lon="-1.68933">
        <ele>269</ele>
        <time>2026-06-28T20:17:00.000Z</time>
      </trkpt>
      <trkpt lat="43.30738" lon="-1.68945">
        <ele>274</ele>
        <time>2026-06-28T20:17:05.000Z</time>
      </trkpt>
      <trkpt lat="43.30757" lon="-1.68954">
        <ele>278</ele>
        <time>2026-06-28T20:17:08.000Z</time>
      </trkpt>
      <trkpt lat="43.30774" lon="-1.68968">
        <ele>283</ele>
        <time>2026-06-28T20:17:12.000Z</time>
      </trkpt>
      <trkpt lat="43.30781" lon="-1.68972">
        <ele>284</ele>
        <time>2026-06-28T20:17:13.000Z</time>
      </trkpt>
      <trkpt lat="43.30787" lon="-1.68971">
        <ele>284</ele>
        <time>2026-06-28T20:17:14.000Z</time>
      </trkpt>
      <trkpt lat="43.30793" lon="-1.68967">
        <ele>284</ele>
        <time>2026-06-28T20:17:15.000Z</time>
      </trkpt>
      <trkpt lat="43.30799" lon="-1.68955">
        <ele>283</ele>
        <time>2026-06-28T20:17:17.000Z</time>
      </trkpt>
      <trkpt lat="43.30806" lon="-1.68935">
        <ele>282</ele>
        <time>2026-06-28T20:17:20.000Z</time>
      </trkpt>
      <trkpt lat="43.30811" lon="-1.6893">
        <ele>282</ele>
        <time>2026-06-28T20:17:21.000Z</time>
      </trkpt>
      <trkpt lat="43.30819" lon="-1.68924">
        <ele>282</ele>
        <time>2026-06-28T20:17:23.000Z</time>
      </trkpt>
      <trkpt lat="43.3083" lon="-1.68924">
        <ele>284</ele>
        <time>2026-06-28T20:17:25.000Z</time>
      </trkpt>
      <trkpt lat="43.30836" lon="-1.68927">
        <ele>286</ele>
        <time>2026-06-28T20:17:26.000Z</time>
      </trkpt>
      <trkpt lat="43.3086" lon="-1.68944">
        <ele>293</ele>
        <time>2026-06-28T20:17:31.000Z</time>
      </trkpt>
      <trkpt lat="43.30871" lon="-1.68947">
        <ele>295</ele>
        <time>2026-06-28T20:17:33.000Z</time>
      </trkpt>
      <trkpt lat="43.30879" lon="-1.68937">
        <ele>297</ele>
        <time>2026-06-28T20:17:35.000Z</time>
      </trkpt>
      <trkpt lat="43.3088" lon="-1.6893">
        <ele>297</ele>
        <time>2026-06-28T20:17:36.000Z</time>
      </trkpt>
      <trkpt lat="43.30879" lon="-1.68921">
        <ele>296</ele>
        <time>2026-06-28T20:17:37.000Z</time>
      </trkpt>
      <trkpt lat="43.30867" lon="-1.68882">
        <ele>297</ele>
        <time>2026-06-28T20:17:42.000Z</time>
      </trkpt>
      <trkpt lat="43.30859" lon="-1.68862">
        <ele>296</ele>
        <time>2026-06-28T20:17:45.000Z</time>
      </trkpt>
      <trkpt lat="43.30855" lon="-1.68825">
        <ele>300</ele>
        <time>2026-06-28T20:17:50.000Z</time>
      </trkpt>
      <trkpt lat="43.30853" lon="-1.6882">
        <ele>300</ele>
        <time>2026-06-28T20:17:51.000Z</time>
      </trkpt>
      <trkpt lat="43.30845" lon="-1.68812">
        <ele>299</ele>
        <time>2026-06-28T20:17:53.000Z</time>
      </trkpt>
      <trkpt lat="43.30834" lon="-1.6881">
        <ele>296</ele>
        <time>2026-06-28T20:17:55.000Z</time>
      </trkpt>
      <trkpt lat="43.30828" lon="-1.68812">
        <ele>294</ele>
        <time>2026-06-28T20:17:56.000Z</time>
      </trkpt>
      <trkpt lat="43.30822" lon="-1.68811">
        <ele>293</ele>
        <time>2026-06-28T20:17:57.000Z</time>
      </trkpt>
      <trkpt lat="43.30791" lon="-1.6879">
        <ele>290</ele>
        <time>2026-06-28T20:18:03.000Z</time>
      </trkpt>
      <trkpt lat="43.30785" lon="-1.68784">
        <ele>290</ele>
        <time>2026-06-28T20:18:04.000Z</time>
      </trkpt>
      <trkpt lat="43.30772" lon="-1.68765">
        <ele>291</ele>
        <time>2026-06-28T20:18:08.000Z</time>
      </trkpt>
      <trkpt lat="43.30769" lon="-1.68759">
        <ele>291</ele>
        <time>2026-06-28T20:18:09.000Z</time>
      </trkpt>
      <trkpt lat="43.30766" lon="-1.6874">
        <ele>292</ele>
        <time>2026-06-28T20:18:11.000Z</time>
      </trkpt>
      <trkpt lat="43.30767" lon="-1.68723">
        <ele>292</ele>
        <time>2026-06-28T20:18:13.000Z</time>
      </trkpt>
      <trkpt lat="43.30777" lon="-1.68671">
        <ele>294</ele>
        <time>2026-06-28T20:18:20.000Z</time>
      </trkpt>
      <trkpt lat="43.3078" lon="-1.68664">
        <ele>295</ele>
        <time>2026-06-28T20:18:21.000Z</time>
      </trkpt>
      <trkpt lat="43.30785" lon="-1.68657">
        <ele>295</ele>
        <time>2026-06-28T20:18:23.000Z</time>
      </trkpt>
      <trkpt lat="43.3079" lon="-1.68652">
        <ele>295</ele>
        <time>2026-06-28T20:18:24.000Z</time>
      </trkpt>
      <trkpt lat="43.30801" lon="-1.68645">
        <ele>297</ele>
        <time>2026-06-28T20:18:26.000Z</time>
      </trkpt>
      <trkpt lat="43.30822" lon="-1.68639">
        <ele>303</ele>
        <time>2026-06-28T20:18:30.000Z</time>
      </trkpt>
      <trkpt lat="43.30846" lon="-1.68629">
        <ele>307</ele>
        <time>2026-06-28T20:18:34.000Z</time>
      </trkpt>
      <trkpt lat="43.30858" lon="-1.6862">
        <ele>309</ele>
        <time>2026-06-28T20:18:37.000Z</time>
      </trkpt>
      <trkpt lat="43.30862" lon="-1.68615">
        <ele>309</ele>
        <time>2026-06-28T20:18:37.000Z</time>
      </trkpt>
      <trkpt lat="43.30863" lon="-1.68607">
        <ele>308</ele>
        <time>2026-06-28T20:18:39.000Z</time>
      </trkpt>
      <trkpt lat="43.30863" lon="-1.68584">
        <ele>305</ele>
        <time>2026-06-28T20:18:42.000Z</time>
      </trkpt>
      <trkpt lat="43.30866" lon="-1.6853">
        <ele>302</ele>
        <time>2026-06-28T20:18:49.000Z</time>
      </trkpt>
      <trkpt lat="43.30871" lon="-1.68512">
        <ele>302</ele>
        <time>2026-06-28T20:18:51.000Z</time>
      </trkpt>
      <trkpt lat="43.30874" lon="-1.68504">
        <ele>302</ele>
        <time>2026-06-28T20:18:52.000Z</time>
      </trkpt>
      <trkpt lat="43.30888" lon="-1.68484">
        <ele>306</ele>
        <time>2026-06-28T20:18:56.000Z</time>
      </trkpt>
      <trkpt lat="43.30899" lon="-1.68464">
        <ele>308</ele>
        <time>2026-06-28T20:18:59.000Z</time>
      </trkpt>
      <trkpt lat="43.30912" lon="-1.68432">
        <ele>312</ele>
        <time>2026-06-28T20:19:04.000Z</time>
      </trkpt>
      <trkpt lat="43.30917" lon="-1.68426">
        <ele>313</ele>
        <time>2026-06-28T20:19:05.000Z</time>
      </trkpt>
      <trkpt lat="43.30928" lon="-1.6842">
        <ele>314</ele>
        <time>2026-06-28T20:19:07.000Z</time>
      </trkpt>
      <trkpt lat="43.30934" lon="-1.68419">
        <ele>315</ele>
        <time>2026-06-28T20:19:08.000Z</time>
      </trkpt>
      <trkpt lat="43.30957" lon="-1.68425">
        <ele>316</ele>
        <time>2026-06-28T20:19:12.000Z</time>
      </trkpt>
      <trkpt lat="43.30963" lon="-1.68425">
        <ele>317</ele>
        <time>2026-06-28T20:19:13.000Z</time>
      </trkpt>
      <trkpt lat="43.30973" lon="-1.6842">
        <ele>318</ele>
        <time>2026-06-28T20:19:15.000Z</time>
      </trkpt>
      <trkpt lat="43.30971" lon="-1.68426">
        <ele>317</ele>
        <time>2026-06-28T20:19:16.000Z</time>
      </trkpt>
      <trkpt lat="43.30976" lon="-1.6843">
        <ele>318</ele>
        <time>2026-06-28T20:19:17.000Z</time>
      </trkpt>
      <trkpt lat="43.31041" lon="-1.68452">
        <ele>317</ele>
        <time>2026-06-28T20:19:29.000Z</time>
      </trkpt>
      <trkpt lat="43.31084" lon="-1.68463">
        <ele>314</ele>
        <time>2026-06-28T20:19:37.000Z</time>
      </trkpt>
      <trkpt lat="43.31127" lon="-1.68478">
        <ele>312</ele>
        <time>2026-06-28T20:19:45.000Z</time>
      </trkpt>
      <trkpt lat="43.31171" lon="-1.68486">
        <ele>310</ele>
        <time>2026-06-28T20:19:53.000Z</time>
      </trkpt>
      <trkpt lat="43.31187" lon="-1.68486">
        <ele>310</ele>
        <time>2026-06-28T20:19:55.000Z</time>
      </trkpt>
      <trkpt lat="43.31201" lon="-1.68479">
        <ele>310</ele>
        <time>2026-06-28T20:19:58.000Z</time>
      </trkpt>
      <trkpt lat="43.31207" lon="-1.68477">
        <ele>310</ele>
        <time>2026-06-28T20:19:59.000Z</time>
      </trkpt>
      <trkpt lat="43.31214" lon="-1.68477">
        <ele>310</ele>
        <time>2026-06-28T20:20:00.000Z</time>
      </trkpt>
      <trkpt lat="43.31254" lon="-1.68486">
        <ele>306</ele>
        <time>2026-06-28T20:20:08.000Z</time>
      </trkpt>
      <trkpt lat="43.31271" lon="-1.68491">
        <ele>304</ele>
        <time>2026-06-28T20:20:11.000Z</time>
      </trkpt>
      <trkpt lat="43.31287" lon="-1.68492">
        <ele>303</ele>
        <time>2026-06-28T20:20:14.000Z</time>
      </trkpt>
      <trkpt lat="43.31319" lon="-1.68479">
        <ele>303</ele>
        <time>2026-06-28T20:20:20.000Z</time>
      </trkpt>
      <trkpt lat="43.31335" lon="-1.68477">
        <ele>303</ele>
        <time>2026-06-28T20:20:22.000Z</time>
      </trkpt>
      <trkpt lat="43.31341" lon="-1.68478">
        <ele>303</ele>
        <time>2026-06-28T20:20:24.000Z</time>
      </trkpt>
      <trkpt lat="43.31366" lon="-1.68492">
        <ele>299</ele>
        <time>2026-06-28T20:20:28.000Z</time>
      </trkpt>
      <trkpt lat="43.31373" lon="-1.68493">
        <ele>299</ele>
        <time>2026-06-28T20:20:30.000Z</time>
      </trkpt>
      <trkpt lat="43.31458" lon="-1.68489">
        <ele>296</ele>
        <time>2026-06-28T20:20:45.000Z</time>
      </trkpt>
      <trkpt lat="43.31472" lon="-1.68495">
        <ele>294</ele>
        <time>2026-06-28T20:20:47.000Z</time>
      </trkpt>
      <trkpt lat="43.31483" lon="-1.68504">
        <ele>291</ele>
        <time>2026-06-28T20:20:50.000Z</time>
      </trkpt>
      <trkpt lat="43.3149" lon="-1.68507">
        <ele>289</ele>
        <time>2026-06-28T20:20:51.000Z</time>
      </trkpt>
      <trkpt lat="43.31497" lon="-1.68508">
        <ele>289</ele>
        <time>2026-06-28T20:20:52.000Z</time>
      </trkpt>
      <trkpt lat="43.31522" lon="-1.68507">
        <ele>287</ele>
        <time>2026-06-28T20:20:57.000Z</time>
      </trkpt>
      <trkpt lat="43.31541" lon="-1.6851">
        <ele>285</ele>
        <time>2026-06-28T20:21:00.000Z</time>
      </trkpt>
      <trkpt lat="43.3155" lon="-1.68509">
        <ele>285</ele>
        <time>2026-06-28T20:21:02.000Z</time>
      </trkpt>
      <trkpt lat="43.31573" lon="-1.685">
        <ele>285</ele>
        <time>2026-06-28T20:21:06.000Z</time>
      </trkpt>
      <trkpt lat="43.31582" lon="-1.68499">
        <ele>284</ele>
        <time>2026-06-28T20:21:07.000Z</time>
      </trkpt>
      <trkpt lat="43.31641" lon="-1.68517">
        <ele>277</ele>
        <time>2026-06-28T20:21:18.000Z</time>
      </trkpt>
      <trkpt lat="43.3165" lon="-1.68519">
        <ele>276</ele>
        <time>2026-06-28T20:21:20.000Z</time>
      </trkpt>
      <trkpt lat="43.3167" lon="-1.6852">
        <ele>275</ele>
        <time>2026-06-28T20:21:23.000Z</time>
      </trkpt>
      <trkpt lat="43.31699" lon="-1.68516">
        <ele>273</ele>
        <time>2026-06-28T20:21:29.000Z</time>
      </trkpt>
      <trkpt lat="43.3172" lon="-1.68502">
        <ele>275</ele>
        <time>2026-06-28T20:21:33.000Z</time>
      </trkpt>
      <trkpt lat="43.31732" lon="-1.68497">
        <ele>275</ele>
        <time>2026-06-28T20:21:35.000Z</time>
      </trkpt>
      <trkpt lat="43.31745" lon="-1.68497">
        <ele>273</ele>
        <time>2026-06-28T20:21:37.000Z</time>
      </trkpt>
      <trkpt lat="43.31768" lon="-1.68502">
        <ele>269</ele>
        <time>2026-06-28T20:21:41.000Z</time>
      </trkpt>
      <trkpt lat="43.31777" lon="-1.68502">
        <ele>269</ele>
        <time>2026-06-28T20:21:43.000Z</time>
      </trkpt>
      <trkpt lat="43.31812" lon="-1.68494">
        <ele>267</ele>
        <time>2026-06-28T20:21:49.000Z</time>
      </trkpt>
      <trkpt lat="43.3185" lon="-1.68498">
        <ele>262</ele>
        <time>2026-06-28T20:21:56.000Z</time>
      </trkpt>
      <trkpt lat="43.31878" lon="-1.68494">
        <ele>261</ele>
        <time>2026-06-28T20:22:01.000Z</time>
      </trkpt>
      <trkpt lat="43.31905" lon="-1.68499">
        <ele>258</ele>
        <time>2026-06-28T20:22:06.000Z</time>
      </trkpt>
      <trkpt lat="43.31924" lon="-1.68499">
        <ele>257</ele>
        <time>2026-06-28T20:22:09.000Z</time>
      </trkpt>
      <trkpt lat="43.31972" lon="-1.68514">
        <ele>251</ele>
        <time>2026-06-28T20:22:18.000Z</time>
      </trkpt>
      <trkpt lat="43.32004" lon="-1.68521">
        <ele>247</ele>
        <time>2026-06-28T20:22:24.000Z</time>
      </trkpt>
      <trkpt lat="43.32012" lon="-1.68521">
        <ele>246</ele>
        <time>2026-06-28T20:22:25.000Z</time>
      </trkpt>
      <trkpt lat="43.32019" lon="-1.68518">
        <ele>246</ele>
        <time>2026-06-28T20:22:27.000Z</time>
      </trkpt>
      <trkpt lat="43.32034" lon="-1.68507">
        <ele>247</ele>
        <time>2026-06-28T20:22:30.000Z</time>
      </trkpt>
      <trkpt lat="43.32045" lon="-1.68489">
        <ele>248</ele>
        <time>2026-06-28T20:22:33.000Z</time>
      </trkpt>
      <trkpt lat="43.32065" lon="-1.68441">
        <ele>249</ele>
        <time>2026-06-28T20:22:40.000Z</time>
      </trkpt>
      <trkpt lat="43.3207" lon="-1.68434">
        <ele>249</ele>
        <time>2026-06-28T20:22:41.000Z</time>
      </trkpt>
      <trkpt lat="43.32075" lon="-1.68429">
        <ele>248</ele>
        <time>2026-06-28T20:22:42.000Z</time>
      </trkpt>
      <trkpt lat="43.32081" lon="-1.68428">
        <ele>247</ele>
        <time>2026-06-28T20:22:43.000Z</time>
      </trkpt>
      <trkpt lat="43.32087" lon="-1.68429">
        <ele>248</ele>
        <time>2026-06-28T20:22:44.000Z</time>
      </trkpt>
      <trkpt lat="43.32093" lon="-1.68433">
        <ele>248</ele>
        <time>2026-06-28T20:22:46.000Z</time>
      </trkpt>
      <trkpt lat="43.32097" lon="-1.6844">
        <ele>249</ele>
        <time>2026-06-28T20:22:47.000Z</time>
      </trkpt>
      <trkpt lat="43.32112" lon="-1.68476">
        <ele>248</ele>
        <time>2026-06-28T20:22:52.000Z</time>
      </trkpt>
      <trkpt lat="43.32128" lon="-1.68503">
        <ele>247</ele>
        <time>2026-06-28T20:22:57.000Z</time>
      </trkpt>
      <trkpt lat="43.32132" lon="-1.68513">
        <ele>246</ele>
        <time>2026-06-28T20:22:58.000Z</time>
      </trkpt>
      <trkpt lat="43.32139" lon="-1.68559">
        <ele>236</ele>
        <time>2026-06-28T20:23:04.000Z</time>
      </trkpt>
      <trkpt lat="43.32143" lon="-1.6857">
        <ele>234</ele>
        <time>2026-06-28T20:23:06.000Z</time>
      </trkpt>
      <trkpt lat="43.3215" lon="-1.68578">
        <ele>232</ele>
        <time>2026-06-28T20:23:07.000Z</time>
      </trkpt>
      <trkpt lat="43.32158" lon="-1.68584">
        <ele>231</ele>
        <time>2026-06-28T20:23:09.000Z</time>
      </trkpt>
      <trkpt lat="43.32177" lon="-1.68588">
        <ele>232</ele>
        <time>2026-06-28T20:23:12.000Z</time>
      </trkpt>
      <trkpt lat="43.32197" lon="-1.68589">
        <ele>234</ele>
        <time>2026-06-28T20:23:16.000Z</time>
      </trkpt>
      <trkpt lat="43.32228" lon="-1.68594">
        <ele>235</ele>
        <time>2026-06-28T20:23:21.000Z</time>
      </trkpt>
      <trkpt lat="43.32291" lon="-1.68626">
        <ele>230</ele>
        <time>2026-06-28T20:23:33.000Z</time>
      </trkpt>
      <trkpt lat="43.32323" lon="-1.68637">
        <ele>227</ele>
        <time>2026-06-28T20:23:39.000Z</time>
      </trkpt>
      <trkpt lat="43.32352" lon="-1.68657">
        <ele>219</ele>
        <time>2026-06-28T20:23:45.000Z</time>
      </trkpt>
      <trkpt lat="43.32361" lon="-1.68659">
        <ele>218</ele>
        <time>2026-06-28T20:23:47.000Z</time>
      </trkpt>
      <trkpt lat="43.3237" lon="-1.68658">
        <ele>218</ele>
        <time>2026-06-28T20:23:48.000Z</time>
      </trkpt>
      <trkpt lat="43.3238" lon="-1.68655">
        <ele>218</ele>
        <time>2026-06-28T20:23:50.000Z</time>
      </trkpt>
      <trkpt lat="43.32416" lon="-1.68632">
        <ele>223</ele>
        <time>2026-06-28T20:23:57.000Z</time>
      </trkpt>
      <trkpt lat="43.32425" lon="-1.68628">
        <ele>224</ele>
        <time>2026-06-28T20:23:59.000Z</time>
      </trkpt>
      <trkpt lat="43.32442" lon="-1.68627">
        <ele>224</ele>
        <time>2026-06-28T20:24:02.000Z</time>
      </trkpt>
      <trkpt lat="43.32459" lon="-1.68631">
        <ele>222</ele>
        <time>2026-06-28T20:24:05.000Z</time>
      </trkpt>
      <trkpt lat="43.32476" lon="-1.6864">
        <ele>219</ele>
        <time>2026-06-28T20:24:08.000Z</time>
      </trkpt>
      <trkpt lat="43.32493" lon="-1.68653">
        <ele>214</ele>
        <time>2026-06-28T20:24:12.000Z</time>
      </trkpt>
      <trkpt lat="43.32523" lon="-1.68681">
        <ele>207</ele>
        <time>2026-06-28T20:24:18.000Z</time>
      </trkpt>
      <trkpt lat="43.3253" lon="-1.68685">
        <ele>207</ele>
        <time>2026-06-28T20:24:19.000Z</time>
      </trkpt>
      <trkpt lat="43.32538" lon="-1.68687">
        <ele>206</ele>
        <time>2026-06-28T20:24:21.000Z</time>
      </trkpt>
      <trkpt lat="43.32546" lon="-1.68685">
        <ele>206</ele>
        <time>2026-06-28T20:24:22.000Z</time>
      </trkpt>
      <trkpt lat="43.3258" lon="-1.68676">
        <ele>209</ele>
        <time>2026-06-28T20:24:29.000Z</time>
      </trkpt>
      <trkpt lat="43.32607" lon="-1.68666">
        <ele>210</ele>
        <time>2026-06-28T20:24:34.000Z</time>
      </trkpt>
      <trkpt lat="43.32616" lon="-1.68665">
        <ele>210</ele>
        <time>2026-06-28T20:24:35.000Z</time>
      </trkpt>
      <trkpt lat="43.32686" lon="-1.68682">
        <ele>201</ele>
        <time>2026-06-28T20:24:48.000Z</time>
      </trkpt>
      <trkpt lat="43.32707" lon="-1.6869">
        <ele>198</ele>
        <time>2026-06-28T20:24:52.000Z</time>
      </trkpt>
      <trkpt lat="43.32747" lon="-1.68711">
        <ele>190</ele>
        <time>2026-06-28T20:24:59.000Z</time>
      </trkpt>
      <trkpt lat="43.32766" lon="-1.68717">
        <ele>187</ele>
        <time>2026-06-28T20:25:03.000Z</time>
      </trkpt>
      <trkpt lat="43.32807" lon="-1.68721">
        <ele>182</ele>
        <time>2026-06-28T20:25:10.000Z</time>
      </trkpt>
      <trkpt lat="43.32835" lon="-1.68718">
        <ele>180</ele>
        <time>2026-06-28T20:25:15.000Z</time>
      </trkpt>
      <trkpt lat="43.32854" lon="-1.68711">
        <ele>178</ele>
        <time>2026-06-28T20:25:19.000Z</time>
      </trkpt>
      <trkpt lat="43.32918" lon="-1.6867">
        <ele>171</ele>
        <time>2026-06-28T20:25:31.000Z</time>
      </trkpt>
      <trkpt lat="43.32932" lon="-1.68657">
        <ele>169</ele>
        <time>2026-06-28T20:25:34.000Z</time>
      </trkpt>
      <trkpt lat="43.32938" lon="-1.68649">
        <ele>168</ele>
        <time>2026-06-28T20:25:36.000Z</time>
      </trkpt>
      <trkpt lat="43.32944" lon="-1.68631">
        <ele>167</ele>
        <time>2026-06-28T20:25:38.000Z</time>
      </trkpt>
      <trkpt lat="43.32944" lon="-1.68612">
        <ele>168</ele>
        <time>2026-06-28T20:25:41.000Z</time>
      </trkpt>
      <trkpt lat="43.32925" lon="-1.6854">
        <ele>169</ele>
        <time>2026-06-28T20:25:51.000Z</time>
      </trkpt>
      <trkpt lat="43.32916" lon="-1.68521">
        <ele>170</ele>
        <time>2026-06-28T20:25:53.000Z</time>
      </trkpt>
      <trkpt lat="43.32892" lon="-1.68488">
        <ele>172</ele>
        <time>2026-06-28T20:26:00.000Z</time>
      </trkpt>
      <trkpt lat="43.32883" lon="-1.6847">
        <ele>172</ele>
        <time>2026-06-28T20:26:02.000Z</time>
      </trkpt>
      <trkpt lat="43.32877" lon="-1.68449">
        <ele>172</ele>
        <time>2026-06-28T20:26:05.000Z</time>
      </trkpt>
      <trkpt lat="43.32875" lon="-1.68425">
        <ele>170</ele>
        <time>2026-06-28T20:26:08.000Z</time>
      </trkpt>
      <trkpt lat="43.32877" lon="-1.68414">
        <ele>169</ele>
        <time>2026-06-28T20:26:10.000Z</time>
      </trkpt>
      <trkpt lat="43.32894" lon="-1.6837">
        <ele>163</ele>
        <time>2026-06-28T20:26:16.000Z</time>
      </trkpt>
      <trkpt lat="43.32896" lon="-1.6836">
        <ele>162</ele>
        <time>2026-06-28T20:26:18.000Z</time>
      </trkpt>
      <trkpt lat="43.32896" lon="-1.68349">
        <ele>162</ele>
        <time>2026-06-28T20:26:19.000Z</time>
      </trkpt>
      <trkpt lat="43.32887" lon="-1.68318">
        <ele>164</ele>
        <time>2026-06-28T20:26:23.000Z</time>
      </trkpt>
      <trkpt lat="43.32886" lon="-1.68306">
        <ele>163</ele>
        <time>2026-06-28T20:26:25.000Z</time>
      </trkpt>
      <trkpt lat="43.32892" lon="-1.68255">
        <ele>157</ele>
        <time>2026-06-28T20:26:32.000Z</time>
      </trkpt>
      <trkpt lat="43.32889" lon="-1.68228">
        <ele>154</ele>
        <time>2026-06-28T20:26:35.000Z</time>
      </trkpt>
      <trkpt lat="43.32882" lon="-1.68201">
        <ele>151</ele>
        <time>2026-06-28T20:26:39.000Z</time>
      </trkpt>
      <trkpt lat="43.32877" lon="-1.6819">
        <ele>151</ele>
        <time>2026-06-28T20:26:41.000Z</time>
      </trkpt>
      <trkpt lat="43.32857" lon="-1.68164">
        <ele>151</ele>
        <time>2026-06-28T20:26:45.000Z</time>
      </trkpt>
      <trkpt lat="43.32856" lon="-1.68158">
        <ele>150</ele>
        <time>2026-06-28T20:26:46.000Z</time>
      </trkpt>
      <trkpt lat="43.32857" lon="-1.68152">
        <ele>148</ele>
        <time>2026-06-28T20:26:47.000Z</time>
      </trkpt>
      <trkpt lat="43.32861" lon="-1.68147">
        <ele>145</ele>
        <time>2026-06-28T20:26:48.000Z</time>
      </trkpt>
      <trkpt lat="43.32865" lon="-1.68147">
        <ele>144</ele>
        <time>2026-06-28T20:26:49.000Z</time>
      </trkpt>
      <trkpt lat="43.32875" lon="-1.68154">
        <ele>144</ele>
        <time>2026-06-28T20:26:51.000Z</time>
      </trkpt>
      <trkpt lat="43.32895" lon="-1.68178">
        <ele>144</ele>
        <time>2026-06-28T20:26:55.000Z</time>
      </trkpt>
      <trkpt lat="43.32907" lon="-1.68194">
        <ele>143</ele>
        <time>2026-06-28T20:26:58.000Z</time>
      </trkpt>
      <trkpt lat="43.32916" lon="-1.68213">
        <ele>142</ele>
        <time>2026-06-28T20:27:01.000Z</time>
      </trkpt>
      <trkpt lat="43.32921" lon="-1.68235">
        <ele>143</ele>
        <time>2026-06-28T20:27:04.000Z</time>
      </trkpt>
      <trkpt lat="43.32922" lon="-1.6829">
        <ele>148</ele>
        <time>2026-06-28T20:27:11.000Z</time>
      </trkpt>
      <trkpt lat="43.32925" lon="-1.68297">
        <ele>148</ele>
        <time>2026-06-28T20:27:13.000Z</time>
      </trkpt>
      <trkpt lat="43.3293" lon="-1.683">
        <ele>146</ele>
        <time>2026-06-28T20:27:13.000Z</time>
      </trkpt>
      <trkpt lat="43.32951" lon="-1.68299">
        <ele>138</ele>
        <time>2026-06-28T20:27:17.000Z</time>
      </trkpt>
      <trkpt lat="43.32958" lon="-1.683">
        <ele>136</ele>
        <time>2026-06-28T20:27:18.000Z</time>
      </trkpt>
      <trkpt lat="43.32964" lon="-1.68304">
        <ele>134</ele>
        <time>2026-06-28T20:27:20.000Z</time>
      </trkpt>
      <trkpt lat="43.3297" lon="-1.6831">
        <ele>132</ele>
        <time>2026-06-28T20:27:21.000Z</time>
      </trkpt>
      <trkpt lat="43.32979" lon="-1.68329">
        <ele>131</ele>
        <time>2026-06-28T20:27:24.000Z</time>
      </trkpt>
      <trkpt lat="43.32985" lon="-1.68346">
        <ele>131</ele>
        <time>2026-06-28T20:27:26.000Z</time>
      </trkpt>
      <trkpt lat="43.32985" lon="-1.68354">
        <ele>132</ele>
        <time>2026-06-28T20:27:27.000Z</time>
      </trkpt>
      <trkpt lat="43.32984" lon="-1.68364">
        <ele>133</ele>
        <time>2026-06-28T20:27:29.000Z</time>
      </trkpt>
      <trkpt lat="43.32975" lon="-1.68394">
        <ele>139</ele>
        <time>2026-06-28T20:27:33.000Z</time>
      </trkpt>
      <trkpt lat="43.32975" lon="-1.68407">
        <ele>140</ele>
        <time>2026-06-28T20:27:35.000Z</time>
      </trkpt>
      <trkpt lat="43.32977" lon="-1.68413">
        <ele>140</ele>
        <time>2026-06-28T20:27:35.000Z</time>
      </trkpt>
      <trkpt lat="43.32982" lon="-1.68417">
        <ele>139</ele>
        <time>2026-06-28T20:27:36.000Z</time>
      </trkpt>
      <trkpt lat="43.32987" lon="-1.68418">
        <ele>138</ele>
        <time>2026-06-28T20:27:37.000Z</time>
      </trkpt>
      <trkpt lat="43.33005" lon="-1.68413">
        <ele>132</ele>
        <time>2026-06-28T20:27:41.000Z</time>
      </trkpt>
      <trkpt lat="43.3302" lon="-1.68412">
        <ele>129</ele>
        <time>2026-06-28T20:27:43.000Z</time>
      </trkpt>
      <trkpt lat="43.33027" lon="-1.68416">
        <ele>128</ele>
        <time>2026-06-28T20:27:45.000Z</time>
      </trkpt>
      <trkpt lat="43.33041" lon="-1.68427">
        <ele>126</ele>
        <time>2026-06-28T20:27:48.000Z</time>
      </trkpt>
      <trkpt lat="43.33055" lon="-1.68444">
        <ele>124</ele>
        <time>2026-06-28T20:27:51.000Z</time>
      </trkpt>
      <trkpt lat="43.33067" lon="-1.68464">
        <ele>124</ele>
        <time>2026-06-28T20:27:54.000Z</time>
      </trkpt>
      <trkpt lat="43.33086" lon="-1.68497">
        <ele>123</ele>
        <time>2026-06-28T20:28:00.000Z</time>
      </trkpt>
      <trkpt lat="43.33102" lon="-1.68532">
        <ele>122</ele>
        <time>2026-06-28T20:28:05.000Z</time>
      </trkpt>
      <trkpt lat="43.33116" lon="-1.68555">
        <ele>120</ele>
        <time>2026-06-28T20:28:09.000Z</time>
      </trkpt>
      <trkpt lat="43.3313" lon="-1.6857">
        <ele>117</ele>
        <time>2026-06-28T20:28:12.000Z</time>
      </trkpt>
      <trkpt lat="43.33145" lon="-1.68577">
        <ele>114</ele>
        <time>2026-06-28T20:28:15.000Z</time>
      </trkpt>
      <trkpt lat="43.33158" lon="-1.68581">
        <ele>112</ele>
        <time>2026-06-28T20:28:17.000Z</time>
      </trkpt>
      <trkpt lat="43.33164" lon="-1.68584">
        <ele>111</ele>
        <time>2026-06-28T20:28:18.000Z</time>
      </trkpt>
      <trkpt lat="43.33169" lon="-1.68589">
        <ele>110</ele>
        <time>2026-06-28T20:28:19.000Z</time>
      </trkpt>
      <trkpt lat="43.33175" lon="-1.68606">
        <ele>109</ele>
        <time>2026-06-28T20:28:22.000Z</time>
      </trkpt>
      <trkpt lat="43.33181" lon="-1.68658">
        <ele>110</ele>
        <time>2026-06-28T20:28:29.000Z</time>
      </trkpt>
      <trkpt lat="43.33189" lon="-1.68679">
        <ele>110</ele>
        <time>2026-06-28T20:28:32.000Z</time>
      </trkpt>
      <trkpt lat="43.33199" lon="-1.68699">
        <ele>109</ele>
        <time>2026-06-28T20:28:35.000Z</time>
      </trkpt>
      <trkpt lat="43.33219" lon="-1.6872">
        <ele>107</ele>
        <time>2026-06-28T20:28:39.000Z</time>
      </trkpt>
      <trkpt lat="43.33232" lon="-1.68725">
        <ele>106</ele>
        <time>2026-06-28T20:28:42.000Z</time>
      </trkpt>
      <trkpt lat="43.33324" lon="-1.68736">
        <ele>97</ele>
        <time>2026-06-28T20:28:58.000Z</time>
      </trkpt>
      <trkpt lat="43.33352" lon="-1.68735">
        <ele>97</ele>
        <time>2026-06-28T20:29:03.000Z</time>
      </trkpt>
      <trkpt lat="43.33366" lon="-1.6873">
        <ele>97</ele>
        <time>2026-06-28T20:29:06.000Z</time>
      </trkpt>
      <trkpt lat="43.33372" lon="-1.68733">
        <ele>97</ele>
        <time>2026-06-28T20:29:07.000Z</time>
      </trkpt>
      <trkpt lat="43.33394" lon="-1.6873">
        <ele>98</ele>
        <time>2026-06-28T20:29:11.000Z</time>
      </trkpt>
      <trkpt lat="43.334" lon="-1.68735">
        <ele>98</ele>
        <time>2026-06-28T20:29:12.000Z</time>
      </trkpt>
      <trkpt lat="43.33409" lon="-1.68751">
        <ele>99</ele>
        <time>2026-06-28T20:29:15.000Z</time>
      </trkpt>
      <trkpt lat="43.33421" lon="-1.68778">
        <ele>99</ele>
        <time>2026-06-28T20:29:19.000Z</time>
      </trkpt>
      <trkpt lat="43.33426" lon="-1.68797">
        <ele>99</ele>
        <time>2026-06-28T20:29:21.000Z</time>
      </trkpt>
      <trkpt lat="43.33434" lon="-1.68853">
        <ele>96</ele>
        <time>2026-06-28T20:29:29.000Z</time>
      </trkpt>
      <trkpt lat="43.33442" lon="-1.68877">
        <ele>94</ele>
        <time>2026-06-28T20:29:32.000Z</time>
      </trkpt>
      <trkpt lat="43.33454" lon="-1.68901">
        <ele>92</ele>
        <time>2026-06-28T20:29:36.000Z</time>
      </trkpt>
      <trkpt lat="43.33489" lon="-1.68951">
        <ele>88</ele>
        <time>2026-06-28T20:29:45.000Z</time>
      </trkpt>
      <trkpt lat="43.33504" lon="-1.68968">
        <ele>85</ele>
        <time>2026-06-28T20:29:48.000Z</time>
      </trkpt>
      <trkpt lat="43.33521" lon="-1.68982">
        <ele>84</ele>
        <time>2026-06-28T20:29:52.000Z</time>
      </trkpt>
      <trkpt lat="43.33531" lon="-1.68988">
        <ele>83</ele>
        <time>2026-06-28T20:29:54.000Z</time>
      </trkpt>
      <trkpt lat="43.3355" lon="-1.68995">
        <ele>83</ele>
        <time>2026-06-28T20:29:57.000Z</time>
      </trkpt>
      <trkpt lat="43.3358" lon="-1.69">
        <ele>84</ele>
        <time>2026-06-28T20:30:03.000Z</time>
      </trkpt>
      <trkpt lat="43.33589" lon="-1.69004">
        <ele>84</ele>
        <time>2026-06-28T20:30:04.000Z</time>
      </trkpt>
      <trkpt lat="43.33596" lon="-1.6901">
        <ele>83</ele>
        <time>2026-06-28T20:30:06.000Z</time>
      </trkpt>
      <trkpt lat="43.33602" lon="-1.69019">
        <ele>82</ele>
        <time>2026-06-28T20:30:08.000Z</time>
      </trkpt>
      <trkpt lat="43.33618" lon="-1.6905">
        <ele>78</ele>
        <time>2026-06-28T20:30:12.000Z</time>
      </trkpt>
      <trkpt lat="43.33632" lon="-1.6907">
        <ele>75</ele>
        <time>2026-06-28T20:30:16.000Z</time>
      </trkpt>
      <trkpt lat="43.33641" lon="-1.69078">
        <ele>74</ele>
        <time>2026-06-28T20:30:18.000Z</time>
      </trkpt>
      <trkpt lat="43.33661" lon="-1.6909">
        <ele>74</ele>
        <time>2026-06-28T20:30:22.000Z</time>
      </trkpt>
      <trkpt lat="43.33672" lon="-1.69093">
        <ele>73</ele>
        <time>2026-06-28T20:30:24.000Z</time>
      </trkpt>
      <trkpt lat="43.33694" lon="-1.69095">
        <ele>71</ele>
        <time>2026-06-28T20:30:28.000Z</time>
      </trkpt>
      <trkpt lat="43.33742" lon="-1.69092">
        <ele>67</ele>
        <time>2026-06-28T20:30:36.000Z</time>
      </trkpt>
      <trkpt lat="43.33765" lon="-1.69086">
        <ele>66</ele>
        <time>2026-06-28T20:30:40.000Z</time>
      </trkpt>
      <trkpt lat="43.33821" lon="-1.69058">
        <ele>67</ele>
        <time>2026-06-28T20:30:51.000Z</time>
      </trkpt>
      <trkpt lat="43.33833" lon="-1.69053">
        <ele>67</ele>
        <time>2026-06-28T20:30:53.000Z</time>
      </trkpt>
      <trkpt lat="43.33844" lon="-1.69052">
        <ele>66</ele>
        <time>2026-06-28T20:30:55.000Z</time>
      </trkpt>
      <trkpt lat="43.33855" lon="-1.69052">
        <ele>66</ele>
        <time>2026-06-28T20:30:57.000Z</time>
      </trkpt>
      <trkpt lat="43.33877" lon="-1.69056">
        <ele>64</ele>
        <time>2026-06-28T20:31:01.000Z</time>
      </trkpt>
      <trkpt lat="43.33941" lon="-1.69075">
        <ele>62</ele>
        <time>2026-06-28T20:31:13.000Z</time>
      </trkpt>
      <trkpt lat="43.33992" lon="-1.69081">
        <ele>64</ele>
        <time>2026-06-28T20:31:22.000Z</time>
      </trkpt>
      <trkpt lat="43.3403" lon="-1.69083">
        <ele>62</ele>
        <time>2026-06-28T20:31:29.000Z</time>
      </trkpt>
      <trkpt lat="43.34066" lon="-1.69077">
        <ele>61</ele>
        <time>2026-06-28T20:31:35.000Z</time>
      </trkpt>
      <trkpt lat="43.34165" lon="-1.69049">
        <ele>56</ele>
        <time>2026-06-28T20:31:53.000Z</time>
      </trkpt>
      <trkpt lat="43.34463" lon="-1.6899">
        <ele>44</ele>
        <time>2026-06-28T20:32:47.000Z</time>
      </trkpt>
      <trkpt lat="43.3452" lon="-1.68982">
        <ele>43</ele>
        <time>2026-06-28T20:32:57.000Z</time>
      </trkpt>
      <trkpt lat="43.3456" lon="-1.68986">
        <ele>42</ele>
        <time>2026-06-28T20:33:04.000Z</time>
      </trkpt>
      <trkpt lat="43.34576" lon="-1.68984">
        <ele>42</ele>
        <time>2026-06-28T20:33:07.000Z</time>
      </trkpt>
      <trkpt lat="43.34606" lon="-1.68973">
        <ele>41</ele>
        <time>2026-06-28T20:33:12.000Z</time>
      </trkpt>
      <trkpt lat="43.34635" lon="-1.68957">
        <ele>41</ele>
        <time>2026-06-28T20:33:18.000Z</time>
      </trkpt>
      <trkpt lat="43.34655" lon="-1.68942">
        <ele>41</ele>
        <time>2026-06-28T20:33:22.000Z</time>
      </trkpt>
      <trkpt lat="43.34695" lon="-1.68906">
        <ele>39</ele>
        <time>2026-06-28T20:33:31.000Z</time>
      </trkpt>
      <trkpt lat="43.34727" lon="-1.68883">
        <ele>38</ele>
        <time>2026-06-28T20:33:37.000Z</time>
      </trkpt>
      <trkpt lat="43.34755" lon="-1.6887">
        <ele>37</ele>
        <time>2026-06-28T20:33:42.000Z</time>
      </trkpt>
      <trkpt lat="43.34787" lon="-1.68861">
        <ele>36</ele>
        <time>2026-06-28T20:33:48.000Z</time>
      </trkpt>
      <trkpt lat="43.3482" lon="-1.68856">
        <ele>35</ele>
        <time>2026-06-28T20:33:54.000Z</time>
      </trkpt>
      <trkpt lat="43.34838" lon="-1.68858">
        <ele>35</ele>
        <time>2026-06-28T20:33:57.000Z</time>
      </trkpt>
      <trkpt lat="43.34865" lon="-1.68865">
        <ele>35</ele>
        <time>2026-06-28T20:34:02.000Z</time>
      </trkpt>
      <trkpt lat="43.34889" lon="-1.68864">
        <ele>35</ele>
        <time>2026-06-28T20:34:06.000Z</time>
      </trkpt>
      <trkpt lat="43.34894" lon="-1.68867">
        <ele>35</ele>
        <time>2026-06-28T20:34:07.000Z</time>
      </trkpt>
      <trkpt lat="43.34902" lon="-1.68877">
        <ele>35</ele>
        <time>2026-06-28T20:34:09.000Z</time>
      </trkpt>
      <trkpt lat="43.34904" lon="-1.68884">
        <ele>35</ele>
        <time>2026-06-28T20:34:10.000Z</time>
      </trkpt>
      <trkpt lat="43.34904" lon="-1.68896">
        <ele>35</ele>
        <time>2026-06-28T20:34:12.000Z</time>
      </trkpt>
      <trkpt lat="43.34899" lon="-1.68906">
        <ele>35</ele>
        <time>2026-06-28T20:34:13.000Z</time>
      </trkpt>
      <trkpt lat="43.34892" lon="-1.68913">
        <ele>35</ele>
        <time>2026-06-28T20:34:15.000Z</time>
      </trkpt>
      <trkpt lat="43.34883" lon="-1.68914">
        <ele>35</ele>
        <time>2026-06-28T20:34:16.000Z</time>
      </trkpt>
      <trkpt lat="43.34874" lon="-1.68908">
        <ele>35</ele>
        <time>2026-06-28T20:34:18.000Z</time>
      </trkpt>
      <trkpt lat="43.34855" lon="-1.68882">
        <ele>35</ele>
        <time>2026-06-28T20:34:23.000Z</time>
      </trkpt>
      <trkpt lat="43.34845" lon="-1.68874">
        <ele>35</ele>
        <time>2026-06-28T20:34:25.000Z</time>
      </trkpt>
      <trkpt lat="43.34834" lon="-1.6887">
        <ele>35</ele>
        <time>2026-06-28T20:34:27.000Z</time>
      </trkpt>
      <trkpt lat="43.3481" lon="-1.68864">
        <ele>36</ele>
        <time>2026-06-28T20:34:31.000Z</time>
      </trkpt>
      <trkpt lat="43.34781" lon="-1.68867">
        <ele>36</ele>
        <time>2026-06-28T20:34:37.000Z</time>
      </trkpt>
      <trkpt lat="43.34745" lon="-1.68878">
        <ele>37</ele>
        <time>2026-06-28T20:34:43.000Z</time>
      </trkpt>
      <trkpt lat="43.34741" lon="-1.68874">
        <ele>37</ele>
        <time>2026-06-28T20:34:44.000Z</time>
      </trkpt>
      <trkpt lat="43.34726" lon="-1.68833">
        <ele>36</ele>
        <time>2026-06-28T20:34:50.000Z</time>
      </trkpt>
      <trkpt lat="43.34717" lon="-1.68817">
        <ele>37</ele>
        <time>2026-06-28T20:34:53.000Z</time>
      </trkpt>
      <trkpt lat="43.34705" lon="-1.688">
        <ele>38</ele>
        <time>2026-06-28T20:34:56.000Z</time>
      </trkpt>
      <trkpt lat="43.34661" lon="-1.68744">
        <ele>43</ele>
        <time>2026-06-28T20:35:06.000Z</time>
      </trkpt>
      <trkpt lat="43.34656" lon="-1.68739">
        <ele>43</ele>
        <time>2026-06-28T20:35:07.000Z</time>
      </trkpt>
      <trkpt lat="43.3464" lon="-1.6873">
        <ele>44</ele>
        <time>2026-06-28T20:35:10.000Z</time>
      </trkpt>
      <trkpt lat="43.34635" lon="-1.68726">
        <ele>44</ele>
        <time>2026-06-28T20:35:12.000Z</time>
      </trkpt>
      <trkpt lat="43.34624" lon="-1.68725">
        <ele>44</ele>
        <time>2026-06-28T20:35:13.000Z</time>
      </trkpt>
      <trkpt lat="43.3462" lon="-1.68723">
        <ele>44</ele>
        <time>2026-06-28T20:35:14.000Z</time>
      </trkpt>
      <trkpt lat="43.34609" lon="-1.68714">
        <ele>44</ele>
        <time>2026-06-28T20:35:17.000Z</time>
      </trkpt>
      <trkpt lat="43.34599" lon="-1.68699">
        <ele>45</ele>
        <time>2026-06-28T20:35:19.000Z</time>
      </trkpt>
      <trkpt lat="43.34593" lon="-1.68675">
        <ele>47</ele>
        <time>2026-06-28T20:35:22.000Z</time>
      </trkpt>
      <trkpt lat="43.34591" lon="-1.68641">
        <ele>49</ele>
        <time>2026-06-28T20:35:27.000Z</time>
      </trkpt>
      <trkpt lat="43.346" lon="-1.68576">
        <ele>52</ele>
        <time>2026-06-28T20:35:35.000Z</time>
      </trkpt>
      <trkpt lat="43.34614" lon="-1.68504">
        <ele>56</ele>
        <time>2026-06-28T20:35:45.000Z</time>
      </trkpt>
      <trkpt lat="43.34615" lon="-1.68483">
        <ele>57</ele>
        <time>2026-06-28T20:35:48.000Z</time>
      </trkpt>
      <trkpt lat="43.3461" lon="-1.68372">
        <ele>61</ele>
        <time>2026-06-28T20:36:02.000Z</time>
      </trkpt>
      <trkpt lat="43.34599" lon="-1.68304">
        <ele>62</ele>
        <time>2026-06-28T20:36:11.000Z</time>
      </trkpt>
      <trkpt lat="43.34591" lon="-1.68221">
        <ele>66</ele>
        <time>2026-06-28T20:36:22.000Z</time>
      </trkpt>
      <trkpt lat="43.3458" lon="-1.68183">
        <ele>70</ele>
        <time>2026-06-28T20:36:27.000Z</time>
      </trkpt>
      <trkpt lat="43.34581" lon="-1.68177">
        <ele>71</ele>
        <time>2026-06-28T20:36:28.000Z</time>
      </trkpt>
      <trkpt lat="43.34556" lon="-1.68098">
        <ele>82</ele>
        <time>2026-06-28T20:36:39.000Z</time>
      </trkpt>
      <trkpt lat="43.34545" lon="-1.68054">
        <ele>85</ele>
        <time>2026-06-28T20:36:45.000Z</time>
      </trkpt>
      <trkpt lat="43.34537" lon="-1.68026">
        <ele>87</ele>
        <time>2026-06-28T20:36:49.000Z</time>
      </trkpt>
      <trkpt lat="43.34525" lon="-1.68">
        <ele>89</ele>
        <time>2026-06-28T20:36:53.000Z</time>
      </trkpt>
      <trkpt lat="43.34522" lon="-1.67986">
        <ele>89</ele>
        <time>2026-06-28T20:36:55.000Z</time>
      </trkpt>
      <trkpt lat="43.34509" lon="-1.67955">
        <ele>90</ele>
        <time>2026-06-28T20:37:00.000Z</time>
      </trkpt>
      <trkpt lat="43.34509" lon="-1.67939">
        <ele>90</ele>
        <time>2026-06-28T20:37:02.000Z</time>
      </trkpt>
      <trkpt lat="43.34512" lon="-1.67904">
        <ele>91</ele>
        <time>2026-06-28T20:37:06.000Z</time>
      </trkpt>
      <trkpt lat="43.34517" lon="-1.67876">
        <ele>90</ele>
        <time>2026-06-28T20:37:10.000Z</time>
      </trkpt>
      <trkpt lat="43.34531" lon="-1.67828">
        <ele>89</ele>
        <time>2026-06-28T20:37:17.000Z</time>
      </trkpt>
      <trkpt lat="43.34543" lon="-1.67807">
        <ele>89</ele>
        <time>2026-06-28T20:37:20.000Z</time>
      </trkpt>
      <trkpt lat="43.34564" lon="-1.67752">
        <ele>86</ele>
        <time>2026-06-28T20:37:28.000Z</time>
      </trkpt>
      <trkpt lat="43.34638" lon="-1.67585">
        <ele>82</ele>
        <time>2026-06-28T20:37:54.000Z</time>
      </trkpt>
      <trkpt lat="43.34686" lon="-1.67505">
        <ele>88</ele>
        <time>2026-06-28T20:38:07.000Z</time>
      </trkpt>
      <trkpt lat="43.34714" lon="-1.67433">
        <ele>89</ele>
        <time>2026-06-28T20:38:18.000Z</time>
      </trkpt>
      <trkpt lat="43.34731" lon="-1.67368">
        <ele>85</ele>
        <time>2026-06-28T20:38:26.000Z</time>
      </trkpt>
      <trkpt lat="43.34734" lon="-1.67359">
        <ele>85</ele>
        <time>2026-06-28T20:38:28.000Z</time>
      </trkpt>
      <trkpt lat="43.34741" lon="-1.67353">
        <ele>84</ele>
        <time>2026-06-28T20:38:29.000Z</time>
      </trkpt>
      <trkpt lat="43.34749" lon="-1.67351">
        <ele>84</ele>
        <time>2026-06-28T20:38:31.000Z</time>
      </trkpt>
      <trkpt lat="43.34769" lon="-1.67351">
        <ele>84</ele>
        <time>2026-06-28T20:38:34.000Z</time>
      </trkpt>
      <trkpt lat="43.34785" lon="-1.67345">
        <ele>83</ele>
        <time>2026-06-28T20:38:37.000Z</time>
      </trkpt>
      <trkpt lat="43.34811" lon="-1.67331">
        <ele>83</ele>
        <time>2026-06-28T20:38:42.000Z</time>
      </trkpt>
      <trkpt lat="43.34819" lon="-1.6732">
        <ele>83</ele>
        <time>2026-06-28T20:38:44.000Z</time>
      </trkpt>
      <trkpt lat="43.34831" lon="-1.67253">
        <ele>83</ele>
        <time>2026-06-28T20:38:53.000Z</time>
      </trkpt>
      <trkpt lat="43.34831" lon="-1.67174">
        <ele>84</ele>
        <time>2026-06-28T20:39:03.000Z</time>
      </trkpt>
      <trkpt lat="43.34838" lon="-1.67136">
        <ele>84</ele>
        <time>2026-06-28T20:39:08.000Z</time>
      </trkpt>
      <trkpt lat="43.34858" lon="-1.67054">
        <ele>84</ele>
        <time>2026-06-28T20:39:20.000Z</time>
      </trkpt>
      <trkpt lat="43.3488" lon="-1.66994">
        <ele>86</ele>
        <time>2026-06-28T20:39:28.000Z</time>
      </trkpt>
      <trkpt lat="43.34913" lon="-1.6688">
        <ele>83</ele>
        <time>2026-06-28T20:39:44.000Z</time>
      </trkpt>
      <trkpt lat="43.34918" lon="-1.66875">
        <ele>83</ele>
        <time>2026-06-28T20:39:45.000Z</time>
      </trkpt>
      <trkpt lat="43.34924" lon="-1.66873">
        <ele>84</ele>
        <time>2026-06-28T20:39:46.000Z</time>
      </trkpt>
      <trkpt lat="43.34931" lon="-1.66873">
        <ele>85</ele>
        <time>2026-06-28T20:39:48.000Z</time>
      </trkpt>
      <trkpt lat="43.3495" lon="-1.66877">
        <ele>88</ele>
        <time>2026-06-28T20:39:51.000Z</time>
      </trkpt>
      <trkpt lat="43.34959" lon="-1.66876">
        <ele>89</ele>
        <time>2026-06-28T20:39:53.000Z</time>
      </trkpt>
      <trkpt lat="43.34966" lon="-1.6687">
        <ele>89</ele>
        <time>2026-06-28T20:39:54.000Z</time>
      </trkpt>
      <trkpt lat="43.34971" lon="-1.66862">
        <ele>89</ele>
        <time>2026-06-28T20:39:55.000Z</time>
      </trkpt>
      <trkpt lat="43.34978" lon="-1.66834">
        <ele>87</ele>
        <time>2026-06-28T20:39:59.000Z</time>
      </trkpt>
      <trkpt lat="43.34981" lon="-1.66825">
        <ele>87</ele>
        <time>2026-06-28T20:40:01.000Z</time>
      </trkpt>
      <trkpt lat="43.3499" lon="-1.6681">
        <ele>86</ele>
        <time>2026-06-28T20:40:03.000Z</time>
      </trkpt>
      <trkpt lat="43.34995" lon="-1.66805">
        <ele>86</ele>
        <time>2026-06-28T20:40:04.000Z</time>
      </trkpt>
      <trkpt lat="43.35002" lon="-1.66801">
        <ele>86</ele>
        <time>2026-06-28T20:40:05.000Z</time>
      </trkpt>
      <trkpt lat="43.35016" lon="-1.66799">
        <ele>86</ele>
        <time>2026-06-28T20:40:08.000Z</time>
      </trkpt>
      <trkpt lat="43.35023" lon="-1.66802">
        <ele>86</ele>
        <time>2026-06-28T20:40:09.000Z</time>
      </trkpt>
      <trkpt lat="43.35063" lon="-1.66839">
        <ele>91</ele>
        <time>2026-06-28T20:40:18.000Z</time>
      </trkpt>
      <trkpt lat="43.35083" lon="-1.66854">
        <ele>92</ele>
        <time>2026-06-28T20:40:22.000Z</time>
      </trkpt>
      <trkpt lat="43.35092" lon="-1.66856">
        <ele>92</ele>
        <time>2026-06-28T20:40:24.000Z</time>
      </trkpt>
      <trkpt lat="43.35108" lon="-1.66853">
        <ele>93</ele>
        <time>2026-06-28T20:40:26.000Z</time>
      </trkpt>
      <trkpt lat="43.35115" lon="-1.6685">
        <ele>93</ele>
        <time>2026-06-28T20:40:28.000Z</time>
      </trkpt>
      <trkpt lat="43.35127" lon="-1.66838">
        <ele>94</ele>
        <time>2026-06-28T20:40:30.000Z</time>
      </trkpt>
      <trkpt lat="43.35152" lon="-1.668">
        <ele>93</ele>
        <time>2026-06-28T20:40:37.000Z</time>
      </trkpt>
      <trkpt lat="43.35182" lon="-1.66747">
        <ele>91</ele>
        <time>2026-06-28T20:40:46.000Z</time>
      </trkpt>
      <trkpt lat="43.35189" lon="-1.66738">
        <ele>91</ele>
        <time>2026-06-28T20:40:47.000Z</time>
      </trkpt>
      <trkpt lat="43.35197" lon="-1.66731">
        <ele>91</ele>
        <time>2026-06-28T20:40:49.000Z</time>
      </trkpt>
      <trkpt lat="43.35202" lon="-1.66729">
        <ele>91</ele>
        <time>2026-06-28T20:40:50.000Z</time>
      </trkpt>
      <trkpt lat="43.35214" lon="-1.66727">
        <ele>91</ele>
        <time>2026-06-28T20:40:52.000Z</time>
      </trkpt>
      <trkpt lat="43.35246" lon="-1.66732">
        <ele>93</ele>
        <time>2026-06-28T20:40:58.000Z</time>
      </trkpt>
      <trkpt lat="43.3526" lon="-1.66728">
        <ele>92</ele>
        <time>2026-06-28T20:41:00.000Z</time>
      </trkpt>
      <trkpt lat="43.35409" lon="-1.66649">
        <ele>97</ele>
        <time>2026-06-28T20:41:29.000Z</time>
      </trkpt>
      <trkpt lat="43.35448" lon="-1.66617">
        <ele>95</ele>
        <time>2026-06-28T20:41:37.000Z</time>
      </trkpt>
      <trkpt lat="43.35468" lon="-1.66605">
        <ele>94</ele>
        <time>2026-06-28T20:41:41.000Z</time>
      </trkpt>
      <trkpt lat="43.35505" lon="-1.66595">
        <ele>95</ele>
        <time>2026-06-28T20:41:48.000Z</time>
      </trkpt>
      <trkpt lat="43.35613" lon="-1.66587">
        <ele>87</ele>
        <time>2026-06-28T20:42:07.000Z</time>
      </trkpt>
      <trkpt lat="43.35633" lon="-1.66582">
        <ele>86</ele>
        <time>2026-06-28T20:42:10.000Z</time>
      </trkpt>
      <trkpt lat="43.35643" lon="-1.66578">
        <ele>85</ele>
        <time>2026-06-28T20:42:12.000Z</time>
      </trkpt>
      <trkpt lat="43.35653" lon="-1.66573">
        <ele>84</ele>
        <time>2026-06-28T20:42:14.000Z</time>
      </trkpt>
      <trkpt lat="43.3567" lon="-1.66559">
        <ele>82</ele>
        <time>2026-06-28T20:42:18.000Z</time>
      </trkpt>
      <trkpt lat="43.3572" lon="-1.66498">
        <ele>77</ele>
        <time>2026-06-28T20:42:30.000Z</time>
      </trkpt>
      <trkpt lat="43.35743" lon="-1.66478">
        <ele>76</ele>
        <time>2026-06-28T20:42:34.000Z</time>
      </trkpt>
      <trkpt lat="43.35785" lon="-1.66459">
        <ele>75</ele>
        <time>2026-06-28T20:42:42.000Z</time>
      </trkpt>
      <trkpt lat="43.35841" lon="-1.66443">
        <ele>76</ele>
        <time>2026-06-28T20:42:52.000Z</time>
      </trkpt>
      <trkpt lat="43.35872" lon="-1.66431">
        <ele>77</ele>
        <time>2026-06-28T20:42:58.000Z</time>
      </trkpt>
      <trkpt lat="43.35879" lon="-1.66425">
        <ele>78</ele>
        <time>2026-06-28T20:43:00.000Z</time>
      </trkpt>
      <trkpt lat="43.35885" lon="-1.66417">
        <ele>78</ele>
        <time>2026-06-28T20:43:01.000Z</time>
      </trkpt>
      <trkpt lat="43.35888" lon="-1.66408">
        <ele>77</ele>
        <time>2026-06-28T20:43:02.000Z</time>
      </trkpt>
      <trkpt lat="43.35896" lon="-1.66363">
        <ele>76</ele>
        <time>2026-06-28T20:43:08.000Z</time>
      </trkpt>
      <trkpt lat="43.35902" lon="-1.6635">
        <ele>75</ele>
        <time>2026-06-28T20:43:10.000Z</time>
      </trkpt>
      <trkpt lat="43.35916" lon="-1.66337">
        <ele>76</ele>
        <time>2026-06-28T20:43:13.000Z</time>
      </trkpt>
      <trkpt lat="43.35953" lon="-1.6632">
        <ele>76</ele>
        <time>2026-06-28T20:43:20.000Z</time>
      </trkpt>
      <trkpt lat="43.3597" lon="-1.66305">
        <ele>77</ele>
        <time>2026-06-28T20:43:24.000Z</time>
      </trkpt>
      <trkpt lat="43.36001" lon="-1.66264">
        <ele>80</ele>
        <time>2026-06-28T20:43:32.000Z</time>
      </trkpt>
      <trkpt lat="43.36096" lon="-1.66122">
        <ele>83</ele>
        <time>2026-06-28T20:43:57.000Z</time>
      </trkpt>
      <trkpt lat="43.36109" lon="-1.66107">
        <ele>83</ele>
        <time>2026-06-28T20:44:00.000Z</time>
      </trkpt>
      <trkpt lat="43.36122" lon="-1.66094">
        <ele>84</ele>
        <time>2026-06-28T20:44:02.000Z</time>
      </trkpt>
      <trkpt lat="43.36137" lon="-1.66085">
        <ele>85</ele>
        <time>2026-06-28T20:44:05.000Z</time>
      </trkpt>
      <trkpt lat="43.36167" lon="-1.66072">
        <ele>87</ele>
        <time>2026-06-28T20:44:11.000Z</time>
      </trkpt>
      <trkpt lat="43.36197" lon="-1.66063">
        <ele>85</ele>
        <time>2026-06-28T20:44:16.000Z</time>
      </trkpt>
      <trkpt lat="43.36215" lon="-1.66064">
        <ele>83</ele>
        <time>2026-06-28T20:44:20.000Z</time>
      </trkpt>
      <trkpt lat="43.36234" lon="-1.66072">
        <ele>81</ele>
        <time>2026-06-28T20:44:23.000Z</time>
      </trkpt>
      <trkpt lat="43.3625" lon="-1.66082">
        <ele>79</ele>
        <time>2026-06-28T20:44:26.000Z</time>
      </trkpt>
      <trkpt lat="43.36267" lon="-1.66088">
        <ele>78</ele>
        <time>2026-06-28T20:44:29.000Z</time>
      </trkpt>
      <trkpt lat="43.36275" lon="-1.66089">
        <ele>77</ele>
        <time>2026-06-28T20:44:31.000Z</time>
      </trkpt>
      <trkpt lat="43.36303" lon="-1.66085">
        <ele>77</ele>
        <time>2026-06-28T20:44:36.000Z</time>
      </trkpt>
      <trkpt lat="43.3633" lon="-1.66078">
        <ele>76</ele>
        <time>2026-06-28T20:44:41.000Z</time>
      </trkpt>
      <trkpt lat="43.36346" lon="-1.66069">
        <ele>75</ele>
        <time>2026-06-28T20:44:44.000Z</time>
      </trkpt>
      <trkpt lat="43.36364" lon="-1.66058">
        <ele>75</ele>
        <time>2026-06-28T20:44:47.000Z</time>
      </trkpt>
      <trkpt lat="43.36379" lon="-1.66044">
        <ele>74</ele>
        <time>2026-06-28T20:44:51.000Z</time>
      </trkpt>
      <trkpt lat="43.36397" lon="-1.6602">
        <ele>75</ele>
        <time>2026-06-28T20:44:55.000Z</time>
      </trkpt>
      <trkpt lat="43.36413" lon="-1.65994">
        <ele>74</ele>
        <time>2026-06-28T20:44:59.000Z</time>
      </trkpt>
      <trkpt lat="43.36474" lon="-1.65886">
        <ele>69</ele>
        <time>2026-06-28T20:45:17.000Z</time>
      </trkpt>
      <trkpt lat="43.36495" lon="-1.65841">
        <ele>68</ele>
        <time>2026-06-28T20:45:24.000Z</time>
      </trkpt>
      <trkpt lat="43.36529" lon="-1.65784">
        <ele>68</ele>
        <time>2026-06-28T20:45:34.000Z</time>
      </trkpt>
      <trkpt lat="43.36539" lon="-1.65755">
        <ele>68</ele>
        <time>2026-06-28T20:45:38.000Z</time>
      </trkpt>
      <trkpt lat="43.36552" lon="-1.65702">
        <ele>71</ele>
        <time>2026-06-28T20:45:45.000Z</time>
      </trkpt>
      <trkpt lat="43.36556" lon="-1.65691">
        <ele>72</ele>
        <time>2026-06-28T20:45:47.000Z</time>
      </trkpt>
      <trkpt lat="43.36564" lon="-1.65677">
        <ele>73</ele>
        <time>2026-06-28T20:45:49.000Z</time>
      </trkpt>
      <trkpt lat="43.36584" lon="-1.65653">
        <ele>75</ele>
        <time>2026-06-28T20:45:54.000Z</time>
      </trkpt>
      <trkpt lat="43.36601" lon="-1.6564">
        <ele>73</ele>
        <time>2026-06-28T20:45:57.000Z</time>
      </trkpt>
      <trkpt lat="43.36621" lon="-1.65629">
        <ele>72</ele>
        <time>2026-06-28T20:46:01.000Z</time>
      </trkpt>
      <trkpt lat="43.36629" lon="-1.65627">
        <ele>71</ele>
        <time>2026-06-28T20:46:02.000Z</time>
      </trkpt>
      <trkpt lat="43.36646" lon="-1.65625">
        <ele>71</ele>
        <time>2026-06-28T20:46:05.000Z</time>
      </trkpt>
      <trkpt lat="43.36674" lon="-1.65629">
        <ele>69</ele>
        <time>2026-06-28T20:46:10.000Z</time>
      </trkpt>
      <trkpt lat="43.36711" lon="-1.65641">
        <ele>67</ele>
        <time>2026-06-28T20:46:17.000Z</time>
      </trkpt>
      <trkpt lat="43.36728" lon="-1.6565">
        <ele>66</ele>
        <time>2026-06-28T20:46:20.000Z</time>
      </trkpt>
      <trkpt lat="43.36768" lon="-1.65678">
        <ele>65</ele>
        <time>2026-06-28T20:46:28.000Z</time>
      </trkpt>
      <trkpt lat="43.36851" lon="-1.65721">
        <ele>63</ele>
        <time>2026-06-28T20:46:44.000Z</time>
      </trkpt>
      <trkpt lat="43.36911" lon="-1.65748">
        <ele>60</ele>
        <time>2026-06-28T20:46:55.000Z</time>
      </trkpt>
      <trkpt lat="43.3698" lon="-1.65772">
        <ele>57</ele>
        <time>2026-06-28T20:47:08.000Z</time>
      </trkpt>
      <trkpt lat="43.36998" lon="-1.6578">
        <ele>56</ele>
        <time>2026-06-28T20:47:11.000Z</time>
      </trkpt>
      <trkpt lat="43.37057" lon="-1.65814">
        <ele>58</ele>
        <time>2026-06-28T20:47:23.000Z</time>
      </trkpt>
      <trkpt lat="43.37082" lon="-1.65832">
        <ele>60</ele>
        <time>2026-06-28T20:47:28.000Z</time>
      </trkpt>
      <trkpt lat="43.3709" lon="-1.65839">
        <ele>59</ele>
        <time>2026-06-28T20:47:29.000Z</time>
      </trkpt>
      <trkpt lat="43.37097" lon="-1.65848">
        <ele>57</ele>
        <time>2026-06-28T20:47:31.000Z</time>
      </trkpt>
      <trkpt lat="43.37112" lon="-1.65877">
        <ele>53</ele>
        <time>2026-06-28T20:47:36.000Z</time>
      </trkpt>
      <trkpt lat="43.37119" lon="-1.65884">
        <ele>52</ele>
        <time>2026-06-28T20:47:37.000Z</time>
      </trkpt>
      <trkpt lat="43.37126" lon="-1.65889">
        <ele>52</ele>
        <time>2026-06-28T20:47:39.000Z</time>
      </trkpt>
      <trkpt lat="43.37133" lon="-1.65891">
        <ele>52</ele>
        <time>2026-06-28T20:47:40.000Z</time>
      </trkpt>
      <trkpt lat="43.372" lon="-1.65899">
        <ele>49</ele>
        <time>2026-06-28T20:47:52.000Z</time>
      </trkpt>
      <trkpt lat="43.37323" lon="-1.65906">
        <ele>38</ele>
        <time>2026-06-28T20:48:14.000Z</time>
      </trkpt>
      <trkpt lat="43.37336" lon="-1.65905">
        <ele>38</ele>
        <time>2026-06-28T20:48:16.000Z</time>
      </trkpt>
      <trkpt lat="43.37349" lon="-1.65902">
        <ele>38</ele>
        <time>2026-06-28T20:48:18.000Z</time>
      </trkpt>
      <trkpt lat="43.37374" lon="-1.65891">
        <ele>37</ele>
        <time>2026-06-28T20:48:23.000Z</time>
      </trkpt>
      <trkpt lat="43.37437" lon="-1.6587">
        <ele>38</ele>
        <time>2026-06-28T20:48:35.000Z</time>
      </trkpt>
      <trkpt lat="43.37455" lon="-1.65869">
        <ele>39</ele>
        <time>2026-06-28T20:48:38.000Z</time>
      </trkpt>
      <trkpt lat="43.37463" lon="-1.6587">
        <ele>40</ele>
        <time>2026-06-28T20:48:39.000Z</time>
      </trkpt>
      <trkpt lat="43.37482" lon="-1.65881">
        <ele>40</ele>
        <time>2026-06-28T20:48:43.000Z</time>
      </trkpt>
      <trkpt lat="43.37495" lon="-1.65892">
        <ele>41</ele>
        <time>2026-06-28T20:48:46.000Z</time>
      </trkpt>
      <trkpt lat="43.37527" lon="-1.65926">
        <ele>41</ele>
        <time>2026-06-28T20:48:53.000Z</time>
      </trkpt>
      <trkpt lat="43.37538" lon="-1.65943">
        <ele>41</ele>
        <time>2026-06-28T20:48:56.000Z</time>
      </trkpt>
      <trkpt lat="43.37574" lon="-1.66007">
        <ele>36</ele>
        <time>2026-06-28T20:49:06.000Z</time>
      </trkpt>
      <trkpt lat="43.37591" lon="-1.66033">
        <ele>33</ele>
        <time>2026-06-28T20:49:11.000Z</time>
      </trkpt>
      <trkpt lat="43.3761" lon="-1.66057">
        <ele>29</ele>
        <time>2026-06-28T20:49:15.000Z</time>
      </trkpt>
      <trkpt lat="43.37626" lon="-1.6607">
        <ele>27</ele>
        <time>2026-06-28T20:49:19.000Z</time>
      </trkpt>
      <trkpt lat="43.37644" lon="-1.66076">
        <ele>26</ele>
        <time>2026-06-28T20:49:22.000Z</time>
      </trkpt>
      <trkpt lat="43.37653" lon="-1.66076">
        <ele>26</ele>
        <time>2026-06-28T20:49:24.000Z</time>
      </trkpt>
      <trkpt lat="43.37672" lon="-1.66068">
        <ele>26</ele>
        <time>2026-06-28T20:49:27.000Z</time>
      </trkpt>
      <trkpt lat="43.37689" lon="-1.66054">
        <ele>25</ele>
        <time>2026-06-28T20:49:31.000Z</time>
      </trkpt>
      <trkpt lat="43.37707" lon="-1.6603">
        <ele>25</ele>
        <time>2026-06-28T20:49:35.000Z</time>
      </trkpt>
      <trkpt lat="43.37716" lon="-1.66011">
        <ele>25</ele>
        <time>2026-06-28T20:49:38.000Z</time>
      </trkpt>
      <trkpt lat="43.37725" lon="-1.65981">
        <ele>25</ele>
        <time>2026-06-28T20:49:42.000Z</time>
      </trkpt>
      <trkpt lat="43.37744" lon="-1.65888">
        <ele>23</ele>
        <time>2026-06-28T20:49:55.000Z</time>
      </trkpt>
      <trkpt lat="43.37747" lon="-1.65881">
        <ele>23</ele>
        <time>2026-06-28T20:49:56.000Z</time>
      </trkpt>
      <trkpt lat="43.37751" lon="-1.65877">
        <ele>22</ele>
        <time>2026-06-28T20:49:57.000Z</time>
      </trkpt>
      <trkpt lat="43.37756" lon="-1.65875">
        <ele>22</ele>
        <time>2026-06-28T20:49:58.000Z</time>
      </trkpt>
      <trkpt lat="43.37761" lon="-1.65875">
        <ele>22</ele>
        <time>2026-06-28T20:49:59.000Z</time>
      </trkpt>
      <trkpt lat="43.37773" lon="-1.6588">
        <ele>21</ele>
        <time>2026-06-28T20:50:01.000Z</time>
      </trkpt>
      <trkpt lat="43.37812" lon="-1.65911">
        <ele>18</ele>
        <time>2026-06-28T20:50:09.000Z</time>
      </trkpt>
      <trkpt lat="43.37833" lon="-1.6593">
        <ele>15</ele>
        <time>2026-06-28T20:50:13.000Z</time>
      </trkpt>
      <trkpt lat="43.37844" lon="-1.65946">
        <ele>14</ele>
        <time>2026-06-28T20:50:16.000Z</time>
      </trkpt>
      <trkpt lat="43.3787" lon="-1.65991">
        <ele>11</ele>
        <time>2026-06-28T20:50:24.000Z</time>
      </trkpt>
      <trkpt lat="43.37886" lon="-1.66013">
        <ele>10</ele>
        <time>2026-06-28T20:50:28.000Z</time>
      </trkpt>
      <trkpt lat="43.379" lon="-1.66024">
        <ele>9</ele>
        <time>2026-06-28T20:50:30.000Z</time>
      </trkpt>
      <trkpt lat="43.37934" lon="-1.66045">
        <ele>8</ele>
        <time>2026-06-28T20:50:37.000Z</time>
      </trkpt>
      <trkpt lat="43.37982" lon="-1.66084">
        <ele>6</ele>
        <time>2026-06-28T20:50:47.000Z</time>
      </trkpt>
      <trkpt lat="43.38013" lon="-1.66117">
        <ele>5</ele>
        <time>2026-06-28T20:50:54.000Z</time>
      </trkpt>
      <trkpt lat="43.38018" lon="-1.66121">
        <ele>5</ele>
        <time>2026-06-28T20:50:55.000Z</time>
      </trkpt>
      <trkpt lat="43.3803" lon="-1.66125">
        <ele>6</ele>
        <time>2026-06-28T20:50:57.000Z</time>
      </trkpt>
      <trkpt lat="43.38034" lon="-1.66129">
        <ele>6</ele>
        <time>2026-06-28T20:50:58.000Z</time>
      </trkpt>
      <trkpt lat="43.38028" lon="-1.66147">
        <ele>6</ele>
        <time>2026-06-28T20:51:01.000Z</time>
      </trkpt>
      <trkpt lat="43.38009" lon="-1.66174">
        <ele>5</ele>
        <time>2026-06-28T20:51:05.000Z</time>
      </trkpt>
      <trkpt lat="43.38005" lon="-1.66184">
        <ele>5</ele>
        <time>2026-06-28T20:51:07.000Z</time>
      </trkpt>
      <trkpt lat="43.38006" lon="-1.66196">
        <ele>5</ele>
        <time>2026-06-28T20:51:09.000Z</time>
      </trkpt>
      <trkpt lat="43.38018" lon="-1.66227">
        <ele>5</ele>
        <time>2026-06-28T20:51:13.000Z</time>
      </trkpt>
      <trkpt lat="43.38031" lon="-1.66244">
        <ele>4</ele>
        <time>2026-06-28T20:51:16.000Z</time>
      </trkpt>
      <trkpt lat="43.38043" lon="-1.66253">
        <ele>5</ele>
        <time>2026-06-28T20:51:19.000Z</time>
      </trkpt>
      <trkpt lat="43.38075" lon="-1.66269">
        <ele>5</ele>
        <time>2026-06-28T20:51:25.000Z</time>
      </trkpt>
      <trkpt lat="43.38089" lon="-1.66284">
        <ele>5</ele>
        <time>2026-06-28T20:51:28.000Z</time>
      </trkpt>
      <trkpt lat="43.38094" lon="-1.66294">
        <ele>5</ele>
        <time>2026-06-28T20:51:29.000Z</time>
      </trkpt>
      <trkpt lat="43.38096" lon="-1.66305">
        <ele>5</ele>
        <time>2026-06-28T20:51:31.000Z</time>
      </trkpt>
      <trkpt lat="43.38105" lon="-1.66373">
        <ele>6</ele>
        <time>2026-06-28T20:51:40.000Z</time>
      </trkpt>
      <trkpt lat="43.3811" lon="-1.66398">
        <ele>6</ele>
        <time>2026-06-28T20:51:43.000Z</time>
      </trkpt>
      <trkpt lat="43.38117" lon="-1.66421">
        <ele>6</ele>
        <time>2026-06-28T20:51:46.000Z</time>
      </trkpt>
      <trkpt lat="43.38125" lon="-1.66437">
        <ele>5</ele>
        <time>2026-06-28T20:51:49.000Z</time>
      </trkpt>
      <trkpt lat="43.38136" lon="-1.66452">
        <ele>4</ele>
        <time>2026-06-28T20:51:52.000Z</time>
      </trkpt>
      <trkpt lat="43.38165" lon="-1.66486">
        <ele>3</ele>
        <time>2026-06-28T20:51:58.000Z</time>
      </trkpt>
      <trkpt lat="43.38181" lon="-1.66502">
        <ele>2</ele>
        <time>2026-06-28T20:52:02.000Z</time>
      </trkpt>
      <trkpt lat="43.38223" lon="-1.6655">
        <ele>3</ele>
        <time>2026-06-28T20:52:12.000Z</time>
      </trkpt>
      <trkpt lat="43.38231" lon="-1.66567">
        <ele>4</ele>
        <time>2026-06-28T20:52:14.000Z</time>
      </trkpt>
      <trkpt lat="43.3828" lon="-1.66688">
        <ele>6</ele>
        <time>2026-06-28T20:52:32.000Z</time>
      </trkpt>
      <trkpt lat="43.38287" lon="-1.66697">
        <ele>6</ele>
        <time>2026-06-28T20:52:34.000Z</time>
      </trkpt>
      <trkpt lat="43.38299" lon="-1.66724">
        <ele>6</ele>
        <time>2026-06-28T20:52:38.000Z</time>
      </trkpt>
      <trkpt lat="43.38308" lon="-1.66741">
        <ele>6</ele>
        <time>2026-06-28T20:52:41.000Z</time>
      </trkpt>
      <trkpt lat="43.38317" lon="-1.66751">
        <ele>6</ele>
        <time>2026-06-28T20:52:43.000Z</time>
      </trkpt>
      <trkpt lat="43.38323" lon="-1.66752">
        <ele>6</ele>
        <time>2026-06-28T20:52:44.000Z</time>
      </trkpt>
      <trkpt lat="43.38348" lon="-1.66753">
        <ele>6</ele>
        <time>2026-06-28T20:52:48.000Z</time>
      </trkpt>
      <trkpt lat="43.38364" lon="-1.6675">
        <ele>6</ele>
        <time>2026-06-28T20:52:51.000Z</time>
      </trkpt>
      <trkpt lat="43.38373" lon="-1.66746">
        <ele>5</ele>
        <time>2026-06-28T20:52:53.000Z</time>
      </trkpt>
      <trkpt lat="43.38385" lon="-1.66735">
        <ele>5</ele>
        <time>2026-06-28T20:52:55.000Z</time>
      </trkpt>
      <trkpt lat="43.38442" lon="-1.66651">
        <ele>5</ele>
        <time>2026-06-28T20:53:10.000Z</time>
      </trkpt>
      <trkpt lat="43.38446" lon="-1.66642">
        <ele>4</ele>
        <time>2026-06-28T20:53:12.000Z</time>
      </trkpt>
      <trkpt lat="43.38445" lon="-1.66634">
        <ele>4</ele>
        <time>2026-06-28T20:53:13.000Z</time>
      </trkpt>
      <trkpt lat="43.38442" lon="-1.66627">
        <ele>4</ele>
        <time>2026-06-28T20:53:14.000Z</time>
      </trkpt>
      <trkpt lat="43.38414" lon="-1.66588">
        <ele>4</ele>
        <time>2026-06-28T20:53:21.000Z</time>
      </trkpt>
      <trkpt lat="43.38409" lon="-1.66567">
        <ele>4</ele>
        <time>2026-06-28T20:53:24.000Z</time>
      </trkpt>
      <trkpt lat="43.38411" lon="-1.66554">
        <ele>4</ele>
        <time>2026-06-28T20:53:25.000Z</time>
      </trkpt>
      <trkpt lat="43.38452" lon="-1.66472">
        <ele>6</ele>
        <time>2026-06-28T20:53:38.000Z</time>
      </trkpt>
      <trkpt lat="43.38482" lon="-1.66415">
        <ele>5</ele>
        <time>2026-06-28T20:53:47.000Z</time>
      </trkpt>
      <trkpt lat="43.38522" lon="-1.66322">
        <ele>2</ele>
        <time>2026-06-28T20:54:01.000Z</time>
      </trkpt>
      <trkpt lat="43.38533" lon="-1.66301">
        <ele>2</ele>
        <time>2026-06-28T20:54:05.000Z</time>
      </trkpt>
      <trkpt lat="43.38562" lon="-1.66235">
        <ele>3</ele>
        <time>2026-06-28T20:54:15.000Z</time>
      </trkpt>
      <trkpt lat="43.38581" lon="-1.66197">
        <ele>4</ele>
        <time>2026-06-28T20:54:21.000Z</time>
      </trkpt>
      <trkpt lat="43.38586" lon="-1.66179">
        <ele>4</ele>
        <time>2026-06-28T20:54:23.000Z</time>
      </trkpt>
      <trkpt lat="43.386" lon="-1.66154">
        <ele>5</ele>
        <time>2026-06-28T20:54:27.000Z</time>
      </trkpt>
      <trkpt lat="43.38607" lon="-1.66115">
        <ele>6</ele>
        <time>2026-06-28T20:54:32.000Z</time>
      </trkpt>
      <trkpt lat="43.38608" lon="-1.66104">
        <ele>6</ele>
        <time>2026-06-28T20:54:34.000Z</time>
      </trkpt>
      <trkpt lat="43.38605" lon="-1.66073">
        <ele>6</ele>
        <time>2026-06-28T20:54:38.000Z</time>
      </trkpt>
      <trkpt lat="43.38608" lon="-1.66041">
        <ele>5</ele>
        <time>2026-06-28T20:54:42.000Z</time>
      </trkpt>
      <trkpt lat="43.38612" lon="-1.66023">
        <ele>5</ele>
        <time>2026-06-28T20:54:45.000Z</time>
      </trkpt>
      <trkpt lat="43.38714" lon="-1.65723">
        <ele>7</ele>
        <time>2026-06-28T20:55:27.000Z</time>
      </trkpt>
      <trkpt lat="43.38741" lon="-1.65653">
        <ele>9</ele>
        <time>2026-06-28T20:55:38.000Z</time>
      </trkpt>
      <trkpt lat="43.38763" lon="-1.65577">
        <ele>10</ele>
        <time>2026-06-28T20:55:48.000Z</time>
      </trkpt>
      <trkpt lat="43.38771" lon="-1.65558">
        <ele>11</ele>
        <time>2026-06-28T20:55:51.000Z</time>
      </trkpt>
      <trkpt lat="43.38789" lon="-1.65526">
        <ele>14</ele>
        <time>2026-06-28T20:55:56.000Z</time>
      </trkpt>
      <trkpt lat="43.38877" lon="-1.65389">
        <ele>20</ele>
        <time>2026-06-28T20:56:20.000Z</time>
      </trkpt>
      <trkpt lat="43.38881" lon="-1.65375">
        <ele>20</ele>
        <time>2026-06-28T20:56:22.000Z</time>
      </trkpt>
      <trkpt lat="43.38879" lon="-1.65368">
        <ele>20</ele>
        <time>2026-06-28T20:56:23.000Z</time>
      </trkpt>
      <trkpt lat="43.38874" lon="-1.65362">
        <ele>19</ele>
        <time>2026-06-28T20:56:24.000Z</time>
      </trkpt>
      <trkpt lat="43.38842" lon="-1.65355">
        <ele>18</ele>
        <time>2026-06-28T20:56:30.000Z</time>
      </trkpt>
      <trkpt lat="43.38835" lon="-1.65355">
        <ele>17</ele>
        <time>2026-06-28T20:56:31.000Z</time>
      </trkpt>
      <trkpt lat="43.38828" lon="-1.65356">
        <ele>17</ele>
        <time>2026-06-28T20:56:32.000Z</time>
      </trkpt>
      <trkpt lat="43.38821" lon="-1.6536">
        <ele>17</ele>
        <time>2026-06-28T20:56:34.000Z</time>
      </trkpt>
      <trkpt lat="43.38815" lon="-1.65367">
        <ele>17</ele>
        <time>2026-06-28T20:56:35.000Z</time>
      </trkpt>
      <trkpt lat="43.3881" lon="-1.65375">
        <ele>17</ele>
        <time>2026-06-28T20:56:36.000Z</time>
      </trkpt>
      <trkpt lat="43.38797" lon="-1.65401">
        <ele>16</ele>
        <time>2026-06-28T20:56:40.000Z</time>
      </trkpt>
      <trkpt lat="43.38781" lon="-1.65447">
        <ele>14</ele>
        <time>2026-06-28T20:56:47.000Z</time>
      </trkpt>
      <trkpt lat="43.38764" lon="-1.65501">
        <ele>11</ele>
        <time>2026-06-28T20:56:55.000Z</time>
      </trkpt>
      <trkpt lat="43.38758" lon="-1.65529">
        <ele>10</ele>
        <time>2026-06-28T20:56:58.000Z</time>
      </trkpt>
      <trkpt lat="43.38749" lon="-1.65559">
        <ele>8</ele>
        <time>2026-06-28T20:57:03.000Z</time>
      </trkpt>
      <trkpt lat="43.3872" lon="-1.6564">
        <ele>8</ele>
        <time>2026-06-28T20:57:14.000Z</time>
      </trkpt>
      <trkpt lat="43.38713" lon="-1.65654">
        <ele>8</ele>
        <time>2026-06-28T20:57:17.000Z</time>
      </trkpt>
      <trkpt lat="43.38706" lon="-1.65656">
        <ele>8</ele>
        <time>2026-06-28T20:57:18.000Z</time>
      </trkpt>
      <trkpt lat="43.3869" lon="-1.65645">
        <ele>7</ele>
        <time>2026-06-28T20:57:21.000Z</time>
      </trkpt>
      <trkpt lat="43.38682" lon="-1.65635">
        <ele>6</ele>
        <time>2026-06-28T20:57:23.000Z</time>
      </trkpt>
      <trkpt lat="43.38669" lon="-1.65615">
        <ele>5</ele>
        <time>2026-06-28T20:57:26.000Z</time>
      </trkpt>
      <trkpt lat="43.38633" lon="-1.65566">
        <ele>5</ele>
        <time>2026-06-28T20:57:35.000Z</time>
      </trkpt>
      <trkpt lat="43.38626" lon="-1.65561">
        <ele>5</ele>
        <time>2026-06-28T20:57:37.000Z</time>
      </trkpt>
      <trkpt lat="43.38618" lon="-1.65564">
        <ele>4</ele>
        <time>2026-06-28T20:57:38.000Z</time>
      </trkpt>
      <trkpt lat="43.38583" lon="-1.65613">
        <ele>4</ele>
        <time>2026-06-28T20:57:47.000Z</time>
      </trkpt>
      <trkpt lat="43.38585" lon="-1.65622">
        <ele>4</ele>
        <time>2026-06-28T20:57:48.000Z</time>
      </trkpt>
      <trkpt lat="43.38589" lon="-1.6563">
        <ele>4</ele>
        <time>2026-06-28T20:57:50.000Z</time>
      </trkpt>
      <trkpt lat="43.38607" lon="-1.65655">
        <ele>5</ele>
        <time>2026-06-28T20:57:54.000Z</time>
      </trkpt>
      <trkpt lat="43.3862" lon="-1.65669">
        <ele>5</ele>
        <time>2026-06-28T20:57:57.000Z</time>
      </trkpt>
      <trkpt lat="43.38627" lon="-1.65668">
        <ele>5</ele>
        <time>2026-06-28T20:57:58.000Z</time>
      </trkpt>
      <trkpt lat="43.38633" lon="-1.65663">
        <ele>5</ele>
        <time>2026-06-28T20:58:00.000Z</time>
      </trkpt>
      <trkpt lat="43.38654" lon="-1.65637">
        <ele>5</ele>
        <time>2026-06-28T20:58:05.000Z</time>
      </trkpt>
    </trkseg>
  </trk>
</gpx>